[[{"header":{"parameterUnit":"m.s-1","parameterCategory":1,"la1":31.0,"la2":29.5877,"lo1":-88.7671,"lo2":-86.6584,"dy":0.0162,"dx":0.0185,"nx":115,"ny":88,"refTime":"2024-06-26T18:00:00:Z","depth":0,"parameterNumber":2,"parameterNumberName":"U-component_of_WINDS"},"data":[0.0,0.0,0.0,0.0,0.0,0.0,0.0,0.0,0.0,0.0,0.0,0.0,0.0,0.0,0.0,0.0,0.0,0.0,0.0,0.0,0.0,0.0,0.0,0.0,0.0,0.0,0.0,0.0,0.0,0.0,0.0,0.0,0.0,0.0,0.0,0.0,0.0,0.0,0.0,0.0,0.0,0.0,0.0,0.0,0.0,0.0,0.0,0.0,0.0,0.0,0.0,0.0,0.0,0.0,0.0,0.0,0.0,0.0,0.0,0.0,0.0,0.0,0.0,0.0,0.0,0.0,0.0,0.0,0.0,0.0,0.0,0.0,0.0,0.0,0.0,0.0,0.0,0.0,0.0,0.0,0.0,0.0,0.0,0.0,0.0,0.0,0.0,0.0,0.0,0.0,0.0,0.0,0.0,0.0,0.0,0.0,0.0,0.0,0.0,0.0,0.0,0.0,0.0,0.0,0.0,0.0,0.0,0.0,0.0,0.0,0.0,0.0,0.0,0.0,0.0,0.0,0.0,0.0,0.0,0.0,0.0,0.0,0.0,0.0,0.0,0.0,0.0,0.0,0.0,0.0,0.0,0.0,0.0,0.0,0.0,0.0,0.0,0.0,0.0,0.0,0.0,0.0,0.0,0.0,0.0,0.0,0.0,0.0,0.0,0.0,0.0,0.0,0.0,0.0,0.0,0.0,0.0,0.0,0.0,0.0,0.0,0.0,0.0,0.0,0.0,0.0,0.0,0.0,0.0,0.0,0.0,0.0,0.0,0.0,0.0,0.0,0.0,0.0,0.0,0.0,0.0,0.0,0.0,0.0,0.0,0.0,0.0,0.0,0.0,0.0,0.0,0.0,0.0,0.0,0.0,0.0,0.0,0.0,0.0,0.0,0.0,0.0,0.0,0.0,0.0,0.0,0.0,0.0,0.0,0.0,0.0,0.0,0.0,0.0,0.0,0.0,0.0,0.0,0.0,0.0,0.0,0.0,0.0,0.0,0.0,0.0,0.0,0.0,0.0,0.0,0.0,0.0,0.0,0.0,0.0,0.0,0.0,0.0,0.0,0.0,0.0,0.0,0.0,0.0,0.0,0.0,0.0,0.0,0.0,0.0,0.0,0.0,0.0,0.0,0.0,0.0,0.0,0.0,0.0,0.0,0.0,0.0,0.0,0.0,0.0,0.0,0.0,0.0,0.0,0.0,0.0,0.0,0.0,0.0,0.0,0.0,0.0,0.0,0.0,0.0,0.0,0.0,0.0,0.0,0.0,0.0,0.0,0.0,0.0,0.0,0.0,0.0,0.0,0.0,0.0,0.0,0.0,0.0,0.0,0.0,0.0,0.0,0.0,0.0,0.0,0.0,0.0,0.0,0.0,0.0,0.0,0.0,0.0,0.0,0.0,0.0,0.0,0.0,0.0,0.0,0.0,0.0,0.0,0.0,0.0,0.0,0.0,0.0,0.0,0.0,0.0,0.0,0.0,0.0,0.0,0.0,0.0,0.0,0.0,0.0,0.0,0.0,0.0,0.0,0.0,0.0,0.0,0.0,0.0,0.0,0.0,0.0,0.0,0.0,0.0,0.0,0.0,0.0,0.0,0.0,0.0,0.0,0.0,0.0,0.0,0.0,0.0,0.0,0.0,0.0,0.0,0.0,0.0,0.0,0.0,0.0,0.0,0.0,0.0,0.0,0.0,0.0,0.0,0.0,0.0,0.0,0.0,0.0,0.0,0.0,0.0,0.0,0.0,0.0,0.0,0.0,0.0,0.0,0.0,0.0,0.0,0.0,0.0,0.0,0.0,0.0,0.0,0.0,0.0,0.0,0.0,0.0,0.0,0.0,0.0,0.0,0.0,0.0,0.0,0.0,0.0,0.0,0.0,0.0,0.0,0.0,0.0,0.0,0.0,0.0,0.0,0.0,0.0,0.0,0.0,0.0,0.0,0.0,0.0,0.0,0.0,0.0,0.0,0.0,0.0,0.0,0.0,0.0,0.0,0.0,0.0,0.0,0.0,0.0,0.0,0.0,0.0,0.0,0.0,0.0,0.0,0.0,0.0,0.0,0.0,0.0,0.0,0.0,0.0,0.0,0.0,0.0,0.0,0.0,0.0,0.0,0.0,0.0,0.0,0.0,0.0,0.0,0.0,0.0,0.0,0.0,0.0,0.0,0.0,0.0,0.0,0.0,0.0,0.0,0.0,0.0,0.0,0.0,0.0,0.0,0.0,0.0,0.0,0.0,0.0,0.0,0.0,0.0,0.0,0.0,0.0,0.0,0.0,0.0,0.0,0.0,0.0,0.0,0.0,0.0,0.0,0.0,0.0,0.0,0.0,0.0,0.0,0.0,0.0,0.0,0.0,0.0,0.0,0.0,0.0,0.0,0.0,0.0,0.0,0.0,0.0,0.0,0.0,0.0,0.0,0.0,0.0,0.0,0.0,0.0,0.0,0.0,0.0,0.0,0.0,0.0,0.0,0.0,0.0,0.0,0.0,0.0,0.0,0.0,0.0,0.0,0.0,0.0,0.0,0.0,0.0,0.0,0.0,0.0,0.0,0.0,0.0,0.0,0.0,0.0,0.0,0.0,0.0,0.0,0.0,0.0,0.0,0.0,0.0,0.0,0.0,0.0,0.0,0.0,0.0,0.0,0.0,0.0,0.0,0.0,0.0,0.0,0.0,0.0,0.0,0.0,0.0,0.0,0.0,0.0,0.0,0.0,0.0,0.0,0.0,0.0,0.0,0.0,0.0,0.0,0.0,0.0,0.0,0.0,0.0,0.0,0.0,0.0,0.0,0.0,0.0,0.0,0.0,0.0,0.0,0.0,0.0,0.0,0.0,0.0,0.0,0.0,0.0,0.0,0.0,0.0,0.0,0.0,0.0,0.0,0.0,0.0,0.0,0.0,0.0,0.0,0.0,0.0,0.0,0.0,0.0,0.0,0.0,0.0,0.0,0.0,0.0,0.0,0.0,0.0,0.0,0.0,0.0,0.0,0.0,0.0,0.0,0.0,0.0,0.0,0.0,0.0,0.0,0.0,0.0,0.0,0.0,0.0,0.0,0.0,0.0,0.0,0.0,0.0,0.0,0.0,0.0,0.0,0.0,0.0,0.0,0.0,0.0,0.0,0.0,0.0,0.0,0.0,0.0,0.0,0.0,0.0,0.0,0.0,0.0,0.0,0.0,0.0,0.0,0.0,0.0,0.0,0.0,0.0,0.0,0.0,0.0,0.0,0.0,0.0,0.0,0.0,0.0,0.0,0.0,0.0,0.0,0.0,0.0,0.0,0.0,0.0,0.0,0.0,0.0,0.0,0.0,0.0,0.0,0.0,0.0,0.0,0.0,0.0,0.0,0.0,0.0,0.0,0.0,0.0,0.0,0.0,0.0,0.0,0.0,0.0,0.0,0.0,0.0,0.0,0.0,0.0,0.0,0.0,0.0,0.0,0.0,0.0,0.0,0.0,0.0,0.0,0.0,0.0,0.0,0.0,0.0,0.0,0.0,0.0,0.0,0.0,0.0,0.0,0.0,0.0,0.0,0.0,0.0,0.0,0.0,0.0,0.0,0.0,0.0,0.0,0.0,0.0,0.0,0.0,0.0,0.0,0.0,0.0,0.0,0.0,0.0,0.0,0.0,0.0,0.0,0.0,0.0,0.0,0.0,0.0,0.0,0.0,0.0,0.0,0.0,0.0,0.0,0.0,0.0,0.0,0.0,0.0,0.0,0.0,0.0,0.0,0.0,0.0,0.0,0.0,0.0,0.0,0.0,0.0,0.0,0.0,0.0,0.0,0.0,0.0,0.0,0.0,0.0,0.0,0.0,0.0,0.0,0.0,0.0,0.0,0.0,0.0,0.0,0.0,0.0,0.0,0.0,0.0,0.0,0.0,0.0,0.0,0.0,0.0,0.0,0.0,0.0,0.0,0.0,0.0,0.0,0.0,0.0,0.0,0.0,0.0,0.0,0.0,0.0,0.0,0.0,0.0,0.0,0.0,0.0,0.0,0.0,0.0,0.0,0.0,0.0,0.0,0.0,0.0,0.0,0.0,0.0,0.0,0.0,0.0,0.0,0.0,0.0,0.0,0.0,0.0,0.0,0.0,0.0,0.0,0.0,0.0,0.0,0.0,0.0,0.0,0.0,0.0,0.0,0.0,0.0,0.0,0.0,0.0,0.0,0.0,0.0,0.0,0.0,0.0,0.0,0.0,0.0,0.0,0.0,0.0,0.0,0.0,0.0,0.0,0.0,0.0,0.0,0.0,0.0,0.0,0.0,0.0,0.0,0.0,-1.3574,0.0,0.0,0.0,0.0,0.0,0.0,0.0,0.0,0.0,0.0,0.0,0.0,0.0,0.0,0.0,0.0,0.0,0.0,0.0,0.0,0.0,0.0,0.0,0.0,0.0,0.0,0.0,0.0,0.0,0.0,0.0,0.0,0.0,0.0,0.0,0.0,0.0,0.0,0.0,0.0,0.0,0.0,0.0,0.0,0.0,0.0,0.0,0.0,0.0,0.0,0.0,0.0,0.0,0.0,0.0,0.0,0.0,0.0,0.0,0.0,0.0,0.0,0.0,0.0,0.0,0.0,0.0,0.0,0.0,0.0,0.0,0.0,0.0,0.0,0.0,0.0,0.0,0.0,0.0,0.0,0.0,0.0,0.0,0.0,0.0,0.0,0.0,0.0,0.0,0.0,0.0,0.0,0.0,0.0,0.0,0.0,0.0,0.0,0.0,0.0,0.0,0.0,0.0,0.0,0.0,0.0,0.0,0.0,0.0,0.0,-1.3575,-1.332,-1.4018,-1.4246,-1.3961,0.0,0.0,0.0,0.0,0.0,0.0,0.0,0.0,0.0,0.0,0.0,0.0,0.0,0.0,0.0,0.0,0.0,0.0,0.0,0.0,0.0,0.0,0.0,0.0,0.0,0.0,0.0,0.0,0.0,0.0,0.0,0.0,0.0,0.0,0.0,0.0,0.0,0.0,0.0,0.0,0.0,0.0,0.0,0.0,0.0,0.0,0.0,0.0,0.0,0.0,0.0,0.0,0.0,0.0,0.0,0.0,0.0,0.0,0.0,0.0,0.0,0.0,0.0,0.0,0.0,0.0,0.0,0.0,0.0,0.0,0.0,0.0,0.0,0.0,0.0,0.0,0.0,0.0,0.0,0.0,0.0,0.0,0.0,0.0,0.0,0.0,0.0,0.0,0.0,0.0,0.0,0.0,0.0,0.0,0.0,0.0,0.0,0.0,0.0,0.0,0.0,0.0,0.0,0.0,0.0,0.0,0.0,0.0,0.0,0.0,0.0,0.0,-1.4821,-1.5049,-1.4891,0.0,0.0,0.0,0.0,0.0,0.0,0.0,0.0,0.0,0.0,0.0,0.0,0.0,0.0,0.0,0.0,0.0,0.0,0.0,0.0,0.0,0.0,0.0,0.0,0.0,0.0,0.0,0.0,0.0,0.0,0.0,0.0,0.0,0.0,0.0,0.0,0.0,0.0,0.0,0.0,0.0,0.0,0.0,0.0,0.0,0.0,0.0,0.0,0.0,0.0,0.0,0.0,0.0,0.0,0.0,0.0,0.0,0.0,0.0,0.0,0.0,0.0,0.0,0.0,0.0,0.0,0.0,0.0,0.0,0.0,0.0,0.0,0.0,0.0,0.0,0.0,0.0,0.0,0.0,0.0,0.0,0.0,0.0,0.0,0.0,0.0,0.0,0.0,0.0,0.0,0.0,0.0,0.0,0.0,0.0,0.0,0.0,0.0,0.0,0.0,0.0,0.0,0.0,0.0,0.0,0.0,0.0,0.0,0.0,0.0,-1.4917,-1.7137,-1.7265,0.0,-1.6456,0.0,0.0,0.0,0.0,0.0,0.0,0.0,0.0,0.0,0.0,0.0,0.0,0.0,0.0,0.0,0.0,0.0,0.0,0.0,0.0,0.0,0.0,0.0,0.0,0.0,0.0,0.0,0.0,0.0,0.0,0.0,0.0,0.0,0.0,0.0,0.0,0.0,0.0,0.0,0.0,0.0,0.0,0.0,0.0,0.0,0.0,0.0,0.0,0.0,0.0,0.0,0.0,0.0,0.0,0.0,0.0,0.0,0.0,0.0,0.0,0.0,0.0,0.0,0.0,0.0,0.0,0.0,0.0,0.0,0.0,0.0,0.0,0.0,0.0,0.0,0.0,0.0,0.0,0.0,0.0,0.0,0.0,0.0,0.0,0.0,0.0,0.0,0.0,0.0,0.0,0.0,0.0,0.0,0.0,0.0,0.0,0.0,0.0,0.0,0.0,0.0,0.0,0.0,0.0,0.0,0.0,0.0,0.0,0.0,0.0,-1.6849,-1.7524,-1.7541,-1.7214,0.0,0.0,0.0,0.0,0.0,0.0,0.0,0.0,0.0,0.0,0.0,0.0,0.0,0.0,0.0,0.0,0.0,0.0,0.0,0.0,0.0,0.0,0.0,0.0,0.0,0.0,0.0,0.0,0.0,0.0,0.0,0.0,0.0,0.0,0.0,0.0,0.0,0.0,0.0,0.0,0.0,0.0,0.0,0.0,0.0,0.0,0.0,0.0,0.0,0.0,0.0,0.0,0.0,0.0,0.0,0.0,0.0,0.0,0.0,0.0,0.0,0.0,0.0,0.0,0.0,0.0,0.0,0.0,0.0,0.0,0.0,0.0,0.0,0.0,0.0,0.0,0.0,0.0,0.0,0.0,0.0,0.0,0.0,0.0,0.0,0.0,0.0,0.0,0.0,0.0,0.0,0.0,0.0,0.0,0.0,0.0,0.0,0.0,0.0,0.0,0.0,0.0,0.0,0.0,0.0,0.0,0.0,0.0,0.0,0.0,-1.7083,0.0,-1.8655,-1.8527,-1.779,-1.6448,0.0,0.0,0.0,0.0,0.0,0.0,0.0,0.0,0.0,0.0,0.0,0.0,0.0,0.0,0.0,0.0,0.0,0.0,0.0,0.0,0.0,0.0,0.0,0.0,0.0,0.0,0.0,0.0,0.0,0.0,0.0,0.0,0.0,0.0,0.0,0.0,0.0,0.0,0.0,0.0,0.0,0.0,0.0,0.0,0.0,0.0,0.0,0.0,0.0,0.0,0.0,0.0,0.0,0.0,0.0,0.0,0.0,0.0,0.0,0.0,0.0,0.0,0.0,0.0,0.0,0.0,0.0,0.0,0.0,0.0,0.0,0.0,0.0,0.0,0.0,0.0,0.0,0.0,0.0,0.0,0.0,0.0,0.0,0.0,0.0,0.0,0.0,0.0,0.0,0.0,0.0,0.0,0.0,0.0,0.0,0.0,0.0,0.0,0.0,0.0,0.0,0.0,0.0,0.0,0.0,0.0,0.0,0.0,0.0,-1.8682,-1.9188,-2.1485,-2.1052,-1.9393,0.0,0.0,0.0,0.0,0.0,0.0,0.0,0.0,0.0,0.0,0.0,0.0,0.0,0.0,0.0,0.0,0.0,0.0,0.0,0.0,0.0,0.0,0.0,0.0,0.0,0.0,0.0,0.0,0.0,0.0,0.0,0.0,0.0,0.0,0.0,0.0,0.0,0.0,0.0,0.0,0.0,0.0,0.0,0.0,0.0,0.0,0.0,0.0,0.0,0.0,0.0,0.0,0.0,0.0,0.0,0.0,0.0,0.0,0.0,0.0,0.0,0.0,0.0,0.0,0.0,0.0,0.0,0.0,0.0,0.0,0.0,0.0,0.0,0.0,0.0,0.0,0.0,0.0,0.0,0.0,0.0,0.0,0.0,0.0,0.0,0.0,0.0,0.0,0.0,0.0,0.0,0.0,0.0,0.0,0.0,0.0,0.0,0.0,0.0,0.0,0.0,0.0,0.0,0.0,0.0,0.0,0.0,0.0,0.0,-1.5657,-1.7702,-2.039,-2.3581,-2.0949,-1.9154,0.0,0.0,0.0,0.0,0.0,0.0,0.0,0.0,0.0,0.0,0.0,0.0,0.0,0.0,0.0,0.0,0.0,0.0,0.0,0.0,0.0,0.0,0.0,0.0,0.0,0.0,0.0,0.0,0.0,0.0,0.0,0.0,0.0,0.0,0.0,0.0,0.0,0.0,0.0,0.0,0.0,0.0,0.0,0.0,0.0,0.0,0.0,0.0,0.0,0.0,0.0,0.0,0.0,0.0,0.0,0.0,0.0,0.0,0.0,0.0,0.0,0.0,0.0,0.0,0.0,0.0,0.0,0.0,0.0,0.0,0.0,0.0,0.0,0.0,0.0,0.0,0.0,0.0,0.0,0.0,0.0,0.0,0.0,0.0,0.0,0.0,0.0,0.0,0.0,0.0,0.0,0.0,0.0,0.0,0.0,0.0,0.0,0.0,0.0,0.0,0.0,0.0,0.0,0.0,0.0,0.0,0.0,0.0,0.0,-1.5785,0.0,-2.2065,0.0,-2.1086,-1.903,0.0,0.0,0.0,0.0,0.0,0.0,0.0,0.0,0.0,0.0,0.0,0.0,0.0,0.0,0.0,0.0,0.0,0.0,0.0,0.0,0.0,0.0,0.0,0.0,0.0,0.0,0.0,0.0,0.0,0.0,0.0,0.0,0.0,0.0,0.0,0.0,0.0,0.0,0.0,0.0,0.0,0.0,0.0,0.0,0.0,0.0,0.0,0.0,0.0,0.0,0.0,0.0,0.0,0.0,0.0,0.0,0.0,0.0,0.0,0.0,0.0,0.0,0.0,0.0,0.0,0.0,0.0,0.0,0.0,0.0,0.0,0.0,0.0,0.0,0.0,0.0,0.0,0.0,0.0,0.0,0.0,0.0,0.0,0.0,0.0,0.0,0.0,0.0,0.0,0.0,0.0,0.0,0.0,0.0,0.0,0.0,0.0,0.0,0.0,0.0,0.0,0.0,0.0,0.0,0.0,0.0,0.0,0.0,-1.6168,-2.106,-2.3529,-2.3737,-2.1843,-2.1579,-1.9028,0.0,0.0,0.0,0.0,0.0,0.0,0.0,0.0,0.0,0.0,0.0,0.0,0.0,0.0,0.0,0.0,0.0,0.0,0.0,0.0,0.0,0.0,0.0,0.0,0.0,0.0,0.0,0.0,0.0,0.0,0.0,0.0,0.0,0.0,0.0,0.0,0.0,0.0,0.0,0.0,0.0,0.0,0.0,0.0,0.0,0.0,0.0,0.0,0.0,0.0,0.0,0.0,0.0,0.0,0.0,0.0,0.0,0.0,0.0,0.0,0.0,0.0,0.0,0.0,0.0,0.0,0.0,0.0,0.0,0.0,0.0,0.0,0.0,0.0,0.0,0.0,0.0,0.0,0.0,0.0,0.0,0.0,0.0,0.0,0.0,0.0,0.0,0.0,0.0,0.0,0.0,0.0,0.0,0.0,0.0,0.0,0.0,0.0,0.0,0.0,0.0,0.0,0.0,0.0,0.0,0.0,0.0,0.0,0.0,-1.8181,-2.0352,-2.1994,-2.2869,-2.0232,-1.8718,0.0,0.0,0.0,0.0,0.0,0.0,0.0,0.0,0.0,0.0,0.0,0.0,0.0,0.0,0.0,0.0,0.0,0.0,0.0,0.0,0.0,0.0,0.0,0.0,0.0,0.0,0.0,0.0,0.0,0.0,0.0,0.0,0.0,0.0,0.0,0.0,0.0,0.0,0.0,0.0,0.0,0.0,0.0,0.0,0.0,0.0,0.0,0.0,0.0,0.0,0.0,0.0,0.0,0.0,0.0,0.0,0.0,0.0,0.0,0.0,0.0,0.0,0.0,0.0,0.0,0.0,0.0,0.0,0.0,0.0,0.0,0.0,0.0,0.0,0.0,0.0,0.0,0.0,0.0,0.0,0.0,0.0,0.0,0.0,0.0,0.0,0.0,0.0,0.0,0.0,0.0,0.0,0.0,0.0,0.0,0.0,0.0,0.0,0.0,0.0,0.0,0.0,0.0,0.0,0.0,0.0,0.0,0.0,0.0,-1.8901,-2.1053,-2.2745,-2.3822,-2.0828,-1.9245,-1.9243,0.0,0.0,0.0,0.0,0.0,0.0,0.0,0.0,0.0,0.0,0.0,0.0,0.0,0.0,0.0,0.0,0.0,0.0,0.0,0.0,0.0,0.0,0.0,0.0,0.0,0.0,0.0,0.0,0.0,0.0,0.0,0.0,0.0,0.0,0.0,0.0,0.0,0.0,0.0,0.0,0.0,0.0,0.0,0.0,0.0,0.0,0.0,0.0,0.0,0.0,0.0,0.0,0.0,0.0,0.0,0.0,0.0,0.0,0.0,0.0,0.0,0.0,0.0,0.0,0.0,0.0,0.0,0.0,0.0,0.0,0.0,0.0,0.0,0.0,0.0,0.0,0.0,0.0,0.0,0.0,0.0,0.0,0.0,0.0,0.0,0.0,0.0,0.0,0.0,0.0,0.0,0.0,0.0,0.0,0.0,0.0,0.0,0.0,0.0,0.0,0.0,0.0,0.0,0.0,0.0,0.0,0.0,0.0,-2.243,-2.4952,-2.5639,-2.4416,-2.301,-2.0588,0.0,0.0,0.0,0.0,0.0,0.0,0.0,0.0,0.0,0.0,0.0,0.0,0.0,0.0,0.0,0.0,0.0,0.0,0.0,0.0,0.0,0.0,0.0,0.0,0.0,0.0,0.0,0.0,0.0,0.0,0.0,0.0,0.0,0.0,0.0,0.0,0.0,0.0,0.0,0.0,0.0,0.0,0.0,0.0,0.0,0.0,0.0,0.0,0.0,0.0,0.0,0.0,0.0,0.0,0.0,0.0,0.0,0.0,0.0,0.0,0.0,0.0,0.0,0.0,0.0,0.0,0.0,0.0,0.0,0.0,0.0,0.0,0.0,0.0,0.0,0.0,0.0,0.0,0.0,0.0,0.0,0.0,0.0,0.0,0.0,0.0,0.0,0.0,0.0,0.0,0.0,0.0,0.0,0.0,0.0,0.0,0.0,0.0,0.0,0.0,0.0,0.0,0.0,0.0,0.0,0.0,0.0,0.0,0.0,-2.415,-2.6232,-2.6995,-2.6295,-2.3671,-2.1777,0.0,0.0,0.0,0.0,0.0,0.0,0.0,0.0,0.0,0.0,0.0,0.0,0.0,0.0,0.0,0.0,0.0,0.0,0.0,0.0,0.0,0.0,0.0,0.0,0.0,0.0,0.0,0.0,0.0,0.0,0.0,0.0,0.0,0.0,0.0,0.0,0.0,0.0,0.0,0.0,0.0,0.0,0.0,0.0,0.0,0.0,0.0,0.0,0.0,0.0,0.0,0.0,0.0,0.0,0.0,0.0,0.0,0.0,0.0,0.0,0.0,0.0,0.0,0.0,0.0,0.0,0.0,0.0,0.0,0.0,0.0,0.0,0.0,0.0,0.0,0.0,0.0,0.0,0.0,0.0,0.0,0.0,0.0,0.0,0.0,0.0,0.0,0.0,0.0,0.0,0.0,0.0,0.0,0.0,0.0,0.0,0.0,0.0,0.0,0.0,0.0,0.0,0.0,0.0,0.0,0.0,0.0,0.0,-2.3277,-2.5606,-2.7501,-2.8533,-2.8556,-2.5696,-2.3506,0.0,0.0,0.0,0.0,0.0,0.0,0.0,0.0,0.0,0.0,0.0,0.0,0.0,0.0,0.0,0.0,0.0,0.0,0.0,0.0,0.0,0.0,0.0,0.0,0.0,0.0,0.0,0.0,0.0,0.0,0.0,0.0,0.0,0.0,0.0,0.0,0.0,0.0,0.0,0.0,0.0,0.0,0.0,0.0,0.0,0.0,0.0,0.0,0.0,0.0,0.0,0.0,0.0,0.0,0.0,0.0,0.0,0.0,0.0,0.0,0.0,0.0,0.0,0.0,0.0,0.0,0.0,0.0,0.0,0.0,0.0,0.0,0.0,0.0,0.0,0.0,0.0,0.0,0.0,0.0,0.0,0.0,0.0,0.0,0.0,0.0,0.0,0.0,0.0,0.0,0.0,0.0,0.0,0.0,0.0,0.0,0.0,0.0,0.0,0.0,0.0,0.0,0.0,0.0,0.0,0.0,0.0,0.0,-2.3956,-2.6736,-2.8713,-3.0031,-3.0598,-2.8171,-2.5342,0.0,0.0,0.0,0.0,0.0,0.0,0.0,0.0,0.0,0.0,0.0,0.0,0.0,0.0,0.0,0.0,0.0,0.0,0.0,0.0,0.0,0.0,0.0,0.0,0.0,0.0,0.0,0.0,0.0,0.0,0.0,0.0,0.0,0.0,0.0,0.0,0.0,0.0,0.0,0.0,0.0,0.0,0.0,0.0,0.0,0.0,0.0,0.0,0.0,0.0,0.0,0.0,0.0,0.0,0.0,0.0,0.0,0.0,0.0,0.0,0.0,0.0,0.0,0.0,0.0,0.0,0.0,0.0,0.0,0.0,0.0,0.0,0.0,0.0,0.0,0.0,0.0,0.0,0.0,0.0,0.0,0.0,0.0,0.0,0.0,0.0,0.0,0.0,0.0,0.0,0.0,0.0,0.0,0.0,0.0,0.0,0.0,0.0,0.0,0.0,0.0,0.0,0.0,0.0,0.0,0.0,0.0,0.0,-2.52,-2.6793,-2.913,-3.0669,-3.1263,-2.8376,-2.5774,0.0,0.0,0.0,0.0,0.0,0.0,0.0,0.0,0.0,0.0,0.0,0.0,0.0,0.0,0.0,0.0,0.0,0.0,0.0,0.0,0.0,0.0,0.0,0.0,0.0,0.0,0.0,0.0,0.0,0.0,0.0,0.0,0.0,0.0,0.0,0.0,0.0,0.0,0.0,0.0,0.0,0.0,0.0,0.0,0.0,0.0,0.0,0.0,-2.3198,0.0,0.0,0.0,0.0,0.0,0.0,0.0,0.0,0.0,0.0,0.0,0.0,0.0,0.0,0.0,0.0,0.0,0.0,0.0,0.0,0.0,0.0,0.0,0.0,0.0,0.0,0.0,0.0,0.0,0.0,0.0,0.0,0.0,0.0,0.0,0.0,0.0,0.0,0.0,0.0,0.0,0.0,0.0,0.0,0.0,0.0,0.0,0.0,0.0,0.0,0.0,0.0,0.0,0.0,0.0,0.0,0.0,0.0,0.0,-2.5506,-2.8061,-2.944,-3.0742,-3.1814,-2.9189,-2.6634,0.0,0.0,0.0,0.0,0.0,0.0,0.0,0.0,0.0,0.0,0.0,0.0,0.0,0.0,0.0,0.0,0.0,0.0,0.0,0.0,0.0,0.0,0.0,0.0,0.0,0.0,0.0,0.0,0.0,0.0,0.0,0.0,0.0,0.0,0.0,0.0,0.0,0.0,0.0,0.0,0.0,0.0,0.0,0.0,0.0,0.0,0.0,0.0,0.0,0.0,0.0,0.0,0.0,0.0,0.0,0.0,0.0,0.0,0.0,0.0,0.0,0.0,0.0,0.0,0.0,0.0,0.0,0.0,0.0,0.0,0.0,0.0,0.0,0.0,0.0,0.0,0.0,0.0,0.0,0.0,0.0,0.0,0.0,0.0,0.0,0.0,0.0,0.0,0.0,0.0,0.0,0.0,0.0,0.0,0.0,0.0,0.0,0.0,0.0,0.0,0.0,0.0,0.0,0.0,0.0,0.0,0.0,-2.244,-2.5308,-2.9089,-2.9497,-3.0438,-3.2089,-2.9943,-2.7476,-2.4897,0.0,0.0,0.0,0.0,0.0,0.0,0.0,0.0,0.0,0.0,0.0,0.0,0.0,0.0,0.0,0.0,0.0,0.0,0.0,0.0,0.0,0.0,0.0,0.0,0.0,0.0,0.0,0.0,0.0,0.0,0.0,0.0,0.0,0.0,0.0,0.0,0.0,0.0,-1.7603,-1.9667,0.0,0.0,0.0,0.0,0.0,0.0,0.0,0.0,-2.3775,0.0,0.0,0.0,0.0,0.0,0.0,0.0,0.0,0.0,0.0,0.0,0.0,0.0,0.0,0.0,0.0,0.0,0.0,0.0,0.0,0.0,0.0,0.0,0.0,0.0,0.0,0.0,0.0,0.0,0.0,0.0,0.0,0.0,0.0,0.0,0.0,0.0,0.0,0.0,0.0,0.0,0.0,0.0,0.0,0.0,0.0,0.0,0.0,0.0,0.0,0.0,0.0,0.0,0.0,0.0,0.0,-2.1264,-2.2693,-2.4873,-2.7855,-2.9035,-3.0006,-3.075,-2.9447,-2.7476,-2.4897,0.0,0.0,0.0,0.0,0.0,0.0,0.0,0.0,0.0,0.0,0.0,0.0,0.0,0.0,0.0,0.0,0.0,0.0,0.0,0.0,0.0,0.0,0.0,0.0,0.0,0.0,0.0,0.0,0.0,0.0,0.0,0.0,0.0,0.0,0.0,0.0,0.0,0.0,0.0,-2.0901,-2.1873,0.0,0.0,0.0,0.0,0.0,0.0,0.0,0.0,-2.4246,0.0,0.0,0.0,0.0,0.0,0.0,0.0,0.0,0.0,0.0,0.0,0.0,0.0,0.0,0.0,0.0,0.0,0.0,0.0,0.0,0.0,0.0,0.0,0.0,0.0,0.0,0.0,0.0,0.0,0.0,0.0,0.0,0.0,0.0,0.0,0.0,0.0,0.0,0.0,0.0,0.0,0.0,0.0,0.0,0.0,0.0,0.0,0.0,0.0,0.0,0.0,0.0,0.0,0.0,0.0,-2.137,-2.2949,-2.5262,-2.8358,-2.8504,-2.9116,-3.0281,-2.8285,-2.6245,0.0,0.0,0.0,0.0,0.0,0.0,0.0,0.0,0.0,0.0,0.0,0.0,0.0,0.0,0.0,0.0,0.0,0.0,0.0,0.0,0.0,0.0,0.0,0.0,0.0,0.0,0.0,0.0,0.0,0.0,0.0,0.0,0.0,0.0,0.0,0.0,0.0,0.0,0.0,0.0,-2.2287,-2.2962,-2.4297,0.0,0.0,0.0,0.0,0.0,0.0,-2.4878,-2.4674,0.0,0.0,0.0,0.0,0.0,0.0,0.0,0.0,0.0,0.0,0.0,0.0,0.0,0.0,0.0,0.0,0.0,0.0,0.0,0.0,0.0,0.0,0.0,0.0,0.0,0.0,0.0,0.0,0.0,0.0,0.0,0.0,0.0,0.0,0.0,0.0,0.0,0.0,0.0,0.0,0.0,0.0,0.0,0.0,0.0,0.0,0.0,0.0,0.0,0.0,0.0,0.0,0.0,0.0,0.0,-2.1418,-2.3025,-2.5421,-2.8538,-2.7934,-2.8218,-2.9612,-2.734,-2.5352,0.0,0.0,0.0,0.0,0.0,0.0,0.0,0.0,0.0,0.0,0.0,0.0,0.0,0.0,0.0,0.0,0.0,0.0,0.0,0.0,0.0,0.0,0.0,0.0,0.0,0.0,0.0,0.0,0.0,0.0,0.0,0.0,0.0,0.0,0.0,0.0,0.0,0.0,0.0,0.0,0.0,-2.4505,-2.6155,-2.572,0.0,0.0,0.0,0.0,-2.605,-2.5941,0.0,0.0,0.0,0.0,0.0,0.0,0.0,0.0,0.0,0.0,0.0,0.0,0.0,0.0,0.0,0.0,0.0,0.0,0.0,0.0,0.0,0.0,0.0,0.0,0.0,0.0,0.0,0.0,0.0,0.0,0.0,0.0,0.0,0.0,0.0,0.0,0.0,0.0,0.0,0.0,0.0,0.0,0.0,0.0,0.0,0.0,0.0,0.0,0.0,0.0,0.0,0.0,0.0,0.0,0.0,0.0,-2.1393,-2.2648,-2.4375,-2.6674,-2.7261,-2.7616,-2.7821,-2.753,-2.626,0.0,0.0,0.0,0.0,0.0,0.0,0.0,0.0,0.0,0.0,0.0,0.0,0.0,0.0,0.0,0.0,0.0,0.0,0.0,0.0,0.0,0.0,0.0,0.0,0.0,0.0,0.0,0.0,0.0,0.0,0.0,0.0,0.0,0.0,0.0,0.0,0.0,0.0,0.0,0.0,0.0,-2.6637,-2.5299,-2.5937,-2.6736,0.0,0.0,-2.7304,-2.7463,-2.8348,0.0,0.0,0.0,0.0,0.0,0.0,0.0,0.0,0.0,0.0,0.0,0.0,0.0,0.0,0.0,0.0,0.0,0.0,0.0,0.0,0.0,0.0,0.0,0.0,0.0,0.0,0.0,0.0,0.0,0.0,0.0,0.0,0.0,0.0,0.0,0.0,0.0,0.0,0.0,0.0,0.0,0.0,0.0,0.0,0.0,0.0,0.0,0.0,0.0,0.0,0.0,0.0,0.0,0.0,0.0,-1.8807,-2.143,-2.3213,-2.5126,-2.7316,-2.7112,-2.7212,-2.7825,-2.599,-2.432,0.0,0.0,0.0,0.0,0.0,0.0,0.0,0.0,0.0,0.0,0.0,0.0,0.0,0.0,0.0,0.0,0.0,0.0,0.0,0.0,0.0,0.0,0.0,0.0,0.0,0.0,0.0,0.0,0.0,0.0,0.0,0.0,0.0,0.0,0.0,0.0,0.0,0.0,0.0,0.0,0.0,0.0,-2.7418,-2.8057,0.0,0.0,0.0,-2.8915,-2.9179,0.0,0.0,0.0,0.0,0.0,0.0,0.0,0.0,0.0,0.0,0.0,0.0,0.0,0.0,0.0,0.0,0.0,0.0,0.0,0.0,0.0,0.0,0.0,0.0,0.0,0.0,0.0,0.0,0.0,0.0,0.0,0.0,0.0,0.0,0.0,0.0,0.0,0.0,0.0,0.0,0.0,0.0,0.0,0.0,0.0,0.0,0.0,0.0,0.0,0.0,0.0,0.0,0.0,0.0,0.0,0.0,0.0,-2.1481,-2.3816,-2.595,-2.7795,-2.7128,-2.709,-2.7808,-2.5134,0.0,0.0,0.0,0.0,0.0,0.0,0.0,0.0,0.0,0.0,0.0,0.0,0.0,0.0,0.0,0.0,0.0,0.0,0.0,0.0,0.0,0.0,0.0,0.0,0.0,0.0,0.0,-1.4255,0.0,0.0,0.0,0.0,0.0,0.0,0.0,0.0,0.0,0.0,0.0,0.0,0.0,0.0,-2.6343,-2.8525,-2.9336,-2.9721,0.0,0.0,-3.0123,-3.0554,-3.0202,-2.9607,0.0,0.0,0.0,0.0,0.0,0.0,0.0,0.0,0.0,0.0,0.0,0.0,0.0,0.0,0.0,0.0,0.0,0.0,0.0,0.0,0.0,0.0,0.0,0.0,0.0,0.0,0.0,0.0,0.0,0.0,0.0,0.0,0.0,0.0,0.0,0.0,0.0,0.0,0.0,0.0,0.0,0.0,0.0,0.0,0.0,0.0,0.0,0.0,0.0,0.0,0.0,0.0,0.0,0.0,0.0,-2.1493,-2.4167,-2.6126,-2.7293,-2.7268,-2.7268,-2.7341,-2.6154,-2.442,0.0,0.0,0.0,0.0,0.0,0.0,0.0,0.0,0.0,0.0,0.0,0.0,0.0,0.0,0.0,0.0,0.0,0.0,0.0,0.0,0.0,0.0,0.0,0.0,0.0,0.0,0.0,0.0,0.0,0.0,0.0,0.0,0.0,0.0,0.0,0.0,0.0,0.0,0.0,0.0,0.0,-2.7312,-2.6776,-2.8663,-3.0133,0.0,0.0,-3.1075,-3.1202,-3.2174,-3.2127,-2.9927,0.0,0.0,0.0,0.0,0.0,0.0,0.0,0.0,0.0,0.0,0.0,0.0,0.0,0.0,0.0,0.0,0.0,0.0,0.0,0.0,0.0,0.0,0.0,0.0,0.0,0.0,0.0,0.0,0.0,0.0,0.0,0.0,0.0,0.0,0.0,0.0,0.0,0.0,0.0,0.0,0.0,0.0,0.0,0.0,0.0,0.0,0.0,0.0,0.0,0.0,0.0,0.0,0.0,-1.9284,-2.1468,-2.4192,-2.6302,-2.772,-2.7795,-2.7783,-2.7795,-2.6084,-2.406,0.0,0.0,0.0,0.0,0.0,0.0,0.0,0.0,0.0,0.0,0.0,0.0,0.0,0.0,0.0,0.0,0.0,0.0,0.0,0.0,0.0,0.0,0.0,0.0,0.0,0.0,0.0,0.0,-1.6881,-1.682,-1.688,0.0,0.0,0.0,0.0,0.0,0.0,0.0,0.0,0.0,0.0,-2.7674,-2.8109,-2.9646,0.0,0.0,-3.0681,-3.1105,-3.107,-3.1289,-3.1153,-3.025,-2.9303,0.0,0.0,0.0,0.0,0.0,0.0,0.0,0.0,0.0,0.0,0.0,0.0,0.0,0.0,0.0,0.0,0.0,0.0,0.0,0.0,0.0,0.0,0.0,0.0,0.0,0.0,0.0,0.0,0.0,0.0,0.0,0.0,0.0,0.0,0.0,0.0,0.0,0.0,0.0,0.0,0.0,0.0,0.0,0.0,0.0,0.0,0.0,0.0,0.0,0.0,0.0,0.0,-1.9535,-2.1732,-2.4619,-2.6841,-2.8323,-2.8348,-2.8273,-2.8059,-2.6289,-2.4268,0.0,0.0,0.0,0.0,0.0,0.0,0.0,0.0,0.0,0.0,0.0,0.0,0.0,0.0,0.0,0.0,0.0,0.0,0.0,0.0,0.0,0.0,0.0,0.0,0.0,0.0,0.0,0.0,-1.7385,-1.7063,-1.7133,0.0,0.0,0.0,0.0,0.0,0.0,0.0,0.0,0.0,0.0,-2.7782,-2.8868,-2.993,-3.0393,-2.9828,-3.0173,-3.0548,-3.0693,-3.0904,-3.0948,-3.0602,0.0,0.0,0.0,0.0,0.0,0.0,0.0,0.0,0.0,0.0,0.0,0.0,0.0,0.0,0.0,0.0,0.0,0.0,0.0,0.0,0.0,0.0,0.0,0.0,0.0,0.0,0.0,0.0,0.0,0.0,-1.2379,0.0,0.0,0.0,0.0,0.0,0.0,0.0,0.0,0.0,0.0,0.0,0.0,0.0,0.0,0.0,0.0,0.0,0.0,0.0,0.0,0.0,0.0,-2.0073,-2.2284,-2.5536,-2.7758,-2.8813,-2.8875,-2.8624,-2.8122,-2.7052,-2.536,-2.3083,0.0,0.0,0.0,0.0,0.0,0.0,0.0,0.0,0.0,0.0,0.0,0.0,0.0,0.0,0.0,0.0,0.0,0.0,0.0,0.0,0.0,0.0,0.0,0.0,0.0,0.0,-1.7924,-1.771,-1.7461,0.0,0.0,0.0,0.0,0.0,0.0,0.0,0.0,0.0,0.0,-2.6481,-2.7645,-2.8525,-2.9084,-2.9445,-2.9197,-2.9209,-2.9419,-3.0203,-3.1589,-3.2246,0.0,0.0,0.0,0.0,0.0,0.0,0.0,0.0,0.0,0.0,0.0,0.0,0.0,0.0,0.0,0.0,0.0,0.0,0.0,0.0,0.0,0.0,0.0,0.0,0.0,0.0,0.0,-1.643,-1.5743,0.0,0.0,0.0,0.0,0.0,0.0,0.0,0.0,0.0,0.0,0.0,-2.2029,-2.2987,0.0,0.0,0.0,0.0,0.0,0.0,0.0,0.0,0.0,0.0,0.0,0.0,-2.0546,-2.2653,-2.5585,-2.7603,-2.8662,-2.9035,-2.9049,-2.8624,-2.7582,-2.5448,-2.2146,0.0,0.0,0.0,0.0,0.0,0.0,0.0,0.0,0.0,0.0,0.0,0.0,0.0,0.0,0.0,0.0,0.0,0.0,0.0,0.0,0.0,0.0,0.0,0.0,0.0,-1.5856,0.0,0.0,0.0,0.0,0.0,0.0,0.0,0.0,0.0,0.0,0.0,-2.4882,-2.6447,-2.7664,-2.8687,-2.9543,-2.9984,-3.0194,0.0,0.0,0.0,0.0,0.0,0.0,0.0,0.0,0.0,0.0,0.0,0.0,0.0,0.0,-2.8239,-2.6128,-2.5581,-2.5481,-2.545,0.0,0.0,0.0,0.0,0.0,0.0,0.0,0.0,0.0,0.0,0.0,0.0,0.0,0.0,-1.9422,0.0,-1.8919,0.0,0.0,0.0,0.0,0.0,0.0,0.0,0.0,-2.3841,-2.4725,-2.4587,-2.5523,-2.5473,0.0,-2.4575,-2.2782,0.0,0.0,0.0,0.0,0.0,0.0,0.0,0.0,-2.1542,-2.3571,-2.6124,-2.7928,-2.8859,-2.9232,-2.9247,-2.8888,-2.7682,-2.5569,-2.246,-2.1102,-1.966,0.0,0.0,0.0,0.0,0.0,0.0,0.0,0.0,0.0,0.0,0.0,0.0,0.0,0.0,0.0,0.0,0.0,0.0,0.0,0.0,0.0,0.0,0.0,-1.6482,0.0,0.0,0.0,0.0,0.0,0.0,0.0,0.0,0.0,-2.3348,-2.5058,-2.6871,-2.8259,-2.9214,-2.9925,-3.0357,0.0,0.0,0.0,0.0,0.0,0.0,0.0,-3.1472,-3.1405,-3.1798,-3.2092,-3.1964,-3.1992,-3.1888,-3.1551,0.0,0.0,-2.8388,-2.7783,-2.7621,-2.7586,-2.8784,-2.9819,-2.9857,-3.0285,-3.0751,0.0,0.0,0.0,0.0,0.0,0.0,0.0,0.0,-2.2447,-2.2422,0.0,-2.1832,0.0,0.0,0.0,0.0,0.0,-2.2698,0.0,0.0,-2.6995,-2.7833,-2.7394,-2.7871,-2.7871,-2.7444,-2.8298,-2.7421,-2.4775,-2.1616,0.0,0.0,0.0,0.0,0.0,0.0,-2.3047,-2.5019,-2.7164,-2.8642,-2.9303,-2.938,-2.9222,-2.8838,-2.7369,-2.5795,-2.413,-2.3421,-2.1892,-1.9233,-1.8053,0.0,0.0,0.0,0.0,0.0,0.0,0.0,0.0,0.0,0.0,0.0,0.0,0.0,0.0,0.0,0.0,0.0,0.0,0.0,0.0,-1.7075,0.0,0.0,0.0,0.0,0.0,0.0,0.0,0.0,0.0,0.0,-2.5959,-2.7218,-2.8812,-3.0432,0.0,0.0,0.0,0.0,-3.0714,-3.0302,-3.0669,-3.0838,-3.0302,-3.2352,-3.3463,-3.1951,0.0,0.0,-3.2592,-3.2584,-3.2698,-3.209,-3.2111,-3.1821,-3.0681,-2.9852,-2.9374,-2.9386,-2.9897,-3.0212,-3.0296,-3.1202,-3.1894,-2.4644,0.0,0.0,0.0,0.0,-2.3314,-2.4268,-2.5837,-2.5481,-2.5046,-2.4644,-2.4494,0.0,0.0,0.0,0.0,0.0,0.0,-2.5211,-2.642,-2.7573,-2.8349,-2.8799,-2.9151,-2.9227,-2.9114,-2.8988,-2.8487,-2.7672,-2.5831,-2.3175,-1.9866,0.0,0.0,0.0,0.0,-2.4349,-2.591,-2.7345,-2.8372,-2.8949,-2.8961,-2.8714,-2.8126,-2.7823,-2.6854,-2.5197,-2.4632,-2.3396,-2.1428,-1.9924,0.0,0.0,0.0,0.0,0.0,0.0,0.0,0.0,0.0,0.0,0.0,0.0,0.0,0.0,0.0,0.0,0.0,0.0,0.0,-1.6679,-1.7192,-1.7868,0.0,0.0,0.0,0.0,0.0,0.0,0.0,0.0,0.0,-3.0193,-3.0382,-3.0731,0.0,0.0,-3.172,-3.1656,-3.1792,-3.2005,-3.2307,0.0,0.0,0.0,-3.2689,-3.2975,-3.3028,-3.3814,-3.4336,-3.406,-3.4059,-3.4033,-3.3655,-3.351,-3.3215,-3.2523,-3.1629,-3.1067,-3.1091,-3.1721,-3.2358,-3.2418,-3.32,-3.3897,-2.821,-2.6289,-2.5008,-2.4971,-2.5762,-2.5674,-2.6502,-2.7921,-2.757,-2.7356,-2.7243,-2.7017,-2.6113,-2.4745,-2.4305,0.0,0.0,0.0,-2.6959,-2.845,-2.8674,-2.9171,-2.9729,-2.9739,-2.964,-2.9482,-2.9159,-2.8985,-2.8972,-2.8188,-2.6138,-2.2942,0.0,0.0,-2.2748,-2.4229,-2.5642,-2.6843,-2.7738,-2.8397,-2.8791,-2.8882,-2.8588,-2.7841,-2.7902,-2.736,-2.6034,-2.5669,-2.4795,-2.3333,-2.1863,-1.988,0.0,0.0,0.0,0.0,0.0,0.0,0.0,0.0,0.0,0.0,0.0,-1.4305,-1.3325,0.0,0.0,0.0,-1.662,-1.7627,-1.8672,-1.9251,0.0,0.0,0.0,0.0,0.0,0.0,0.0,-2.875,-3.0382,-3.1863,-3.3043,-3.3106,-3.3007,-3.286,-3.2872,-3.2809,-3.2666,0.0,-3.3069,-3.3373,-3.3778,-3.392,-3.3494,-3.3508,-3.377,-3.4295,-3.4684,-3.5055,-3.5332,-3.5286,-3.5148,-3.4963,-3.473,-3.4403,-3.4191,-3.3472,-3.2825,-3.2602,-3.3066,-3.3549,-3.3585,-3.4258,-3.4775,-3.1386,-3.1122,-2.8146,-2.719,-2.7681,-2.816,-2.8649,-2.9076,-2.9088,-2.9428,-2.9867,-2.9352,-2.8561,-2.7557,-2.6527,0.0,-2.7632,-2.8134,-2.9202,-3.0631,-3.0177,-3.0084,-3.0298,-2.9866,-2.9528,-2.9226,-2.9226,-2.9226,-2.9226,-2.9214,-2.835,-2.6736,-2.5845,-2.5422,-2.5419,-2.6106,-2.6939,-2.7798,-2.8366,-2.871,-2.8885,-2.9047,-2.8739,-2.7903,-2.7854,-2.7442,-2.6606,-2.659,-2.6042,-2.4931,-2.371,-2.1803,-1.9128,0.0,0.0,0.0,0.0,0.0,0.0,0.0,0.0,0.0,0.0,0.0,0.0,0.0,0.0,0.0,-1.9244,0.0,-2.1329,-2.2488,0.0,0.0,0.0,-2.5583,-2.6447,-2.8562,-3.0351,-3.1474,0.0,0.0,-3.468,0.0,-3.5232,-3.4549,-3.4392,-3.4139,-3.3691,-3.3817,-3.3946,-3.3813,-3.4365,-3.4605,-3.3971,-3.4507,-3.5125,-3.5414,-3.5824,-3.5988,-3.6213,-3.6083,-3.593,-3.5833,-3.5512,-3.526,-3.5551,-3.5066,-3.4703,-3.4168,-3.4124,-3.4138,-3.4174,-3.4619,-3.4991,-3.1386,-3.1336,-3.0545,-3.0294,-3.0419,-3.0557,-3.0683,-3.0796,-3.0809,-3.0884,-3.0997,-3.0871,-3.0658,-3.0394,-3.0131,-3.0156,-3.0419,-3.0545,-3.0753,-3.0966,-3.0639,-3.0462,-3.0379,-3.0238,-3.0189,-3.0097,-3.0249,-3.0307,-3.0319,-3.0167,-2.9861,-2.9444,-2.9096,-2.7878,-2.6033,-2.7286,-2.8297,-2.8919,-2.9448,-2.9754,-2.9772,-2.959,-2.9187,-2.8592,-2.8318,-2.7903,-2.731,-2.7237,-2.6743,-2.5682,-2.4899,-2.3604,-2.1616,-1.9952,0.0,0.0,0.0,0.0,0.0,0.0,0.0,0.0,0.0,-1.9494,-1.7174,0.0,-2.0591,0.0,-2.1496,-2.2399,-2.3391,-2.3632,0.0,0.0,-2.7825,-2.9001,-3.0943,-3.2184,-3.2975,-3.3269,-3.4232,-3.4986,-3.5282,-3.5456,-3.5565,-3.5571,-3.5058,-3.446,-3.4003,-3.4144,-3.4431,-3.4737,-3.5158,-3.5279,-3.4906,-3.498,-3.5271,-3.5572,-3.5681,-3.5812,-3.6063,-3.586,-3.5608,-3.5428,-3.532,-3.5357,-3.5757,-3.5584,-3.568,-3.601,-3.5693,-3.5195,-3.5256,-3.5641,-3.6014,-3.2139,-3.2139,-3.2181,-3.2139,-3.2143,-3.1599,-3.1386,-3.1386,-3.1386,-3.1386,-3.1386,-3.1386,-3.1386,-3.1386,-3.1386,-3.1386,-3.1386,-3.1386,-3.1414,-3.1444,-3.0971,-3.0707,-3.0634,-3.0307,-3.0102,-3.0098,-3.0211,-3.0337,-3.0408,-3.0295,-3.0265,-3.0265,-3.0128,-2.9352,-2.7981,-2.8763,-2.9364,-2.9653,-2.9941,-3.0086,-3.0086,-2.991,-2.9593,-2.9177,-2.898,-2.867,-2.8232,-2.8195,-2.7815,-2.698,-2.6332,-2.52,-2.3563,-2.2098,-2.1083,0.0,0.0,0.0,0.0,0.0,0.0,0.0,0.0,0.0,0.0,0.0,-2.3045,-2.3162,-2.4446,-2.5505,-2.6163,-2.6905,-2.8053,-2.978,-3.078,-3.1914,-3.3332,-3.4165,-3.4813,-3.5303,-3.5778,-3.6193,-3.6383,-3.6573,-3.6565,-3.6382,-3.616,-3.5742,-3.493,-3.4833,-3.5086,-3.5475,-3.58,-3.5847,-3.5464,-3.5271,-3.5369,-3.5831,-3.5977,-3.6099,-3.6589,-3.6382,-3.6088,-3.5928,-3.583,-3.5618,-3.5487,-3.5743,-3.6259,-3.7037,-3.686,-3.6305,-3.6026,-3.6206,-3.6411,-3.3282,-3.3325,-3.3294,-3.3338,-3.3219,-3.224,-3.1738,-3.1599,-3.1599,-3.1612,-3.1612,-3.1612,-3.1599,-3.1612,-3.1599,-3.1612,-3.1612,-3.1599,-3.1739,-3.1948,-3.1253,-3.0908,-3.092,-3.0223,-2.9901,-2.9877,-2.9908,-3.0036,-3.029,-3.029,-3.0332,-3.029,-3.0332,-3.0326,-3.0386,-3.0398,-3.035,-3.029,-3.0332,-3.0332,-3.029,-3.023,-3.0061,-2.9791,-2.9694,-2.9509,-2.9245,-2.9221,-2.8976,-2.8437,-2.7808,-2.6821,-2.5364,-2.4222,-2.3216,0.0,-2.2149,0.0,0.0,0.0,0.0,0.0,0.0,0.0,0.0,-2.5028,-2.5624,-2.5853,-2.7582,-2.8841,-2.914,-3.0797,-3.1813,-3.1808,-3.3159,-3.4225,-3.4562,-3.5185,-3.6025,-3.7025,-3.7201,-3.7305,-3.7506,-3.7767,-3.7556,-3.7044,-3.7108,-3.6949,-3.6148,-3.5902,-3.5975,-3.6166,-3.6297,-3.6278,-3.5867,-3.5588,-3.5685,-3.6284,-3.6419,-3.669,-3.7295,-3.7031,-3.6741,-3.6678,-3.6541,-3.6177,-3.5317,-3.5974,-3.6843,-3.7804,-3.7618,-3.7096,-3.6663,-3.6627,-3.6603,-3.4412,-3.4412,-3.4412,-3.4412,-3.4399,-3.4186,-3.3583,-3.281,-3.281,-3.281,-3.2797,-3.2767,-3.2797,-3.2754,-3.281,-3.2754,-3.2754,-3.2797,-3.2689,-3.2519,-3.1867,-3.1416,-3.1208,-3.0707,-3.0571,-3.0767,-3.0932,-3.1141,-3.1404,-3.1404,-3.1416,-3.1404,-3.1404,-3.1601,-3.2022,0.0,0.0,0.0,-3.1416,-3.1416,-3.1392,-3.0939,-3.073,-3.0652,-3.0242,0.0,-2.991,-2.991,-2.9668,-2.9161,-2.8988,0.0,0.0,0.0,0.0,0.0,0.0,0.0,0.0,0.0,0.0,0.0,-2.8918,-2.8903,-2.7247,-2.8525,-2.9339,-2.9013,-3.0155,-3.1117,-3.1559,-3.2179,-3.3007,-3.4017,-3.4431,-3.4928,-3.5595,-3.6021,-3.6405,-3.6797,-3.7085,-3.7307,-3.7555,-3.7281,-3.7193,-3.7392,-3.718,-3.7132,-3.7505,-3.7319,-3.7134,-3.701,-3.6837,-3.6687,-3.6612,-3.6463,-3.6451,-3.6708,-3.672,-3.6819,-3.6941,-3.6751,-3.6485,-3.6548,-3.6614,-3.6885,-3.701,-3.727,-3.7567,-3.8233,-3.8069,-3.7673,-3.7168,-3.7385,-3.7685,-3.468,0.0,-3.468,-3.468,0.0,-3.468,-3.4412,-3.3884,-3.3884,-3.3897,-3.3872,-3.3596,-3.3483,-3.347,-3.3194,-3.3124,-3.3124,-3.3124,-3.2909,-3.2519,-3.2204,-3.1735,-3.1151,-3.0902,-3.0788,-3.0838,-3.1252,-3.1641,-3.1935,-3.2289,-3.2466,-3.2466,-3.2512,-3.2599,-3.2875,-3.2887,-3.2743,-3.2512,-3.2478,-3.2391,-3.2082,-3.1817,-3.1541,-3.1276,0.0,0.0,0.0,0.0,0.0,0.0,0.0,0.0,0.0,0.0,0.0,-2.8498,-2.8258,-2.8102,-2.8126,-2.8835,-2.9508,-3.005,-3.1518,-3.1589,-2.9764,-3.0972,-3.1583,-3.0964,-3.1982,-3.2779,-3.2926,-3.3427,-3.4056,-3.4701,-3.5043,-3.5471,-3.6085,-3.6308,-3.6678,-3.727,-3.7641,-3.79,-3.8146,-3.8222,-3.8183,-3.8183,-3.8234,-3.8311,-3.8515,-3.8041,-3.7556,-3.7443,-3.718,-3.6979,-3.6816,-3.6816,-3.695,-3.712,-3.7205,-3.7314,-3.7557,-3.7387,-3.7232,-3.7348,-3.7515,-3.7716,-3.8078,-3.8164,-3.8261,-3.8493,-3.8409,-3.8125,-3.7847,-3.7899,-3.7974,-3.5014,-3.5014,-3.5014,-3.5002,-3.5014,-3.5014,-3.5014,-3.5002,0.0,0.0,0.0,-3.4236,-3.4035,-3.4022,-3.3558,-3.3319,-3.3262,-3.3262,-3.2953,-3.2425,-3.2406,-3.1967,-3.1149,-3.1136,-3.1055,-3.0913,-3.1516,-3.1992,-3.2245,-3.2975,-3.3284,-3.3284,-3.3284,-3.3344,-3.3416,-3.3513,-3.3561,-3.3549,-3.3392,-3.3068,-3.2659,-3.2647,-3.2418,-3.2006,-3.1994,-3.2006,-3.1994,-3.1994,-3.1741,-3.1204,-3.1211,-3.0915,-3.0441,-2.9953,-2.9713,-2.9725,-2.9809,-2.9869,-2.9869,-3.0434,-3.1204,-3.2154,-3.3216,-3.3266,-3.2062,-3.2793,-3.3081,-3.2519,-3.3523,-3.4145,-3.3927,-3.4531,-3.5004,-3.4957,-3.5436,-3.5892,-3.626,-3.648,-3.6933,-3.7755,-3.8232,-3.8518,-3.8718,-3.9208,-3.949,-3.905,-3.9183,-3.9569,-3.921,-3.8449,-3.789,-3.7826,-3.7622,-3.727,-3.7069,-3.7054,-3.7227,-3.7679,-3.7752,-3.791,-3.8263,-3.8303,-3.825,-3.8323,-3.8514,-3.8647,-3.8804,-3.8844,-3.8905,-3.893,-3.8643,-3.8409,-3.8356,-3.8185,-3.8027,-3.6166,-3.6179,-3.6179,-3.6132,-3.6166,-3.6179,-3.6166,-3.6103,-3.514,-3.468,-3.468,-3.4638,-3.46,-3.46,-3.4525,-3.4236,-3.3796,-3.3796,-3.3314,0.0,-3.2406,-3.2101,-3.1596,-3.1645,-3.1759,-3.1902,-3.2254,-3.2535,-3.2804,-3.3167,-3.3284,-3.3296,-3.3284,-3.3501,-3.3886,-3.4342,-3.4619,-3.4546,-3.3741,-3.3248,-3.3176,-3.3176,-3.314,-3.308,-3.3044,-3.3056,-3.3068,-3.3044,-3.2815,-3.231,-3.2274,-3.2022,-3.1524,-3.1416,-3.138,-3.1404,-3.1781,-3.2046,-3.2058,-3.2901,-3.3694,-3.4306,-3.4523,-3.4364,-3.3743,-3.3925,-3.4202,-3.4287,-3.4711,-3.5037,-3.5028,-3.5486,-3.5701,-3.5547,-3.5941,-3.6248,-3.6136,-3.6664,-3.7194,-3.763,-3.8292,-3.8706,-3.8804,-3.9154,-3.9362,-3.9258,-3.9322,-3.9374,-3.9245,-3.8938,-3.8672,-3.8567,-3.819,-3.7927,-3.7754,-3.7798,-3.7867,-3.8222,-3.8263,-3.8315,-3.8582,-3.8631,-3.8631,-3.8736,-3.8945,-3.9089,-3.9117,-3.9181,-3.9295,-3.9422,-3.8955,-3.8486,-3.8473,-3.825,-3.8027,-3.6681,-3.643,-3.6417,-3.6417,-3.6417,-3.6417,-3.6417,-3.6367,-3.5877,-3.5604,-3.5579,-3.529,-3.5119,-3.5094,-3.4806,-3.4587,-3.4349,-3.4349,-3.3943,-3.3322,-3.3402,-3.3071,-3.2439,-3.2523,-3.2485,-3.2382,-3.2877,-3.3197,-3.3375,-3.3875,-3.4126,-3.4126,-3.4126,-3.4234,-3.4475,-3.4667,-3.4775,-3.4775,-3.4366,-3.3982,-3.3705,-3.3693,-3.3573,-3.3296,-3.3284,-3.3284,-3.3284,-3.3284,-3.3176,-3.2947,-3.2923,-3.2803,-3.2608,-3.2584,-3.2596,-3.2551,-3.2779,-3.2923,-3.2935,-3.3621,-3.409,-3.433,-3.4619,-3.4788,-3.4637,-3.473,-3.4735,-3.4582,-3.5167,-3.5583,-3.5466,-3.6031,-3.6257,-3.5856,-3.6283,-3.6611,-3.6662,-3.6958,-3.7352,-3.7799,-3.842,-3.8736,-3.8619,-3.9102,-3.9478,-3.9362,-3.9413,-3.9478,-3.931,-3.9154,-3.8958,-3.8631,-3.8356,-3.8145,-3.8027,-3.7974,-3.8027,-3.821,-3.8303,-3.8409,-3.8566,-3.8684,-3.8893,-3.8998,-3.9102,-3.9127,-3.9295,-3.9268,-3.9357,-3.9563,-3.9457,-3.9093,-3.889,-3.8619,-3.8356,-3.7123,-3.6782,-3.6644,-3.6518,-3.6417,-3.6417,-3.6417,-3.6417,-3.6405,-3.6417,-3.6355,-3.5906,-3.5683,-3.5633,-3.5278,-3.5027,-3.4926,-3.4856,-3.4566,-3.4072,-3.4271,-3.392,-3.3184,-3.335,-3.3277,-3.2971,-3.3529,-3.3875,-3.3922,-3.4486,-3.4775,-3.4775,-3.4775,-3.4775,-3.4775,-3.4775,-3.4775,-3.4775,-3.4775,-3.4583,-3.4198,-3.4174,-3.4042,-3.3669,-3.3645,-3.3633,-3.3633,-3.3633,-3.3573,-3.3464,-3.3452,-3.3404,-3.3284,-3.3284,-3.3284,-3.3296,-3.3404,-3.3513,-3.3645,-3.3994,-3.4174,-3.4174,-3.4546,-3.4872,-3.5078,-3.5284,-3.5174,-3.4856,-3.5533,-3.5997,-3.5915,-3.6443,-3.6702,-3.6282,-3.667,-3.703,-3.716,-3.734,-3.7609,-3.8072,-3.8579,-3.8841,-3.8788,-3.9154,-3.9413,-3.927,-3.9426,-3.9478,-3.9258,-3.927,-3.905,-3.8684,-3.8514,-3.8409,-3.8198,-3.8198,-3.825,-3.825,-3.8514,-3.8684,-3.8788,-3.8893,-3.9062,-3.9322,-3.9166,-3.905,-3.936,-3.9241,-3.9188,-3.9422,-3.9419,-3.934,-3.9151,-3.8945,-3.8631,-3.7889,-3.7776,-3.7299,-3.681,-3.6455,-3.643,-3.643,-3.6417,-3.6417,-3.6417,-3.6392,-3.6355,-3.6317,-3.6329,-3.6254,-3.5906,-3.5445,-3.542,-3.4894,-3.4145,-3.4283,-3.4125,-3.3696,-3.3893,-3.397,-3.3936,-3.4216,-3.4314,-3.4314,-3.4641,-3.4775,-3.4775,-3.4775,-3.4775,-3.4775,-3.4775,-3.4775,-3.4775,-3.4775,-3.4751,-3.4715,-3.4703,-3.4739,-3.4691,-3.4667,-3.4643,-3.457,-3.4643,-3.4414,-3.397,-3.3922,-3.3765,-3.338,-3.3308,-3.3308,-3.3332,-3.3729,-3.4126,-3.4607,-3.4679,-3.4691,-3.4703,-3.4727,-3.4847,-3.492,-3.5514,-3.5771,-3.5635,-3.6002,-3.6321,-3.6383,-3.6837,-3.7044,-3.6779,-3.7166,-3.7454,-3.7356,-3.7847,-3.8307,-3.8344,-3.8788,-3.9206,-3.9102,-3.9206,-3.9154,-3.8958,-3.9206,-3.9258,-3.8998,-3.9154,-3.9218,-3.8893,-3.8788,-3.8736,-3.8684,-3.8736,-3.8736,-3.8998,-3.9166,-3.9218,-3.9322,-3.9478,-3.9633,-3.953,-3.9374,-3.9117,-3.8938,-3.8782,-3.8958,-3.9231,-3.9203,-3.893,-3.8841,-3.8893,-3.8736,-3.8316,-3.7977,-3.7764,-3.7362,-3.6885,-3.6895,-3.6707,-3.6417,-3.6417,-3.6417,-3.6417,-3.6417,-3.6417,-3.6417,-3.6417,-3.6197,-3.5821,-3.5809,-3.5414,-3.4745,-3.4857,-3.4703,-3.4402,-3.4423,-3.4506,-3.4543,-3.458,-3.464,-3.4628,-3.4738,-3.4775,-3.4775,-3.4775,-3.4775,-3.4775,-3.4775,-3.4775,-3.4775,-3.4775,-3.4775,-3.4775,-3.4775,-3.4775,-3.4775,-3.4775,-3.4775,-3.4775,-3.4775,-3.4727,-3.4474,-3.4462,-3.4366,-3.421,-3.4198,-3.4198,-3.421,-3.433,-3.4558,-3.4751,-3.4775,-3.4775,-3.4775,-3.4775,-3.4907,-3.5219,-3.5596,-3.5828,-3.6096,-3.6565,-3.6799,-3.6699,-3.7126,-3.7329,-3.7158,-3.7505,-3.7754,-3.7714,-3.7947,-3.8145,-3.821,-3.8514,-3.8724,-3.8619,-3.8671,-3.8788,-3.8788,-3.9102,-3.9154,-3.8893,-3.9218,-3.9374,-3.9218,-3.9206,-3.9154,-3.8893,-3.8788,-3.8905,-3.901,-3.9154,-3.9362,-3.9478,-3.9645,-3.9697,-3.9697,-3.9322,-3.9077,-3.899,-3.8779,-3.8773,-3.9139,-3.9426,-3.9322,-3.9322,-3.9322,-3.9206,-3.8856,-3.8479,-3.8316,-3.7927,-3.7412,-3.7412,-3.7147,-3.6669,-3.6631,-3.6568,-3.6417,-3.6417,-3.637,-3.6275,-3.6275,-3.6193,-3.6003,-3.592,-3.562,-3.5223,-3.5175,-3.5078,-3.4823,-3.4775,-3.4775,-3.4775,-3.4775,-3.4775,-3.4775,-3.4775,-3.4775,-3.4775,-3.4775,-3.4775,-3.4775,-3.4775,-3.4775,-3.4775,-3.4775,-3.4775,-3.4775,-3.4775,-3.4775,-3.4775,-3.4775,-3.4775,-3.4775,-3.4775,-3.4775,-3.4775,-3.4775,-3.4775,-3.4775,-3.4775,-3.4775,-3.4775,-3.4775,-3.4775,-3.4775,-3.4775,-3.4775,-3.4787,-3.4895,-3.5196,-3.5569,-3.5881,-3.6218,-3.6594,-3.7117,-3.7292,-3.6994,-3.7406,-3.7605,-3.7433,-3.7781,-3.7974,-3.7962,-3.8039,-3.8145,-3.8133,-3.8409,-3.8409,-3.8198,-3.8291,-3.8461,-3.8566,-3.8893,-3.9102,-3.8945,-3.927,-3.9633,-3.9478,-3.9581,-3.949,-3.9166,-3.9102,-3.9062,-3.9062,-3.9322,-3.9426,-3.9426,-3.9594,-3.9697,-3.9645,-3.9218,-3.8998,-3.9052,-3.8958,-3.8838,-3.9345,-3.9644,-3.9645,-3.9645,-3.9697,-3.953,-3.9647,-3.9521,-3.9044,-3.8504,-3.7977,-3.7965,-3.7663,-3.7149,-3.7149,-3.686,-3.6518,-3.6433,-3.6253,-3.6088,-3.6065,-3.6015,-3.5968,-3.5716,-3.5464,-3.5175,-3.5163,-3.5078,-3.4823,-3.4775,-3.4775,-3.4775,-3.4775,-3.4775,-3.4775,-3.4775,-3.4775,-3.4775,-3.4775,-3.4775,-3.4775,-3.4775,-3.4775,-3.4775,-3.4775,-3.4775,-3.4775,-3.4775,-3.4775,-3.4775,-3.4775,-3.4775,-3.4775,-3.4775,-3.4775,-3.4775,-3.4775,-3.4775,-3.4775,-3.4775,-3.4775,-3.4775,-3.4775,-3.4775,-3.4775,-3.4775,-3.4787,-3.4859,-3.5231,-3.5605,-3.5797,-3.6495,-3.7,-3.7156,-3.7593,-3.7718,-3.734,-3.767,-3.7918,-3.793,-3.7938,-3.7974,-3.7974,-3.8185,-3.8356,-3.8356,-3.8526,-3.8514,-3.8368,-3.8356,-3.825,-3.825,-3.8514,-3.8788,-3.8893,-3.927,-3.9581,-3.9645,-3.9645,-3.9697,-3.9645,-3.9542,-3.9581,-3.953,-3.953,-3.9633,-3.9697,-3.9697,-3.9697,-3.9645,-3.9374,-3.9218,-3.9218,-3.9166,-3.9114,-3.9347,-3.9619,-3.9697,-3.9697,-3.9697,-3.9581,-3.9697,-3.9685,-3.9484,-3.9069,-3.8592,-3.8555,-3.8241,-3.7739,-3.7713,-3.7613,-3.7437,-3.723,-3.6945,-3.65,-3.6173,-3.5795,-3.5501,-3.5368,-3.5223,-3.4969,-3.4932,-3.4884,-3.4823,-3.4775,-3.4775,-3.4775,-3.4775,-3.4775,-3.4775,-3.4775,-3.4775,-3.4775,-3.4775,-3.4775,-3.4775,-3.4775,-3.4775,-3.4775,-3.4775,-3.4775,-3.4775,-3.4775,-3.4775,-3.4775,-3.4775,-3.4775,-3.4775,-3.4775,-3.4775,-3.4775,-3.4775,-3.4775,-3.4775,-3.4775,-3.4775,-3.4775,-3.4775,-3.4775,-3.4775,-3.4775,-3.498,-3.5267,-3.5497,-3.5954,-3.6531,-3.6976,-3.7324,-3.7649,-3.7841,-3.7853,-3.7805,-3.789,-3.7974,-3.7974,-3.7974,-3.7974,-3.8027,-3.8092,-3.8145,-3.8133,-3.825,-3.825,-3.8198,-3.8145,-3.8092,-3.8092,-3.8303,-3.8526,-3.8631,-3.905,-3.9478,-3.9478,-3.9594,-3.9697,-3.9697,-3.9697,-3.9697,-3.9697,-3.9697,-3.9697,-3.9697,-3.9697,-3.9697,-3.9697,-3.9478,-3.9426,-3.9426,-3.9478,-3.9374,-3.9438,-3.9697,-3.9697,-3.9697,-3.9697,-3.9594,-3.9697,-3.9697,-3.9697,-3.9484,-3.9157,-3.9183,-3.8818,-3.8316,-3.8291,-3.8141,-3.7904,-3.768,-3.7308,-3.6801,-3.6418,-3.6049,-3.5562,-3.526,-3.4981,-3.4823,-3.4775,-3.4775,-3.4775,-3.4775,-3.4775,-3.4775,-3.4775,-3.4775,-3.4775,-3.4775,-3.4775,-3.4775,-3.4775,-3.4775,-3.4775,-3.4775,-3.4775,-3.4775,-3.4775,-3.4775,-3.4775,-3.4775,-3.4775,-3.4775,-3.4775,-3.4775,-3.4775,-3.4775,-3.4775,-3.4775,-3.4775,-3.4775,-3.4775,-3.4775,-3.4775,-3.4775,-3.4775,-3.4871,-3.5064,-3.5076,-3.5267,-3.5821,-3.605,-3.6471,-3.7132,-3.7348,-3.7637,-3.789,-3.7974,-3.7974,-3.7974,-3.7974,-3.7974,-3.7974,-3.7974,-3.7974,-3.7974,-3.7974,-3.8027,-3.8027,-3.8027,-3.8027,-3.7974,-3.8027,-3.8027,-3.7974,-3.8238,-3.8409,-3.8566,-3.8945,-3.9374,-3.9426,-3.9594,-3.9697,-3.9697,-3.9697,-3.9697,-3.9697,-3.9697,-3.9697,-3.9697,-3.9697,-3.9697,-3.9633,-3.9633,-3.9594,-3.9645,-3.9697,-3.9697,-3.9697,-3.9697,-3.9697,-3.9697,-3.9697,-3.9581,-3.9697,-3.9697,-3.9697,-3.9685,-3.9622,-3.9622,-3.9346,-3.8919,-3.8868,-3.8467,-3.7941,-3.7692,-3.7416,-3.6929,-3.6816,-3.664,-3.6172,-3.5426,-3.4968,-3.4919,-3.4799,-3.4775,-3.4775,-3.4775,-3.4775,-3.4775,-3.4775,-3.4775,-3.4775,-3.4775,-3.4775,-3.4775,-3.4775,-3.4775,-3.4775,-3.4775,-3.4775,-3.4775,-3.4775,-3.4775,-3.4775,-3.4775,-3.4775,-3.4775,-3.4775,-3.4775,-3.4775,-3.4775,-3.4775,-3.4775,-3.4775,-3.4775,-3.4775,-3.4775,-3.4775,-3.4787,-3.4787,-3.5063,-3.5509,-3.5593,-3.5845,-3.635,-3.6843,-3.7084,-3.7312,-3.7661,-3.7926,-3.7962,-3.7974,-3.7974,-3.7974,-3.7974,-3.7974,-3.7974,-3.7974,-3.7974,-3.7974,-3.7974,-3.7974,-3.7974,-3.7974,-3.7974,-3.7974,-3.7974,-3.7974,-3.8027,-3.8198,-3.8409,-3.8566,-3.8893,-3.9322,-3.953,-3.9581,-3.9569,-3.9633,-3.9697,-3.9697,-3.9697,-3.9697,-3.9697,-3.9697,-3.9697,-3.9697,-3.9697,-3.9697,-3.9645,-3.9645,-3.9697,-3.9697,-3.9697,-3.9697,-3.9697,-3.9697,-3.9697,-3.9581,-3.9697,-3.9697,-3.9697,-3.9697,-3.9697,-3.9697,-3.9584,-3.9446,-3.9267,-3.9013,-3.8722,-3.8337,-3.7871,-3.7424,-3.7158,-3.685,-3.6398,-3.6038,-3.5725,-3.5327,-3.5016,-3.4787,-3.4787,-3.4775,-3.4775,-3.4775,-3.4775,-3.4775,-3.4775,-3.4775,-3.4775,-3.4775,-3.4775,-3.4775,-3.4775,-3.4775,-3.4775,-3.4775,-3.4775,-3.4775,-3.4775,-3.4775,-3.4775,-3.4775,-3.4775,-3.4775,-3.4775,-3.4775,-3.4775,-3.4775,-3.4775,-3.4775,-3.4775,-3.4775,-3.4775,-3.4859,-3.5184,-3.5412,-3.5617,-3.5978,-3.6386,-3.6843,-3.712,-3.7372,-3.7673,-3.7866,-3.7974,-3.7974,-3.7974,-3.7974,-3.7974,-3.7974,-3.8027,-3.7974,-3.7974,-3.8027,-3.8027,-3.8027,-3.7974,-3.7974,-3.7974,-3.7974,-3.7974,-3.7974,-3.7974,-3.7974,-3.8092,-3.8185,-3.8303,-3.8566,-3.8788,-3.901,-3.9141,-3.9453,-3.9633,-3.9697,-3.9697,-3.9697,-3.9697,-3.9645,-3.9645,-3.9697,-3.9697,-3.9697,-3.9697,-3.9697,-3.9697,-3.9697,-3.9697,-3.9697,-3.9697,-3.9697,-3.9697,-3.9645,-3.953,-3.9697,-3.9697,-3.9697,-3.9697,-3.9697,-3.9581,-3.953,-3.9478,-3.9258,-3.905,-3.8881,-3.8566,-3.8174,-3.7802,-3.7585,-3.73,-3.6988,-3.6807,-3.6519,-3.6098,-3.5425,-3.5087,-3.5027,-3.4895,-3.4775,-3.4775,-3.4775,-3.4775,-3.4775,-3.4775,-3.4775,-3.4775,-3.4775,-3.4775,-3.4775,-3.4775,-3.4775,-3.4775,-3.4775,-3.4775,-3.4775,-3.4775,-3.4775,-3.4775,-3.4775,-3.4775,-3.4775,-3.4775,-3.4775,-3.4775,-3.4775,-3.4775,-3.4775,-3.4775,-3.4775,-3.4919,-3.5304,-3.5689,-3.5918,-3.6423,-3.6916,-3.736,-3.7481,-3.7613,-3.7914,-3.7974,-3.7974,-3.7974,-3.7974,-3.7974,-3.7974,-3.7974,-3.8039,-3.8145,-3.8145,-3.8198,-3.825,-3.8198,-3.8145,-3.8145,-3.808,-3.8027,-3.7974,-3.7974,-3.7974,-3.7974,-3.7974,-3.808,-3.8145,-3.8303,-3.8579,-3.8853,-3.9256,-3.9503,-3.9645,-3.9697,-3.9697,-3.9697,-3.9697,-3.9594,-3.953,-3.9645,-3.9697,-3.9697,-3.9697,-3.9697,-3.9697,-3.9697,-3.9697,-3.9697,-3.9697,-3.9645,-3.9594,-3.9542,-3.9426,-3.9697,-3.9697,-3.9697,-3.9697,-3.9645,-3.9413,-3.931,-3.9206,-3.8893,-3.8684,-3.8461,-3.8356,-3.8238,-3.8003,-3.789,-3.7853,-3.7866,-3.7457,-3.7216,-3.6916,-3.6254,-3.5725,-3.5497,-3.5148,-3.4883,-3.4775,-3.4775,-3.4775,-3.4775,-3.4775,-3.4775,-3.4775,-3.4775,-3.4775,-3.4775,-3.4775,-3.4775,-3.4775,-3.4775,-3.4775,-3.4775,-3.4775,-3.4775,-3.4775,-3.4775,-3.4775,-3.4775,-3.4775,-3.4775,-3.4775,-3.4775,-3.4775,-3.4775,-3.4775,-3.4775,-3.4944,-3.5388,-3.5942,-3.6423,-3.694,-3.7409,-3.7817,-3.789,-3.7974,-3.7962,-3.7974,-3.7974,-3.7974,-3.7974,-3.7974,-3.7974,-3.8039,-3.8145,-3.8356,-3.8421,-3.8526,-3.8684,-3.8514,-3.8356,-3.8303,-3.8185,-3.7974,-3.7974,-3.7974,-3.7974,-3.7974,-3.7974,-3.8092,-3.8198,-3.8356,-3.8619,-3.8905,-3.9151,-3.9411,-3.949,-3.9697,-3.9697,-3.9697,-3.9645,-3.9478,-3.9426,-3.953,-3.9594,-3.9645,-3.9697,-3.9697,-3.9697,-3.9697,-3.9697,-3.9697,-3.9645,-3.9542,-3.949,-3.9426,-3.927,-3.9697,-3.9697,-3.9697,-3.9594,-3.9426,-3.931,-3.9154,-3.8893,-3.8631,-3.8473,-3.8356,-3.8198,-3.808,-3.7974,-3.7974,-3.7974,-3.7926,-3.7829,-3.7781,-3.7661,-3.712,-3.6314,-3.5749,-3.5485,-3.5159,-3.4859,-3.4823,-3.4775,-3.4775,-3.4775,-3.4775,-3.4775,-3.4775,-3.4775,-3.4775,-3.4775,-3.4775,-3.4775,-3.4775,-3.4775,-3.4775,-3.4775,-3.4775,-3.4775,-3.4775,-3.4775,-3.4775,-3.4775,-3.4775,-3.4775,-3.4775,-3.4775,-3.4775,-3.4799,-3.5016,-3.5388,-3.5905,-3.6423,-3.694,-3.7457,-3.7817,-3.7938,-3.7974,-3.7974,-3.7974,-3.7974,-3.7974,-3.7974,-3.7974,-3.7974,-3.8027,-3.8198,-3.8421,-3.8631,-3.8736,-3.8736,-3.8736,-3.8579,-3.8409,-3.8356,-3.8133,-3.8027,-3.7974,-3.7974,-3.7974,-3.7974,-3.8027,-3.8039,-3.8145,-3.8198,-3.8356,-3.8566,-3.8801,-3.9114,-3.9322,-3.9581,-3.9685,-3.9633,-3.953,-3.9374,-3.931,-3.9322,-3.9374,-3.9426,-3.9645,-3.9697,-3.9697,-3.9697,-3.9697,-3.9697,-3.9645,-3.9542,-3.9426,-3.931,-3.9114,-3.9697,-3.9697,-3.9581,-3.9426,-3.927,-3.905,-3.8776,-3.8619,-3.8356,-3.825,-3.8198,-3.808,-3.7974,-3.7974,-3.7974,-3.7974,-3.7974,-3.7974,-3.7974,-3.7926,-3.7649,-3.6928,-3.617,-3.5942,-3.5665,-3.5208,-3.5111,-3.4979,-3.4811,-3.4775,-3.4775,-3.4775,-3.4775,-3.4775,-3.4775,-3.4775,-3.4775,-3.4775,-3.4775,-3.4775,-3.4775,-3.4775,-3.4775,-3.4775,-3.4775,-3.4775,-3.4775,-3.4775,-3.4775,-3.4775,-3.4775,-3.4775,-3.4799,-3.5052,-3.5243,-3.5653,-3.6314,-3.6892,-3.7204,-3.7685,-3.795,-3.7974,-3.7974,-3.7974,-3.7974,-3.7974,-3.7974,-3.7974,-3.7974,-3.7974,-3.808,-3.8303,-3.8684,-3.8945,-3.9102,-3.9062,-3.8841,-3.8788,-3.8619,-3.8461,-3.825,-3.8092,-3.8027,-3.7974,-3.7974,-3.7974,-3.7974,-3.7974,-3.8027,-3.8027,-3.8092,-3.8303,-3.8566,-3.8933,-3.927,-3.953,-3.9633,-3.9633,-3.9426,-3.9206,-3.9154,-3.9154,-3.9206,-3.927,-3.9542,-3.9697,-3.9697,-3.9697,-3.9697,-3.9697,-3.9594,-3.9426,-3.9258,-3.905,-3.8841,-3.9697,-3.9685,-3.9426,-3.9258,-3.9166,-3.8671,-3.8409,-3.8303,-3.8145,-3.8027,-3.8027,-3.8027,-3.7974,-3.7974,-3.7974,-3.7974,-3.7974,-3.7974,-3.7974,-3.7962,-3.7853,-3.7421,-3.6747,-3.6519,-3.6182,-3.5773,-3.5713,-3.5485,-3.5171,-3.504,-3.4883,-3.4895,-3.4907,-3.4847,-3.4895,-3.4847,-3.4811,-3.4944,-3.4859,-3.4775,-3.4775,-3.4775,-3.4775,-3.4775,-3.4775,-3.4775,-3.4775,-3.4775,-3.4775,-3.4775,-3.4775,-3.4775,-3.4883,-3.5292,-3.5593,-3.5809,-3.6507,-3.7036,-3.7324,-3.7757,-3.7974,-3.7974,-3.7974,-3.7974,-3.7974,-3.7974,-3.7974,-3.7974,-3.7974,-3.8027,-3.8198,-3.8526,-3.8893,-3.9206,-3.9478,-3.9374,-3.8998,-3.905,-3.905,-3.8514,-3.8409,-3.8262,-3.8092,-3.7974,-3.7974,-3.7974,-3.7974,-3.7974,-3.7974,-3.8027,-3.8092,-3.825,-3.8502,-3.8752,-3.9141,-3.9478,-3.9581,-3.9581,-3.927,-3.905,-3.8945,-3.8945,-3.8998,-3.9166,-3.9426,-3.9645,-3.9697,-3.9697,-3.9697,-3.9645,-3.9581,-3.9218,-3.8893,-3.8736,-3.8579,-3.9697,-3.9697,-3.9426,-3.9154,-3.8893,-3.8526,-3.8303,-3.8092,-3.8027,-3.7974,-3.7974,-3.7974,-3.7974,-3.7974,-3.7974,-3.7974,-3.7974,-3.7974,-3.7974,-3.7974,-3.7974,-3.789,-3.7517,-3.7216,-3.6735,-3.635,-3.623,-3.6146,-3.5966,-3.5605,-3.5437,-3.5412,-3.516,-3.5003,-3.5364,-3.5136,-3.5064,-3.5304,-3.5039,-3.4931,-3.4871,-3.4847,-3.4835,-3.4823,-3.4859,-3.4847,-3.4775,-3.4775,-3.4775,-3.4775,-3.4823,-3.4895,-3.4883,-3.5003,-3.5509,-3.6134,-3.6459,-3.6988,-3.7637,-3.789,-3.7974,-3.7974,-3.7974,-3.7974,-3.7974,-3.8027,-3.8027,-3.7974,-3.8027,-3.8198,-3.8579,-3.8736,-3.8998,-3.931,-3.953,-3.9374,-3.8736,-3.8788,-3.8853,-3.8631,-3.8356,-3.808,-3.8039,-3.7974,-3.7974,-3.7974,-3.7974,-3.7974,-3.7974,-3.7974,-3.8092,-3.8262,-3.8437,-3.8739,-3.9089,-3.9426,-3.953,-3.953,-3.927,-3.8998,-3.8841,-3.8893,-3.8998,-3.9166,-3.9374,-3.9542,-3.9697,-3.9697,-3.9697,-3.9581,-3.9478,-3.9102,-3.8788,-3.8526,-3.8303,-3.9633,-3.9478,-3.9206,-3.8893,-3.8579,-3.8303,-3.8145,-3.8027,-3.7974,-3.7974,-3.7974,-3.7974,-3.7974,-3.7974,-3.7974,-3.7974,-3.7974,-3.7974,-3.7974,-3.7974,-3.7974,-3.7974,-3.7962,-3.7697,-3.73,-3.6843,-3.6771,-3.6663,-3.6386,-3.617,-3.5978,-3.5978,-3.5677,-3.5749,-3.5942,-3.5689,-3.5761,-3.5893,-3.5737,-3.5569,-3.5507,-3.5316,-3.5208,-3.5147,-3.522,-3.5292,-3.5569,-3.5593,-3.5581,-3.5557,-3.5545,-3.5437,-3.5364,-3.5603,-3.6218,-3.6651,-3.706,-3.7324,-3.7866,-3.7974,-3.7974,-3.7974,-3.7974,-3.808,-3.8133,-3.8198,-3.825,-3.8368,-3.8421,-3.8579,-3.8945,-3.905,-3.9206,-3.9426,-3.9478,-3.931,-3.8945,-3.8945,-3.8841,-3.8566,-3.825,-3.8145,-3.808,-3.8027,-3.7974,-3.7974,-3.7974,-3.7974,-3.7974,-3.8027,-3.8145,-3.825,-3.8477,-3.8739,-3.9037,-3.9322,-3.953,-3.9478,-3.9322,-3.905,-3.8841,-3.8945,-3.9102,-3.9218,-3.9335,-3.9542,-3.9697,-3.9697,-3.9594,-3.9426,-3.9258,-3.8945,-3.8684,-3.8356,-3.8198,-3.9478,-3.9206,-3.8893,-3.8631,-3.8356,-3.8145,-3.8027,-3.7974,-3.7974,-3.7974,-3.7974,-3.7974,-3.7974,-3.7974,-3.7974,-3.7974,-3.7974,-3.7974,-3.7974,-3.7974,-3.7974,-3.7974,-3.7962,-3.789,-3.7733,-3.7348,-3.7272,-3.6992,-3.6728,-3.6528,-3.6441,-3.6417,-3.6386,-3.6374,-3.6471,-3.6411,-3.6374,-3.6471,-3.6326,-3.6242,-3.623,-3.5918,-3.5761,-3.5737,-3.5749,-3.5905,-3.617,-3.6266,-3.6338,-3.6411,-3.6483,-3.6278,-3.6206,-3.6495,-3.7144,-3.7144,-3.7469,-3.7721,-3.7902,-3.7974,-3.7974,-3.7974,-3.7974,-3.808,-3.825,-3.8356,-3.8473,-3.8579,-3.8684,-3.8841,-3.927,-3.9154,-3.9322,-3.9478,-3.9374,-3.9218,-3.9154,-3.9154,-3.8724,-3.8356,-3.8198,-3.808,-3.8027,-3.7974,-3.7974,-3.7974,-3.7974,-3.7974,-3.7974,-3.808,-3.8198,-3.8421,-3.8659,-3.8961,-3.931,-3.9426,-3.9581,-3.953,-3.9374,-3.9218,-3.905,-3.9206,-3.9322,-3.9218,-3.9335,-3.9542,-3.9542,-3.9426,-3.9322,-3.9218,-3.8998,-3.8724,-3.8461,-3.8198,-3.8092,-3.9154,-3.8841,-3.8579,-3.8421,-3.8356,-3.8145,-3.7974,-3.7974,-3.7974,-3.7974,-3.7974,-3.7974,-3.7974,-3.7974,-3.7974,-3.7974,-3.7921,-3.7868,-3.7868,-3.7868,-3.7868,-3.788,-3.7814,-3.7761,-3.7796,-3.7849,-3.7553,-3.7245,-3.7261,-3.6982,-3.6796,-3.6689,-3.6609,-3.6675,-3.6855,-3.6699,-3.6747,-3.6964,-3.6759,-3.6591,-3.6531,-3.6386,-3.6278,-3.6278,-3.6278,-3.6386,-3.6435,-3.6447,-3.6411,-3.6447,-3.6831,-3.6964,-3.6879,-3.6759,-3.6892,-3.7192,-3.7385,-3.7661,-3.7914,-3.7974,-3.7974,-3.7974,-3.7974,-3.8027,-3.8145,-3.8303,-3.8526,-3.8631,-3.8788,-3.8945,-3.9258,-3.9154,-3.9102,-3.9206,-3.9102,-3.8841,-3.8684,-3.8579,-3.8579,-3.825,-3.8145,-3.808,-3.8027,-3.7974,-3.7974,-3.7974,-3.7974,-3.7974,-3.7974,-3.8133,-3.8356,-3.8579,-3.8893,-3.9206,-3.9581,-3.9581,-3.9645,-3.9645,-3.9594,-3.9594,-3.9478,-3.9581,-3.9581,-3.9322,-3.927,-3.9374,-3.9322,-3.9154,-3.9102,-3.9089,-3.8776,-3.8461,-3.8303,-3.8145,-3.808,-3.905,-3.8566,-3.8461,-3.8315,-3.8198,-3.8039,-3.7974,-3.7974,-3.7974,-3.7974,-3.7974,-3.7974,-3.7974,-3.7974,-3.7974,-3.788,-3.7613,-3.756,-3.7388,-3.7227,-3.7131,-3.7131,-3.7173,-3.712,-3.712,-3.7012,-3.685,-3.7101,-3.753,-3.7358,-3.7203,-3.7232,-3.718,-3.736,-3.7505,-3.7397,-3.7336,-3.7481,-3.7324,-3.7192,-3.7156,-3.6976,-3.6819,-3.6819,-3.6843,-3.6964,-3.7204,-3.7228,-3.7228,-3.7288,-3.7457,-3.7565,-3.7505,-3.7409,-3.73,-3.7517,-3.7577,-3.7673,-3.7926,-3.7974,-3.7974,-3.7974,-3.7974,-3.8092,-3.825,-3.8473,-3.8684,-3.901,-3.9114,-3.9322,-3.9465,-3.931,-3.9322,-3.9218,-3.8998,-3.8684,-3.8473,-3.8303,-3.825,-3.8198,-3.808,-3.8027,-3.8027,-3.7974,-3.7974,-3.7974,-3.7974,-3.7974,-3.7974,-3.8238,-3.8461,-3.8841,-3.9102,-3.9374,-3.9697,-3.9697,-3.9697,-3.9697,-3.9697,-3.9697,-3.9697,-3.9697,-3.953,-3.927,-3.9258,-3.9258,-3.9141,-3.9077,-3.9025,-3.8933,-3.8619,-3.8356,-3.8198,-3.8092,-3.8027,-3.8841,-3.8303,-3.8303,-3.8198,-3.8027,-3.7974,-3.7974,-3.7974,-3.7974,-3.7974,-3.7974,-3.7974,-3.7974,-3.7974,-3.7921,-3.772,-3.7131,-3.7131,-3.6862,-3.6483,-3.6429,-3.632,-3.632,-3.6266,-3.6375,-3.6483,-3.6145,-3.6375,-3.7143,-3.7269,-3.7465,-3.7566,-3.7856,-3.7974,-3.7914,-3.7829,-3.7974,-3.7974,-3.7974,-3.7974,-3.7866,-3.7589,-3.7348,-3.7348,-3.736,-3.7553,-3.7805,-3.7841,-3.7841,-3.7853,-3.7914,-3.795,-3.7962,-3.7974,-3.7974,-3.7974,-3.7974,-3.7974,-3.7974,-3.7974,-3.7974,-3.7974,-3.7974,-3.8145,-3.8315,-3.8579,-3.901,-3.9542,-3.9697,-3.9645,-3.9633,-3.9633,-3.9426,-3.9154,-3.8893,-3.8631,-3.8356,-3.8145,-3.808,-3.8027,-3.7974,-3.8027,-3.8027,-3.7974,-3.7974,-3.7974,-3.7974,-3.7974,-3.8027,-3.8356,-3.8671,-3.905,-3.9322,-3.9542,-3.9697,-3.9697,-3.9697,-3.9697,-3.9697,-3.9697,-3.9697,-3.9697,-3.9478,-3.9322,-3.927,-3.9258,-3.9077,-3.8908,-3.8776,-3.8631,-3.8461,-3.8303,-3.8145,-3.8039,-3.8027,-3.8514,-3.8027,-3.8027,-3.8027,-3.7974,-3.7974,-3.7974,-3.7974,-3.7974,-3.7974,-3.7974,-3.7974,-3.7974,-3.7974,-3.7921,-3.7613,-3.7239,-3.6916,-3.6592,-3.6102,-3.6102,-3.6102,-3.6211,-3.6266,-3.6102,-3.5993,-3.5817,-3.62,-3.67,-3.6874,-3.7155,-3.7542,-3.7838,-3.7974,-3.7974,-3.7974,-3.7974,-3.7974,-3.7974,-3.7974,-3.7962,-3.7878,-3.7841,-3.7841,-3.7841,-3.7918,-3.7962,-3.7974,-3.7974,-3.7974,-3.7974,-3.7974,-3.7974,-3.7974,-3.7974,-3.7974,-3.7974,-3.7974,-3.7974,-3.7974,-3.7974,-3.7974,-3.7974,-3.8039,-3.825,-3.8631,-3.9102,-3.9645,-3.9697,-3.9697,-3.9645,-3.953,-3.9206,-3.8998,-3.8736,-3.8461,-3.8198,-3.8198,-3.808,-3.8145,-3.8198,-3.8145,-3.8092,-3.8027,-3.7974,-3.7974,-3.7974,-3.8027,-3.8133,-3.8409,-3.8881,-3.927,-3.9426,-3.9645,-3.9697,-3.9697,-3.9697,-3.9697,-3.9697,-3.9697,-3.9697,-3.9697,-3.9581,-3.9426,-3.9374,-3.9347,-3.9203,-3.8995,-3.8656,-3.8421,-3.8291,-3.8133,-3.8027,-3.7974,-3.7974,-3.8473,-3.7974,-3.7974,-3.7974,-3.7974,-3.7974,-3.7974,-3.7974,-3.7974,-3.7974,-3.7974,-3.7974,-3.7974,-3.7921,-3.7667,-3.7185,-3.67,-3.6309,-3.5817,-3.5455,-3.5345,-3.529,-3.5235,-3.529,-3.529,-3.5345,-3.5279,-3.5609,-3.6157,-3.6646,-3.6982,-3.7542,-3.7838,-3.7974,-3.7974,-3.7974,-3.7974,-3.7974,-3.7974,-3.7974,-3.7974,-3.7974,-3.7974,-3.7974,-3.7974,-3.7974,-3.7974,-3.7974,-3.7974,-3.7974,-3.7974,-3.7974,-3.7974,-3.7974,-3.7974,-3.7974,-3.7974,-3.7974,-3.7974,-3.7974,-3.7974,-3.7974,-3.8027,-3.8145,-3.8409,-3.8841,-3.9206,-3.9645,-3.9697,-3.9697,-3.9697,-3.9581,-3.9362,-3.9102,-3.8788,-3.8631,-3.8409,-3.8303,-3.825,-3.8315,-3.8368,-3.8315,-3.825,-3.8198,-3.8133,-3.8039,-3.8039,-3.8092,-3.8198,-3.8461,-3.8998,-3.953,-3.9633,-3.9697,-3.9697,-3.9697,-3.9697,-3.9697,-3.9697,-3.9697,-3.9697,-3.9645,-3.9581,-3.9581,-3.9594,-3.9476,-3.9382,-3.8967,-3.8526,-3.8291,-3.812,-3.8068,-3.7974,-3.7974,-3.7974,-3.8409,-3.8027,-3.7974,-3.7974,-3.7974,-3.7974,-3.7974,-3.7974,-3.7974,-3.7974,-3.7974,-3.7974,-3.7921,-3.7708,-3.7292,-3.6754,-3.6048,-3.5598,-3.5058,-3.468,-3.4468,-3.4579,-3.4635,-3.4579,-3.4579,-3.4468,-3.4635,-3.5235,-3.6048,-3.6538,-3.6928,-3.7637,-3.7892,-3.7974,-3.7974,-3.7974,-3.7974,-3.7974,-3.7974,-3.7974,-3.7974,-3.7974,-3.7974,-3.7974,-3.7974,-3.7974,-3.7974,-3.7974,-3.7974,-3.7974,-3.7974,-3.7974,-3.7974,-3.7974,-3.7974,-3.7974,-3.7974,-3.7974,-3.7974,-3.7974,-3.7974,-3.8027,-3.8133,-3.8303,-3.8684,-3.9102,-3.9413,-3.9697,-3.9697,-3.9697,-3.9697,-3.9685,-3.953,-3.931,-3.905,-3.8945,-3.8788,-3.8619,-3.8514,-3.8526,-3.8579,-3.8631,-3.8526,-3.8356,-3.825,-3.8145,-3.8092,-3.8145,-3.8356,-3.8631,-3.905,-3.9633,-3.9697,-3.9697,-3.9697,-3.9697,-3.9697,-3.9697,-3.9697,-3.9697,-3.9697,-3.9697,-3.9645,-3.9697,-3.9697,-3.9644,-3.9538,-3.8942,-3.8396,-3.8202,-3.8031,-3.8015,-3.7974,-3.7974,-3.7974,-3.825,-3.7974,-3.7974,-3.7974,-3.7974,-3.7974,-3.7974,-3.7974,-3.7974,-3.7974,-3.7921,-3.7921,-3.7613,-3.7239,-3.697,-3.6363,-3.5488,-3.5433,-3.5002,-3.4624,-3.4468,-3.4468,-3.4468,-3.4468,-3.4468,-3.4524,-3.4624,-3.5279,-3.6048,-3.6429,-3.7078,-3.7814,-3.7986,-3.7974,-3.7974,-3.7974,-3.7974,-3.7974,-3.7974,-3.7974,-3.7974,-3.7974,-3.7974,-3.7974,-3.7974,-3.7974,-3.7974,-3.7974,-3.7974,-3.7974,-3.7974,-3.7974,-3.7974,-3.7974,-3.7974,-3.7974,-3.7974,-3.7974,-3.7974,-3.7974,-3.7974,-3.8092,-3.825,-3.8461,-3.8788,-3.9114,-3.9426,-3.9633,-3.9697,-3.9697,-3.9697,-3.9697,-3.9581,-3.9426,-3.9258,-3.9166,-3.8998,-3.8893,-3.8788,-3.8788,-3.8841,-3.8893,-3.8905,-3.8788,-3.8514,-3.8421,-3.8409,-3.8409,-3.8631,-3.8893,-3.927,-3.9645,-3.9697,-3.9697,-3.9697,-3.9697,-3.9697,-3.9697,-3.9697,-3.9697,-3.9697,-3.9697,-3.9697,-3.9697,-3.9697,-3.9708,-3.963,-3.9035,-3.8554,-3.8166,-3.7995,-3.8003,-3.7974,-3.7974,-3.7974,-3.825,-3.7974,-3.7974,-3.7974,-3.7974,-3.7974,-3.7974,-3.7974,-3.7974,-3.7773,-3.7453,-3.7388,-3.7131,-3.6646,-3.62,-3.5872,-3.5378,-3.5002,-3.4736,-3.4579,-3.4468,-3.4468,-3.4468,-3.4468,-3.4468,-3.4579,-3.4847,-3.5389,-3.6211,-3.6538,-3.7227,-3.7761,-3.7974,-3.7974,-3.7974,-3.7974,-3.7974,-3.7974,-3.7974,-3.7974,-3.7974,-3.7974,-3.7974,-3.7974,-3.7974,-3.7974,-3.7974,-3.7974,-3.7974,-3.7974,-3.7974,-3.7974,-3.7974,-3.7974,-3.7974,-3.7974,-3.7974,-3.7974,-3.7974,-3.7974,-3.7974,-3.8092,-3.8356,-3.8671,-3.8841,-3.927,-3.9542,-3.9697,-3.9697,-3.9697,-3.9697,-3.9697,-3.9645,-3.953,-3.9426,-3.9322,-3.927,-3.9154,-3.9166,-3.9166,-3.9166,-3.9218,-3.9218,-3.9218,-3.8945,-3.8736,-3.8684,-3.8736,-3.8893,-3.9114,-3.9426,-3.9594,-3.9697,-3.9697,-3.9697,-3.9697,-3.9697,-3.9697,-3.9697,-3.9697,-3.9697,-3.9697,-3.9697,-3.9697,-3.9697,-3.9671,-3.9528,-3.9127,-3.8724,-3.8372,-3.8149,-3.8015,-3.7974,-3.7974,-3.7974,-3.8198,-3.8027,-3.7974,-3.7974,-3.7974,-3.7974,-3.7974,-3.7974,-3.7974,-3.7667,-3.7078,-3.697,-3.6538,-3.6036,-3.5653,-3.5268,-3.5058,-3.4736,-3.4579,-3.4468,-3.4468,-3.4468,-3.4468,-3.4524,-3.4624,-3.4791,-3.5168,-3.5708,-3.6592,-3.6928,-3.74,-3.7814,-3.7974,-3.7974,-3.7974,-3.7974,-3.7974,-3.7974,-3.7974,-3.7974,-3.7974,-3.7974,-3.7974,-3.7974,-3.7974,-3.7974,-3.7974,-3.7974,-3.7974,-3.7974,-3.7974,-3.7974,-3.7974,-3.7974,-3.7974,-3.7974,-3.7974,-3.7974,-3.7974,-3.7974,-3.808,-3.8303,-3.8526,-3.8788,-3.9062,-3.9438,-3.9645,-3.9697,-3.9697,-3.9697,-3.9697,-3.9697,-3.9697,-3.9594,-3.9581,-3.9478,-3.953,-3.9478,-3.953,-3.9542,-3.9542,-3.9478,-3.9478,-3.9438,-3.927,-3.9062,-3.8998,-3.8998,-3.905,-3.927,-3.9478,-3.9645,-3.9697,-3.9697,-3.9697,-3.9697,-3.9697,-3.9697,-3.9697,-3.9697,-3.9697,-3.9697,-3.9697,-3.9697,-3.9697,-3.9633,-3.9438,-3.9139,-3.8865,-3.8643,-3.8315,-3.7974,-3.7974,-3.7974,-3.7974,-3.8027,-3.7974,-3.7974,-3.7986,-3.7921,-3.7986,-3.7974,-3.7868,-3.7868,-3.7495,-3.6916,-3.6483,-3.5993,-3.5488,-3.5268,-3.5058,-3.468,-3.4524,-3.4468,-3.4468,-3.4468,-3.4468,-3.4468,-3.4524,-3.4736,-3.5268,-3.5598,-3.6091,-3.7024,-3.7185,-3.756,-3.7826,-3.7974,-3.7974,-3.7974,-3.7974,-3.7974,-3.7974,-3.7974,-3.7974,-3.7974,-3.7974,-3.7974,-3.7974,-3.7974,-3.7974,-3.7974,-3.7974,-3.7974,-3.7974,-3.7974,-3.7974,-3.7974,-3.7974,-3.7974,-3.7974,-3.7974,-3.8027,-3.8039,-3.8027,-3.825,-3.8579,-3.8736,-3.8998,-3.9258,-3.953,-3.9697,-3.9697,-3.9697,-3.9697,-3.9697,-3.9697,-3.9697,-3.9697,-3.9633,-3.9633,-3.9633,-3.9633,-3.9697,-3.9697,-3.9697,-3.9697,-3.9697,-3.9645,-3.9478,-3.9374,-3.9322,-3.927,-3.9206,-3.9374,-3.9581,-3.9581,-3.9645,-3.9697,-3.9697,-3.9697,-3.9697,-3.9697,-3.9697,-3.9697,-3.9697,-3.9697,-3.9697,-3.9697,-3.9645,-3.9542,-3.9399,-3.9164,-3.8825,-3.8486,-3.825,-3.7974,-3.7974,-3.7974,-3.7974,-3.7974,-3.7974,-3.756,-3.7388,-3.74,-3.7388,-3.74,-3.7334,-3.7024,-3.6538,-3.6036,-3.5763,-3.5389,-3.4958,-3.4836,-3.468,-3.4524,-3.4468,-3.4468,-3.4468,-3.4468,-3.4468,-3.4524,-3.4579,-3.4836,-3.5378,-3.5763,-3.6309,-3.7078,-3.74,-3.772,-3.7974,-3.7974,-3.7974,-3.7974,-3.7974,-3.7974,-3.7974,-3.7974,-3.7974,-3.7974,-3.7974,-3.7974,-3.7974,-3.7974,-3.7974,-3.7974,-3.7974,-3.7974,-3.7974,-3.7974,-3.7974,-3.7974,-3.7974,-3.7974,-3.7974,-3.8027,-3.8198,-3.8356,-3.8409,-3.8344,-3.8579,-3.8893,-3.9154,-3.9322,-3.953,-3.9645,-3.9697,-3.9697,-3.9697,-3.9697,-3.9697,-3.9697,-3.9697,-3.9697,-3.9697,-3.9697,-3.9697,-3.9697,-3.9697,-3.9697,-3.9645,-3.9645,-3.9478,-3.9374,-3.9374,-3.9322,-3.9166,-3.9114,-3.9374,-3.9633,-3.953,-3.953,-3.9645,-3.9697,-3.9697,-3.9697,-3.9697,-3.9697,-3.9697,-3.9697,-3.9645,-3.9645,-3.9633,-3.9542,-3.9451,-3.9268,-3.9032,-3.8615,-3.8275,-3.8092,-3.7974,-3.7974,-3.7974,-3.7974,-3.7826,-3.7933,-3.7346,-3.7239,-3.7346,-3.7024,-3.6808,-3.67,-3.6254,-3.5872,-3.5708,-3.5323,-3.5058,-3.4791,-3.4568,-3.4468,-3.4468,-3.4468,-3.4468,-3.4468,-3.4468,-3.4468,-3.4524,-3.4791,-3.5224,-3.5708,-3.632,-3.6862,-3.7453,-3.7826,-3.7986,-3.7974,-3.7974,-3.7974,-3.7974,-3.7974,-3.7974,-3.7974,-3.7974,-3.7974,-3.7974,-3.7974,-3.7974,-3.7974,-3.7974,-3.7974,-3.7974,-3.7974,-3.7974,-3.7974,-3.7974,-3.7974,-3.7974,-3.7974,-3.7974,-3.7974,-3.8027,-3.8198,-3.8303,-3.8631,-3.8514,-3.8631,-3.905,-3.9322,-3.9426,-3.9581,-3.9697,-3.9697,-3.9697,-3.9697,-3.9697,-3.9697,-3.9697,-3.9697,-3.9697,-3.9697,-3.9697,-3.9697,-3.9633,-3.9633,-3.9478,-3.9426,-3.9426,-3.9322,-3.9206,-3.9258,-3.9322,-3.9166,-3.9062,-3.9322,-3.953,-3.9478,-3.9478,-3.9594,-3.9697,-3.9697,-3.9697,-3.9697,-3.9645,-3.9542,-3.953,-3.9478,-3.953,-3.9478,-3.9322,-3.9191,-3.9149,-3.8887,-3.8392,-3.8157,-3.8027,-3.7974,-3.7974,-3.7974,-3.7974,-3.7507,-3.788,-3.7334,-3.74,-3.772,-3.6796,-3.632,-3.6211,-3.5653,-3.5719,-3.6157,-3.5069,-3.5069,-3.5279,-3.4847,-3.4635,-3.468,-3.468,-3.4691,-3.468,-3.4791,-3.4736,-3.4902,-3.5224,-3.5774,-3.632,-3.682,-3.7239,-3.788,-3.7986,-3.7974,-3.7974,-3.7974,-3.7974,-3.7974,-3.7974,-3.7974,-3.7974,-3.7974,-3.7974,-3.7974,-3.7974,-3.7974,-3.7974,-3.7974,-3.7974,-3.7974,-3.7974,-3.7974,-3.7974,-3.7974,-3.7974,-3.7974,-3.7974,-3.7974,-3.7974,-3.7974,-3.8092,-3.8198,-3.8526,-3.8788,-3.8853,-3.9154,-3.9426,-3.9581,-3.9685,-3.9697,-3.9697,-3.9697,-3.9697,-3.9697,-3.9697,-3.9697,-3.9697,-3.9697,-3.9697,-3.9633,-3.9581,-3.9517,-3.9362,-3.9102,-3.905,-3.9102,-3.905,-3.9102,-3.9206,-3.927,-3.9322,-3.9218,-3.9218,-3.9374,-3.9322,-3.9374,-3.9542,-3.9594,-3.949,-3.949,-3.9387,-3.9322,-3.927,-3.9258,-3.927,-3.9218,-3.9102,-3.8958,-3.8825,-3.8745,-3.8522,-3.8157,-3.7974,-3.7974,-3.7974,-3.7974,-3.7974,-3.7974,-3.7826,-3.7933,-3.7334,-3.7185,-3.7239,-3.6592,-3.5829,-3.5113,-3.5212,-3.5543,-3.5664,-3.5774,-3.5829,-3.5993,-3.5829,-3.5511,-3.5444,-3.5444,-3.5444,-3.5389,-3.5444,-3.5676,-3.584,-3.5938,-3.6375,-3.67,-3.7089,-3.7453,-3.7868,-3.7974,-3.7974,-3.7974,-3.7974,-3.7974,-3.7974,-3.7974,-3.7974,-3.7974,-3.7974,-3.7974,-3.7974,-3.7974,-3.7974,-3.7974,-3.7974,-3.7974,-3.7974,-3.7974,-3.7974,-3.7974,-3.7974,-3.7974,-3.7974,-3.7974,-3.7974,-3.7974,-3.8027,-3.8092,-3.8315,-3.8631,-3.8893,-3.9114,-3.9426,-3.9581,-3.9685,-3.9697,-3.9697,-3.9697,-3.9697,-3.9697,-3.9697,-3.9697,-3.9697,-3.9697,-3.9697,-3.9697,-3.9633,-3.9478,-3.9362,-3.9102,-3.8828,-3.8828,-3.8893,-3.8998,-3.905,-3.9154,-3.9218,-3.927,-3.927,-3.9218,-3.927,-3.9218,-3.9256,-3.936,-3.9243,-3.9139,-3.9127,-3.9074,-3.901,-3.8998,-3.8998,-3.8945,-3.8893,-3.8801,-3.8643,-3.8486,-3.8222,-3.8039,-3.7974,-3.7974,-3.7974,-3.7974,-3.7974,-3.7974,-3.7974,-3.7773,-3.788,-3.7346,-3.7131,-3.7024,-3.6754,-3.6048,-3.5389,-3.5598,-3.5817,-3.6091,-3.6211,-3.6375,-3.6538,-3.632,-3.6048,-3.5817,-3.5982,-3.6048,-3.595,-3.6168,-3.6157,-3.6266,-3.6538,-3.6754,-3.7089,-3.7346,-3.7667,-3.7921,-3.7974,-3.7974,-3.7974,-3.7974,-3.7974,-3.7974,-3.7974,-3.7974,-3.7974,-3.7974,-3.7974,-3.7974,-3.7974,-3.7974,-3.7974,-3.7974,-3.7974,-3.7974,-3.7974,-3.7974,-3.7974,-3.7974,-3.7974,-3.7974,-3.7974,-3.7974,-3.8027,-3.8133,-3.825,-3.8409,-3.8788,-3.905,-3.9322,-3.9542,-3.9645,-3.9697,-3.9697,-3.9697,-3.9697,-3.9697,-3.9697,-3.9697,-3.9697,-3.9697,-3.9697,-3.9697,-3.9697,-3.953,-3.931,-3.905,-3.8788,-3.8724,-3.8724,-3.8776,-3.8933,-3.8998,-3.9062,-3.9114,-3.9154,-3.9114,-3.901,-3.9102,-3.9154,-3.9111,-3.9149,-3.8967,-3.8825,-3.8801,-3.8788,-3.8736,-3.8684,-3.8684,-3.8579,-3.8461,-3.8421,-3.838,-3.8222,-3.8104,-3.8039,-3.7974,-3.7974,-3.7974,-3.7974,-3.7974,-3.7974,-3.7974,-3.7507,-3.7974,-3.7411,-3.7227,-3.7185,-3.7185,-3.6916,-3.6483,-3.6483,-3.6646,-3.6916,-3.6646,-3.6796,-3.7078,-3.6862,-3.6603,-3.6483,-3.6592,-3.6592,-3.6386,-3.6646,-3.67,-3.6808,-3.6916,-3.7239,-3.74,-3.7613,-3.7868,-3.7921,-3.7974,-3.7974,-3.7974,-3.7974,-3.7974,-3.7974,-3.7974,-3.7974,-3.7974,-3.7974,-3.7974,-3.7974,-3.7974,-3.7974,-3.7974,-3.7974,-3.7974,-3.7974,-3.7974,-3.7974,-3.7974,-3.7974,-3.7974,-3.7974,-3.7974,-3.7974,-3.808,-3.825,-3.8356,-3.8566,-3.8958,-3.9166,-3.9374,-3.953,-3.9645,-3.9697,-3.9697,-3.9697,-3.9697,-3.9697,-3.9697,-3.9697,-3.9697,-3.9697,-3.9697,-3.9697,-3.9697,-3.9594,-3.9258,-3.8828,-3.8566,-3.8409,-3.8461,-3.8724,-3.8841,-3.905,-3.901,-3.9114,-3.9206,-3.9114,-3.901,-3.8893,-3.905,-3.8813,-3.8692,-3.8668,-3.8526,-3.8566,-3.8554,-3.8461,-3.8421,-3.8473,-3.825,-3.8027,-3.8092,-3.821,-3.8092,-3.8027,-3.7974,-3.7974,-3.7974,-3.7974,-3.7974,-3.7974,-3.7974,-3.7974,-3.788,-3.7986,-3.7826,-3.7773,-3.7773,-3.7773,-3.772,-3.7613,-3.7613,-3.7388,-3.7185,-3.74,-3.7601,-3.7601,-3.756,-3.7292,-3.7024,-3.7185,-3.7239,-3.7173,-3.7227,-3.7346,-3.7495,-3.7548,-3.7708,-3.7826,-3.7933,-3.7974,-3.7974,-3.7974,-3.7974,-3.7974,-3.7974,-3.7974,-3.7974,-3.7974,-3.7974,-3.7974,-3.7974,-3.7974,-3.7974,-3.7974,-3.7974,-3.7974,-3.7974,-3.7974,-3.7974,-3.7974,-3.7974,-3.7974,-3.7974,-3.7974,-3.7974,-3.7974,-3.808,-3.8238,-3.8409,-3.8566,-3.8788,-3.9114,-3.9322,-3.9426,-3.953,-3.9645,-3.9697,-3.9697,-3.9697,-3.9697,-3.9697,-3.9697,-3.9697,-3.9697,-3.9697,-3.9697,-3.9697,-3.9697,-3.9697,-3.9206,-3.8671,-3.8461,-3.825,-3.8356,-3.8631,-3.8841,-3.9062,-3.927,-3.9478,-3.953,-3.9322,-3.9166,-3.8788,-3.8736,-3.8356,-3.821,-3.825,-3.8291,-3.8344,-3.8279,-3.8185,-3.8198,-3.8198,-3.8145,-3.7974,-3.7974,-3.8027,-3.7974,-3.7974,-3.7974,-3.7974,-3.7974,-3.7974,-3.7974,-3.7974,-3.7974,-3.7974,-3.7974,-3.7974,-3.7974,-3.7974,-3.7974,-3.7974,-3.7974,-3.7974,-3.7974,-3.7814,-3.756,-3.7814,-3.7974,-3.7974,-3.7986,-3.788,-3.7548,-3.7826,-3.772,-3.7708,-3.7761,-3.7868,-3.7974,-3.7974,-3.7974,-3.7974,-3.7974,-3.7974,-3.7974,-3.7974,-3.7974,-3.7974,-3.7974,-3.7974,-3.7974,-3.7974,-3.7974,-3.7974,-3.7974,-3.7974,-3.7974,-3.7974,-3.7974,-3.7974,-3.7974,-3.7974,-3.7974,-3.7974,-3.7974,-3.7974,-3.7974,-3.7974,-3.8027,-3.8145,-3.825,-3.8461,-3.8631,-3.8841,-3.9062,-3.927,-3.9426,-3.953,-3.9581,-3.9697,-3.9697,-3.9697,-3.9697,-3.9697,-3.9697,-3.9697,-3.9697,-3.9697,-3.9697,-3.9697,-3.9697,-3.9645,-3.953,-3.9258,-3.8893,-3.8684,-3.8566,-3.8671,-3.8893,-3.905,-3.927,-3.9438,-3.9685,-3.9685,-3.9542,-3.9335,-3.8945,-3.8631,-3.8315,-3.8092,-3.808,-3.808,-3.808,-3.8027,-3.7974,-3.8027,-3.8092,-3.8027,-3.7974,-3.7974,-3.7974,-3.7974,-3.7974,-3.7974,-3.7974,-3.7974,-3.7974,-3.7974,-3.7974,-3.7974,-3.7974,-3.7974,-3.7974,-3.7974,-3.7974,-3.7974,-3.7974,-3.7974,-3.7974,-3.7974,-3.7974,-3.7921,-3.7974,-3.7974,-3.7974,-3.7974,-3.7974,-3.7974,-3.7974,-3.7921,-3.7921,-3.7974,-3.7974,-3.7974,-3.7974,-3.7974,-3.7974,-3.7974,-3.7974,-3.7974,-3.7974,-3.7974,-3.7974,-3.7974,-3.7974,-3.7974,-3.7974,-3.7974,-3.7974,-3.7974,-3.7974,-3.7974,-3.7974,-3.7974,-3.7974,-3.7974,-3.7974,-3.7974,-3.7974,-3.7974,-3.7974,-3.7974,-3.7974,-3.808,-3.8198,-3.8409,-3.8579,-3.8958,-3.9154,-3.9374,-3.953,-3.9645,-3.9697,-3.9697,-3.9697,-3.9697,-3.9697,-3.9697,-3.9697,-3.9697,-3.9697,-3.9697,-3.9697,-3.9697,-3.9697,-3.9645,-3.9645,-3.9478,-3.931,-3.9102,-3.8893,-3.8893,-3.8998,-3.9102,-3.9258,-3.9426,-3.9645,-3.9697,-3.9697,-3.9645,-3.9438,-3.9114,-3.8801,-3.8538,-3.8315,-3.8027,-3.7974,-3.7974,-3.7974,-3.7974,-3.7974,-3.7974,-3.7974,-3.7974,-3.7974,-3.7974,-3.7974,-3.7974,-3.7974,-3.7974,-3.7974,-3.7974,-3.7974,-3.7974,-3.7974,-3.7974,-3.7974,-3.7974,-3.7974,-3.7974,-3.7974,-3.7974,-3.7974,-3.7974,-3.7974,-3.7974,-3.7974,-3.7974,-3.7974,-3.7974,-3.7974,-3.7974,-3.7974,-3.7974,-3.7974,-3.7974,-3.7974,-3.7974,-3.7974,-3.7974,-3.7974,-3.7974,-3.7974,-3.7974,-3.7974,-3.7974,-3.7974,-3.7974,-3.7974,-3.7974,-3.7974,-3.7974,-3.7974,-3.7974,-3.7974,-3.7974,-3.7974,-3.7974,-3.7974,-3.7974,-3.7974,-3.7974,-3.7974,-3.7974,-3.7974,-3.7974,-3.8027,-3.8027,-3.8133,-3.8303,-3.8514,-3.8788,-3.9166,-3.9374,-3.953,-3.9645,-3.9697,-3.9697,-3.9697,-3.9697,-3.9697,-3.9697,-3.9697,-3.9697,-3.9697,-3.9697,-3.9697,-3.9697,-3.9697,-3.9697,-3.9697,-3.9697,-3.9594,-3.9426,-3.9258,-3.9114,-3.9062,-3.9166,-3.9258,-3.9362,-3.9478,-3.9633,-3.9697,-3.9697,-3.9697,-3.949,-3.927,-3.9022,-3.8773,-3.838,-3.8092,-3.8027,-3.7974,-3.7974,-3.7974,-3.7974,-3.7974,-3.7974,-3.7974,-3.7974,-3.7974,-3.7974,-3.7974,-3.7974,-3.7974,-3.7974,-3.7974,-3.7974,-3.7974,-3.7974,-3.7974]},{"header":{"parameterUnit":"m.s-1","parameterCategory":1,"la1":31.0,"la2":29.5877,"lo1":-88.7671,"lo2":-86.6584,"dy":0.0162,"dx":0.0185,"nx":115,"ny":88,"refTime":"2024-06-26T18:00:00:Z","depth":0,"parameterNumber":3,"parameterNumberName":"V-component_of_WINDS"},"data":[0.0,0.0,0.0,0.0,0.0,0.0,0.0,0.0,0.0,0.0,0.0,0.0,0.0,0.0,0.0,0.0,0.0,0.0,0.0,0.0,0.0,0.0,0.0,0.0,0.0,0.0,0.0,0.0,0.0,0.0,0.0,0.0,0.0,0.0,0.0,0.0,0.0,0.0,0.0,0.0,0.0,0.0,0.0,0.0,0.0,0.0,0.0,0.0,0.0,0.0,0.0,0.0,0.0,0.0,0.0,0.0,0.0,0.0,0.0,0.0,0.0,0.0,0.0,0.0,0.0,0.0,0.0,0.0,0.0,0.0,0.0,0.0,0.0,0.0,0.0,0.0,0.0,0.0,0.0,0.0,0.0,0.0,0.0,0.0,0.0,0.0,0.0,0.0,0.0,0.0,0.0,0.0,0.0,0.0,0.0,0.0,0.0,0.0,0.0,0.0,0.0,0.0,0.0,0.0,0.0,0.0,0.0,0.0,0.0,0.0,0.0,0.0,0.0,0.0,0.0,0.0,0.0,0.0,0.0,0.0,0.0,0.0,0.0,0.0,0.0,0.0,0.0,0.0,0.0,0.0,0.0,0.0,0.0,0.0,0.0,0.0,0.0,0.0,0.0,0.0,0.0,0.0,0.0,0.0,0.0,0.0,0.0,0.0,0.0,0.0,0.0,0.0,0.0,0.0,0.0,0.0,0.0,0.0,0.0,0.0,0.0,0.0,0.0,0.0,0.0,0.0,0.0,0.0,0.0,0.0,0.0,0.0,0.0,0.0,0.0,0.0,0.0,0.0,0.0,0.0,0.0,0.0,0.0,0.0,0.0,0.0,0.0,0.0,0.0,0.0,0.0,0.0,0.0,0.0,0.0,0.0,0.0,0.0,0.0,0.0,0.0,0.0,0.0,0.0,0.0,0.0,0.0,0.0,0.0,0.0,0.0,0.0,0.0,0.0,0.0,0.0,0.0,0.0,0.0,0.0,0.0,0.0,0.0,0.0,0.0,0.0,0.0,0.0,0.0,0.0,0.0,0.0,0.0,0.0,0.0,0.0,0.0,0.0,0.0,0.0,0.0,0.0,0.0,0.0,0.0,0.0,0.0,0.0,0.0,0.0,0.0,0.0,0.0,0.0,0.0,0.0,0.0,0.0,0.0,0.0,0.0,0.0,0.0,0.0,0.0,0.0,0.0,0.0,0.0,0.0,0.0,0.0,0.0,0.0,0.0,0.0,0.0,0.0,0.0,0.0,0.0,0.0,0.0,0.0,0.0,0.0,0.0,0.0,0.0,0.0,0.0,0.0,0.0,0.0,0.0,0.0,0.0,0.0,0.0,0.0,0.0,0.0,0.0,0.0,0.0,0.0,0.0,0.0,0.0,0.0,0.0,0.0,0.0,0.0,0.0,0.0,0.0,0.0,0.0,0.0,0.0,0.0,0.0,0.0,0.0,0.0,0.0,0.0,0.0,0.0,0.0,0.0,0.0,0.0,0.0,0.0,0.0,0.0,0.0,0.0,0.0,0.0,0.0,0.0,0.0,0.0,0.0,0.0,0.0,0.0,0.0,0.0,0.0,0.0,0.0,0.0,0.0,0.0,0.0,0.0,0.0,0.0,0.0,0.0,0.0,0.0,0.0,0.0,0.0,0.0,0.0,0.0,0.0,0.0,0.0,0.0,0.0,0.0,0.0,0.0,0.0,0.0,0.0,0.0,0.0,0.0,0.0,0.0,0.0,0.0,0.0,0.0,0.0,0.0,0.0,0.0,0.0,0.0,0.0,0.0,0.0,0.0,0.0,0.0,0.0,0.0,0.0,0.0,0.0,0.0,0.0,0.0,0.0,0.0,0.0,0.0,0.0,0.0,0.0,0.0,0.0,0.0,0.0,0.0,0.0,0.0,0.0,0.0,0.0,0.0,0.0,0.0,0.0,0.0,0.0,0.0,0.0,0.0,0.0,0.0,0.0,0.0,0.0,0.0,0.0,0.0,0.0,0.0,0.0,0.0,0.0,0.0,0.0,0.0,0.0,0.0,0.0,0.0,0.0,0.0,0.0,0.0,0.0,0.0,0.0,0.0,0.0,0.0,0.0,0.0,0.0,0.0,0.0,0.0,0.0,0.0,0.0,0.0,0.0,0.0,0.0,0.0,0.0,0.0,0.0,0.0,0.0,0.0,0.0,0.0,0.0,0.0,0.0,0.0,0.0,0.0,0.0,0.0,0.0,0.0,0.0,0.0,0.0,0.0,0.0,0.0,0.0,0.0,0.0,0.0,0.0,0.0,0.0,0.0,0.0,0.0,0.0,0.0,0.0,0.0,0.0,0.0,0.0,0.0,0.0,0.0,0.0,0.0,0.0,0.0,0.0,0.0,0.0,0.0,0.0,0.0,0.0,0.0,0.0,0.0,0.0,0.0,0.0,0.0,0.0,0.0,0.0,0.0,0.0,0.0,0.0,0.0,0.0,0.0,0.0,0.0,0.0,0.0,0.0,0.0,0.0,0.0,0.0,0.0,0.0,0.0,0.0,0.0,0.0,0.0,0.0,0.0,0.0,0.0,0.0,0.0,0.0,0.0,0.0,0.0,0.0,0.0,0.0,0.0,0.0,0.0,0.0,0.0,0.0,0.0,0.0,0.0,0.0,0.0,0.0,0.0,0.0,0.0,0.0,0.0,0.0,0.0,0.0,0.0,0.0,0.0,0.0,0.0,0.0,0.0,0.0,0.0,0.0,0.0,0.0,0.0,0.0,0.0,0.0,0.0,0.0,0.0,0.0,0.0,0.0,0.0,0.0,0.0,0.0,0.0,0.0,0.0,0.0,0.0,0.0,0.0,0.0,0.0,0.0,0.0,0.0,0.0,0.0,0.0,0.0,0.0,0.0,0.0,0.0,0.0,0.0,0.0,0.0,0.0,0.0,0.0,0.0,0.0,0.0,0.0,0.0,0.0,0.0,0.0,0.0,0.0,0.0,0.0,0.0,0.0,0.0,0.0,0.0,0.0,0.0,0.0,0.0,0.0,0.0,0.0,0.0,0.0,0.0,0.0,0.0,0.0,0.0,0.0,0.0,0.0,0.0,0.0,0.0,0.0,0.0,0.0,0.0,0.0,0.0,0.0,0.0,0.0,0.0,0.0,0.0,0.0,0.0,0.0,0.0,0.0,0.0,0.0,0.0,0.0,0.0,0.0,0.0,0.0,0.0,0.0,0.0,0.0,0.0,0.0,0.0,0.0,0.0,0.0,0.0,0.0,0.0,0.0,0.0,0.0,0.0,0.0,0.0,0.0,0.0,0.0,0.0,0.0,0.0,0.0,0.0,0.0,0.0,0.0,0.0,0.0,0.0,0.0,0.0,0.0,0.0,0.0,0.0,0.0,0.0,0.0,0.0,0.0,0.0,0.0,0.0,0.0,0.0,0.0,0.0,0.0,0.0,0.0,0.0,0.0,0.0,0.0,0.0,0.0,0.0,0.0,0.0,0.0,0.0,0.0,0.0,0.0,0.0,0.0,0.0,0.0,0.0,0.0,0.0,0.0,0.0,0.0,0.0,0.0,0.0,0.0,0.0,0.0,0.0,0.0,0.0,0.0,0.0,0.0,0.0,0.0,0.0,0.0,0.0,0.0,0.0,0.0,0.0,0.0,0.0,0.0,0.0,0.0,0.0,0.0,0.0,0.0,0.0,0.0,0.0,0.0,0.0,0.0,0.0,0.0,0.0,0.0,0.0,0.0,0.0,0.0,0.0,0.0,0.0,0.0,0.0,0.0,0.0,0.0,0.0,0.0,0.0,0.0,0.0,0.0,0.0,0.0,0.0,0.0,0.0,0.0,0.0,0.0,0.0,0.0,0.0,0.0,0.0,0.0,0.0,0.0,0.0,0.0,0.0,0.0,0.0,0.0,0.0,0.0,0.0,0.0,0.0,0.0,0.0,0.0,0.0,0.0,0.0,0.0,0.0,0.0,0.0,0.0,0.0,0.0,0.0,0.0,0.0,0.0,0.0,0.0,0.0,0.0,0.0,0.0,0.0,0.0,0.0,0.0,0.0,0.0,0.0,0.0,0.0,0.0,0.0,0.0,0.0,0.0,0.0,0.0,0.0,0.0,0.0,0.0,0.0,0.0,0.0,0.0,0.0,0.0,0.0,0.0,0.0,0.0,0.0,0.0,0.0,0.0,0.0,0.0,0.0,0.0,0.0,0.0,0.0,0.0,0.0,0.0,0.0,0.0,0.0,0.0,0.0,0.0,0.0,0.0,0.0,0.0,0.0,0.0,0.0,0.0,0.0,0.0,0.0,0.0,-0.7817,0.0,0.0,0.0,0.0,0.0,0.0,0.0,0.0,0.0,0.0,0.0,0.0,0.0,0.0,0.0,0.0,0.0,0.0,0.0,0.0,0.0,0.0,0.0,0.0,0.0,0.0,0.0,0.0,0.0,0.0,0.0,0.0,0.0,0.0,0.0,0.0,0.0,0.0,0.0,0.0,0.0,0.0,0.0,0.0,0.0,0.0,0.0,0.0,0.0,0.0,0.0,0.0,0.0,0.0,0.0,0.0,0.0,0.0,0.0,0.0,0.0,0.0,0.0,0.0,0.0,0.0,0.0,0.0,0.0,0.0,0.0,0.0,0.0,0.0,0.0,0.0,0.0,0.0,0.0,0.0,0.0,0.0,0.0,0.0,0.0,0.0,0.0,0.0,0.0,0.0,0.0,0.0,0.0,0.0,0.0,0.0,0.0,0.0,0.0,0.0,0.0,0.0,0.0,0.0,0.0,0.0,0.0,0.0,0.0,0.0,-0.8238,-0.7827,-0.8257,-0.8371,-0.8162,0.0,0.0,0.0,0.0,0.0,0.0,0.0,0.0,0.0,0.0,0.0,0.0,0.0,0.0,0.0,0.0,0.0,0.0,0.0,0.0,0.0,0.0,0.0,0.0,0.0,0.0,0.0,0.0,0.0,0.0,0.0,0.0,0.0,0.0,0.0,0.0,0.0,0.0,0.0,0.0,0.0,0.0,0.0,0.0,0.0,0.0,0.0,0.0,0.0,0.0,0.0,0.0,0.0,0.0,0.0,0.0,0.0,0.0,0.0,0.0,0.0,0.0,0.0,0.0,0.0,0.0,0.0,0.0,0.0,0.0,0.0,0.0,0.0,0.0,0.0,0.0,0.0,0.0,0.0,0.0,0.0,0.0,0.0,0.0,0.0,0.0,0.0,0.0,0.0,0.0,0.0,0.0,0.0,0.0,0.0,0.0,0.0,0.0,0.0,0.0,0.0,0.0,0.0,0.0,0.0,0.0,0.0,0.0,0.0,0.0,0.0,0.0,-0.8818,-0.8931,-0.8815,0.0,0.0,0.0,0.0,0.0,0.0,0.0,0.0,0.0,0.0,0.0,0.0,0.0,0.0,0.0,0.0,0.0,0.0,0.0,0.0,0.0,0.0,0.0,0.0,0.0,0.0,0.0,0.0,0.0,0.0,0.0,0.0,0.0,0.0,0.0,0.0,0.0,0.0,0.0,0.0,0.0,0.0,0.0,0.0,0.0,0.0,0.0,0.0,0.0,0.0,0.0,0.0,0.0,0.0,0.0,0.0,0.0,0.0,0.0,0.0,0.0,0.0,0.0,0.0,0.0,0.0,0.0,0.0,0.0,0.0,0.0,0.0,0.0,0.0,0.0,0.0,0.0,0.0,0.0,0.0,0.0,0.0,0.0,0.0,0.0,0.0,0.0,0.0,0.0,0.0,0.0,0.0,0.0,0.0,0.0,0.0,0.0,0.0,0.0,0.0,0.0,0.0,0.0,0.0,0.0,0.0,0.0,0.0,0.0,0.0,-0.9664,-1.0425,-1.0477,0.0,-0.9814,0.0,0.0,0.0,0.0,0.0,0.0,0.0,0.0,0.0,0.0,0.0,0.0,0.0,0.0,0.0,0.0,0.0,0.0,0.0,0.0,0.0,0.0,0.0,0.0,0.0,0.0,0.0,0.0,0.0,0.0,0.0,0.0,0.0,0.0,0.0,0.0,0.0,0.0,0.0,0.0,0.0,0.0,0.0,0.0,0.0,0.0,0.0,0.0,0.0,0.0,0.0,0.0,0.0,0.0,0.0,0.0,0.0,0.0,0.0,0.0,0.0,0.0,0.0,0.0,0.0,0.0,0.0,0.0,0.0,0.0,0.0,0.0,0.0,0.0,0.0,0.0,0.0,0.0,0.0,0.0,0.0,0.0,0.0,0.0,0.0,0.0,0.0,0.0,0.0,0.0,0.0,0.0,0.0,0.0,0.0,0.0,0.0,0.0,0.0,0.0,0.0,0.0,0.0,0.0,0.0,0.0,0.0,0.0,0.0,0.0,-1.0812,-1.0765,-1.0775,-1.0523,0.0,0.0,0.0,0.0,0.0,0.0,0.0,0.0,0.0,0.0,0.0,0.0,0.0,0.0,0.0,0.0,0.0,0.0,0.0,0.0,0.0,0.0,0.0,0.0,0.0,0.0,0.0,0.0,0.0,0.0,0.0,0.0,0.0,0.0,0.0,0.0,0.0,0.0,0.0,0.0,0.0,0.0,0.0,0.0,0.0,0.0,0.0,0.0,0.0,0.0,0.0,0.0,0.0,0.0,0.0,0.0,0.0,0.0,0.0,0.0,0.0,0.0,0.0,0.0,0.0,0.0,0.0,0.0,0.0,0.0,0.0,0.0,0.0,0.0,0.0,0.0,0.0,0.0,0.0,0.0,0.0,0.0,0.0,0.0,0.0,0.0,0.0,0.0,0.0,0.0,0.0,0.0,0.0,0.0,0.0,0.0,0.0,0.0,0.0,0.0,0.0,0.0,0.0,0.0,0.0,0.0,0.0,0.0,0.0,0.0,-1.1522,0.0,-1.1572,-1.1409,-1.0929,-1.0129,0.0,0.0,0.0,0.0,0.0,0.0,0.0,0.0,0.0,0.0,0.0,0.0,0.0,0.0,0.0,0.0,0.0,0.0,0.0,0.0,0.0,0.0,0.0,0.0,0.0,0.0,0.0,0.0,0.0,0.0,0.0,0.0,0.0,0.0,0.0,0.0,0.0,0.0,0.0,0.0,0.0,0.0,0.0,0.0,0.0,0.0,0.0,0.0,0.0,0.0,0.0,0.0,0.0,0.0,0.0,0.0,0.0,0.0,0.0,0.0,0.0,0.0,0.0,0.0,0.0,0.0,0.0,0.0,0.0,0.0,0.0,0.0,0.0,0.0,0.0,0.0,0.0,0.0,0.0,0.0,0.0,0.0,0.0,0.0,0.0,0.0,0.0,0.0,0.0,0.0,0.0,0.0,0.0,0.0,0.0,0.0,0.0,0.0,0.0,0.0,0.0,0.0,0.0,0.0,0.0,0.0,0.0,0.0,0.0,-1.3295,-1.2731,-1.3458,-1.2932,-1.1826,0.0,0.0,0.0,0.0,0.0,0.0,0.0,0.0,0.0,0.0,0.0,0.0,0.0,0.0,0.0,0.0,0.0,0.0,0.0,0.0,0.0,0.0,0.0,0.0,0.0,0.0,0.0,0.0,0.0,0.0,0.0,0.0,0.0,0.0,0.0,0.0,0.0,0.0,0.0,0.0,0.0,0.0,0.0,0.0,0.0,0.0,0.0,0.0,0.0,0.0,0.0,0.0,0.0,0.0,0.0,0.0,0.0,0.0,0.0,0.0,0.0,0.0,0.0,0.0,0.0,0.0,0.0,0.0,0.0,0.0,0.0,0.0,0.0,0.0,0.0,0.0,0.0,0.0,0.0,0.0,0.0,0.0,0.0,0.0,0.0,0.0,0.0,0.0,0.0,0.0,0.0,0.0,0.0,0.0,0.0,0.0,0.0,0.0,0.0,0.0,0.0,0.0,0.0,0.0,0.0,0.0,0.0,0.0,0.0,-1.2096,-1.2482,-1.3883,-1.6207,-1.3572,-1.2173,0.0,0.0,0.0,0.0,0.0,0.0,0.0,0.0,0.0,0.0,0.0,0.0,0.0,0.0,0.0,0.0,0.0,0.0,0.0,0.0,0.0,0.0,0.0,0.0,0.0,0.0,0.0,0.0,0.0,0.0,0.0,0.0,0.0,0.0,0.0,0.0,0.0,0.0,0.0,0.0,0.0,0.0,0.0,0.0,0.0,0.0,0.0,0.0,0.0,0.0,0.0,0.0,0.0,0.0,0.0,0.0,0.0,0.0,0.0,0.0,0.0,0.0,0.0,0.0,0.0,0.0,0.0,0.0,0.0,0.0,0.0,0.0,0.0,0.0,0.0,0.0,0.0,0.0,0.0,0.0,0.0,0.0,0.0,0.0,0.0,0.0,0.0,0.0,0.0,0.0,0.0,0.0,0.0,0.0,0.0,0.0,0.0,0.0,0.0,0.0,0.0,0.0,0.0,0.0,0.0,0.0,0.0,0.0,0.0,-1.225,0.0,-1.5884,0.0,-1.4526,-1.2896,0.0,0.0,0.0,0.0,0.0,0.0,0.0,0.0,0.0,0.0,0.0,0.0,0.0,0.0,0.0,0.0,0.0,0.0,0.0,0.0,0.0,0.0,0.0,0.0,0.0,0.0,0.0,0.0,0.0,0.0,0.0,0.0,0.0,0.0,0.0,0.0,0.0,0.0,0.0,0.0,0.0,0.0,0.0,0.0,0.0,0.0,0.0,0.0,0.0,0.0,0.0,0.0,0.0,0.0,0.0,0.0,0.0,0.0,0.0,0.0,0.0,0.0,0.0,0.0,0.0,0.0,0.0,0.0,0.0,0.0,0.0,0.0,0.0,0.0,0.0,0.0,0.0,0.0,0.0,0.0,0.0,0.0,0.0,0.0,0.0,0.0,0.0,0.0,0.0,0.0,0.0,0.0,0.0,0.0,0.0,0.0,0.0,0.0,0.0,0.0,0.0,0.0,0.0,0.0,0.0,0.0,0.0,0.0,-1.321,-1.6123,-1.8549,-1.8504,-1.6089,-1.5822,-1.3983,0.0,0.0,0.0,0.0,0.0,0.0,0.0,0.0,0.0,0.0,0.0,0.0,0.0,0.0,0.0,0.0,0.0,0.0,0.0,0.0,0.0,0.0,0.0,0.0,0.0,0.0,0.0,0.0,0.0,0.0,0.0,0.0,0.0,0.0,0.0,0.0,0.0,0.0,0.0,0.0,0.0,0.0,0.0,0.0,0.0,0.0,0.0,0.0,0.0,0.0,0.0,0.0,0.0,0.0,0.0,0.0,0.0,0.0,0.0,0.0,0.0,0.0,0.0,0.0,0.0,0.0,0.0,0.0,0.0,0.0,0.0,0.0,0.0,0.0,0.0,0.0,0.0,0.0,0.0,0.0,0.0,0.0,0.0,0.0,0.0,0.0,0.0,0.0,0.0,0.0,0.0,0.0,0.0,0.0,0.0,0.0,0.0,0.0,0.0,0.0,0.0,0.0,0.0,0.0,0.0,0.0,0.0,0.0,0.0,-1.4822,-1.6517,-1.781,-1.8436,-1.563,-1.4266,0.0,0.0,0.0,0.0,0.0,0.0,0.0,0.0,0.0,0.0,0.0,0.0,0.0,0.0,0.0,0.0,0.0,0.0,0.0,0.0,0.0,0.0,0.0,0.0,0.0,0.0,0.0,0.0,0.0,0.0,0.0,0.0,0.0,0.0,0.0,0.0,0.0,0.0,0.0,0.0,0.0,0.0,0.0,0.0,0.0,0.0,0.0,0.0,0.0,0.0,0.0,0.0,0.0,0.0,0.0,0.0,0.0,0.0,0.0,0.0,0.0,0.0,0.0,0.0,0.0,0.0,0.0,0.0,0.0,0.0,0.0,0.0,0.0,0.0,0.0,0.0,0.0,0.0,0.0,0.0,0.0,0.0,0.0,0.0,0.0,0.0,0.0,0.0,0.0,0.0,0.0,0.0,0.0,0.0,0.0,0.0,0.0,0.0,0.0,0.0,0.0,0.0,0.0,0.0,0.0,0.0,0.0,0.0,0.0,-1.6214,-1.7783,-1.917,-2.0256,-1.7169,-1.5619,-1.5898,0.0,0.0,0.0,0.0,0.0,0.0,0.0,0.0,0.0,0.0,0.0,0.0,0.0,0.0,0.0,0.0,0.0,0.0,0.0,0.0,0.0,0.0,0.0,0.0,0.0,0.0,0.0,0.0,0.0,0.0,0.0,0.0,0.0,0.0,0.0,0.0,0.0,0.0,0.0,0.0,0.0,0.0,0.0,0.0,0.0,0.0,0.0,0.0,0.0,0.0,0.0,0.0,0.0,0.0,0.0,0.0,0.0,0.0,0.0,0.0,0.0,0.0,0.0,0.0,0.0,0.0,0.0,0.0,0.0,0.0,0.0,0.0,0.0,0.0,0.0,0.0,0.0,0.0,0.0,0.0,0.0,0.0,0.0,0.0,0.0,0.0,0.0,0.0,0.0,0.0,0.0,0.0,0.0,0.0,0.0,0.0,0.0,0.0,0.0,0.0,0.0,0.0,0.0,0.0,0.0,0.0,0.0,0.0,-1.9627,-2.1786,-2.2336,-2.1272,-2.0002,-1.7936,0.0,0.0,0.0,0.0,0.0,0.0,0.0,0.0,0.0,0.0,0.0,0.0,0.0,0.0,0.0,0.0,0.0,0.0,0.0,0.0,0.0,0.0,0.0,0.0,0.0,0.0,0.0,0.0,0.0,0.0,0.0,0.0,0.0,0.0,0.0,0.0,0.0,0.0,0.0,0.0,0.0,0.0,0.0,0.0,0.0,0.0,0.0,0.0,0.0,0.0,0.0,0.0,0.0,0.0,0.0,0.0,0.0,0.0,0.0,0.0,0.0,0.0,0.0,0.0,0.0,0.0,0.0,0.0,0.0,0.0,0.0,0.0,0.0,0.0,0.0,0.0,0.0,0.0,0.0,0.0,0.0,0.0,0.0,0.0,0.0,0.0,0.0,0.0,0.0,0.0,0.0,0.0,0.0,0.0,0.0,0.0,0.0,0.0,0.0,0.0,0.0,0.0,0.0,0.0,0.0,0.0,0.0,0.0,0.0,-2.1602,-2.3464,-2.3988,-2.301,-2.0759,-1.9098,0.0,0.0,0.0,0.0,0.0,0.0,0.0,0.0,0.0,0.0,0.0,0.0,0.0,0.0,0.0,0.0,0.0,0.0,0.0,0.0,0.0,0.0,0.0,0.0,0.0,0.0,0.0,0.0,0.0,0.0,0.0,0.0,0.0,0.0,0.0,0.0,0.0,0.0,0.0,0.0,0.0,0.0,0.0,0.0,0.0,0.0,0.0,0.0,0.0,0.0,0.0,0.0,0.0,0.0,0.0,0.0,0.0,0.0,0.0,0.0,0.0,0.0,0.0,0.0,0.0,0.0,0.0,0.0,0.0,0.0,0.0,0.0,0.0,0.0,0.0,0.0,0.0,0.0,0.0,0.0,0.0,0.0,0.0,0.0,0.0,0.0,0.0,0.0,0.0,0.0,0.0,0.0,0.0,0.0,0.0,0.0,0.0,0.0,0.0,0.0,0.0,0.0,0.0,0.0,0.0,0.0,0.0,0.0,-2.1517,-2.3774,-2.509,-2.5579,-2.5319,-2.2834,-2.0888,0.0,0.0,0.0,0.0,0.0,0.0,0.0,0.0,0.0,0.0,0.0,0.0,0.0,0.0,0.0,0.0,0.0,0.0,0.0,0.0,0.0,0.0,0.0,0.0,0.0,0.0,0.0,0.0,0.0,0.0,0.0,0.0,0.0,0.0,0.0,0.0,0.0,0.0,0.0,0.0,0.0,0.0,0.0,0.0,0.0,0.0,0.0,0.0,0.0,0.0,0.0,0.0,0.0,0.0,0.0,0.0,0.0,0.0,0.0,0.0,0.0,0.0,0.0,0.0,0.0,0.0,0.0,0.0,0.0,0.0,0.0,0.0,0.0,0.0,0.0,0.0,0.0,0.0,0.0,0.0,0.0,0.0,0.0,0.0,0.0,0.0,0.0,0.0,0.0,0.0,0.0,0.0,0.0,0.0,0.0,0.0,0.0,0.0,0.0,0.0,0.0,0.0,0.0,0.0,0.0,0.0,0.0,0.0,-2.2933,-2.5706,-2.6426,-2.704,-2.749,-2.531,-2.2818,0.0,0.0,0.0,0.0,0.0,0.0,0.0,0.0,0.0,0.0,0.0,0.0,0.0,0.0,0.0,0.0,0.0,0.0,0.0,0.0,0.0,0.0,0.0,0.0,0.0,0.0,0.0,0.0,0.0,0.0,0.0,0.0,0.0,0.0,0.0,0.0,0.0,0.0,0.0,0.0,0.0,0.0,0.0,0.0,0.0,0.0,0.0,0.0,0.0,0.0,0.0,0.0,0.0,0.0,0.0,0.0,0.0,0.0,0.0,0.0,0.0,0.0,0.0,0.0,0.0,0.0,0.0,0.0,0.0,0.0,0.0,0.0,0.0,0.0,0.0,0.0,0.0,0.0,0.0,0.0,0.0,0.0,0.0,0.0,0.0,0.0,0.0,0.0,0.0,0.0,0.0,0.0,0.0,0.0,0.0,0.0,0.0,0.0,0.0,0.0,0.0,0.0,0.0,0.0,0.0,0.0,0.0,0.0,-2.4176,-2.5761,-2.681,-2.7615,-2.8211,-2.555,-2.3156,0.0,0.0,0.0,0.0,0.0,0.0,0.0,0.0,0.0,0.0,0.0,0.0,0.0,0.0,0.0,0.0,0.0,0.0,0.0,0.0,0.0,0.0,0.0,0.0,0.0,0.0,0.0,0.0,0.0,0.0,0.0,0.0,0.0,0.0,0.0,0.0,0.0,0.0,0.0,0.0,0.0,0.0,0.0,0.0,0.0,0.0,0.0,0.0,-1.8494,0.0,0.0,0.0,0.0,0.0,0.0,0.0,0.0,0.0,0.0,0.0,0.0,0.0,0.0,0.0,0.0,0.0,0.0,0.0,0.0,0.0,0.0,0.0,0.0,0.0,0.0,0.0,0.0,0.0,0.0,0.0,0.0,0.0,0.0,0.0,0.0,0.0,0.0,0.0,0.0,0.0,0.0,0.0,0.0,0.0,0.0,0.0,0.0,0.0,0.0,0.0,0.0,0.0,0.0,0.0,0.0,0.0,0.0,0.0,-2.5786,-2.7817,-2.7937,-2.8231,-2.8708,-2.6282,-2.3981,0.0,0.0,0.0,0.0,0.0,0.0,0.0,0.0,0.0,0.0,0.0,0.0,0.0,0.0,0.0,0.0,0.0,0.0,0.0,0.0,0.0,0.0,0.0,0.0,0.0,0.0,0.0,0.0,0.0,0.0,0.0,0.0,0.0,0.0,0.0,0.0,0.0,0.0,0.0,0.0,0.0,0.0,0.0,0.0,0.0,0.0,0.0,0.0,0.0,0.0,0.0,0.0,0.0,0.0,0.0,0.0,0.0,0.0,0.0,0.0,0.0,0.0,0.0,0.0,0.0,0.0,0.0,0.0,0.0,0.0,0.0,0.0,0.0,0.0,0.0,0.0,0.0,0.0,0.0,0.0,0.0,0.0,0.0,0.0,0.0,0.0,0.0,0.0,0.0,0.0,0.0,0.0,0.0,0.0,0.0,0.0,0.0,0.0,0.0,0.0,0.0,0.0,0.0,0.0,0.0,0.0,0.0,-2.4868,-2.714,-3.0122,-2.9114,-2.8758,-2.9276,-2.702,-2.4739,-2.2467,0.0,0.0,0.0,0.0,0.0,0.0,0.0,0.0,0.0,0.0,0.0,0.0,0.0,0.0,0.0,0.0,0.0,0.0,0.0,0.0,0.0,0.0,0.0,0.0,0.0,0.0,0.0,0.0,0.0,0.0,0.0,0.0,0.0,0.0,0.0,0.0,0.0,0.0,-1.5885,-1.7708,0.0,0.0,0.0,0.0,0.0,0.0,0.0,0.0,-2.0039,0.0,0.0,0.0,0.0,0.0,0.0,0.0,0.0,0.0,0.0,0.0,0.0,0.0,0.0,0.0,0.0,0.0,0.0,0.0,0.0,0.0,0.0,0.0,0.0,0.0,0.0,0.0,0.0,0.0,0.0,0.0,0.0,0.0,0.0,0.0,0.0,0.0,0.0,0.0,0.0,0.0,0.0,0.0,0.0,0.0,0.0,0.0,0.0,0.0,0.0,0.0,0.0,0.0,0.0,0.0,0.0,-2.5118,-2.5481,-2.7144,-3.0266,-2.9162,-2.8787,-2.9309,-2.7042,-2.4739,-2.2467,0.0,0.0,0.0,0.0,0.0,0.0,0.0,0.0,0.0,0.0,0.0,0.0,0.0,0.0,0.0,0.0,0.0,0.0,0.0,0.0,0.0,0.0,0.0,0.0,0.0,0.0,0.0,0.0,0.0,0.0,0.0,0.0,0.0,0.0,0.0,0.0,0.0,0.0,0.0,-1.8819,-1.9695,0.0,0.0,0.0,0.0,0.0,0.0,0.0,0.0,-2.117,0.0,0.0,0.0,0.0,0.0,0.0,0.0,0.0,0.0,0.0,0.0,0.0,0.0,0.0,0.0,0.0,0.0,0.0,0.0,0.0,0.0,0.0,0.0,0.0,0.0,0.0,0.0,0.0,0.0,0.0,0.0,0.0,0.0,0.0,0.0,0.0,0.0,0.0,0.0,0.0,0.0,0.0,0.0,0.0,0.0,0.0,0.0,0.0,0.0,0.0,0.0,0.0,0.0,0.0,0.0,-2.5412,-2.6633,-2.8554,-3.1288,-3.0168,-2.9823,-3.0347,-2.7195,-2.4635,0.0,0.0,0.0,0.0,0.0,0.0,0.0,0.0,0.0,0.0,0.0,0.0,0.0,0.0,0.0,0.0,0.0,0.0,0.0,0.0,0.0,0.0,0.0,0.0,0.0,0.0,0.0,0.0,0.0,0.0,0.0,0.0,0.0,0.0,0.0,0.0,0.0,0.0,0.0,0.0,-2.0111,-2.0675,-2.1877,0.0,0.0,0.0,0.0,0.0,0.0,-2.2254,-2.2071,0.0,0.0,0.0,0.0,0.0,0.0,0.0,0.0,0.0,0.0,0.0,0.0,0.0,0.0,0.0,0.0,0.0,0.0,0.0,0.0,0.0,0.0,0.0,0.0,0.0,0.0,0.0,0.0,0.0,0.0,0.0,0.0,0.0,0.0,0.0,0.0,0.0,0.0,0.0,0.0,0.0,0.0,0.0,0.0,0.0,0.0,0.0,0.0,0.0,0.0,0.0,0.0,0.0,0.0,0.0,-2.5525,-2.744,-2.9633,-3.2045,-3.1092,-3.0727,-3.1136,-2.746,-2.4805,0.0,0.0,0.0,0.0,0.0,0.0,0.0,0.0,0.0,0.0,0.0,0.0,0.0,0.0,0.0,0.0,0.0,0.0,0.0,0.0,0.0,0.0,0.0,0.0,0.0,0.0,0.0,0.0,0.0,0.0,0.0,0.0,0.0,0.0,0.0,0.0,0.0,0.0,0.0,0.0,0.0,-2.2113,-2.355,-2.3158,0.0,0.0,0.0,0.0,-2.3404,-2.3409,0.0,0.0,0.0,0.0,0.0,0.0,0.0,0.0,0.0,0.0,0.0,0.0,0.0,0.0,0.0,0.0,0.0,0.0,0.0,0.0,0.0,0.0,0.0,0.0,0.0,0.0,0.0,0.0,0.0,0.0,0.0,0.0,0.0,0.0,0.0,0.0,0.0,0.0,0.0,0.0,0.0,0.0,0.0,0.0,0.0,0.0,0.0,0.0,0.0,0.0,0.0,0.0,0.0,0.0,0.0,0.0,-2.5495,-2.6991,-2.8984,-3.1439,-3.088,-3.0536,-3.0561,-2.8015,-2.5581,0.0,0.0,0.0,0.0,0.0,0.0,0.0,0.0,0.0,0.0,0.0,0.0,0.0,0.0,0.0,0.0,0.0,0.0,0.0,0.0,0.0,0.0,0.0,0.0,0.0,0.0,0.0,0.0,0.0,0.0,0.0,0.0,0.0,0.0,0.0,0.0,0.0,0.0,0.0,0.0,0.0,-2.4037,-2.2779,-2.3354,-2.4073,0.0,0.0,-2.4639,-2.4783,-2.5581,0.0,0.0,0.0,0.0,0.0,0.0,0.0,0.0,0.0,0.0,0.0,0.0,0.0,0.0,0.0,0.0,0.0,0.0,0.0,0.0,0.0,0.0,0.0,0.0,0.0,0.0,0.0,0.0,0.0,0.0,0.0,0.0,0.0,0.0,0.0,0.0,0.0,0.0,0.0,0.0,0.0,0.0,0.0,0.0,0.0,0.0,0.0,0.0,0.0,0.0,0.0,0.0,0.0,0.0,0.0,-2.2413,-2.554,-2.7664,-3.0011,-3.2482,-3.1605,-3.1442,-3.2151,-2.8425,-2.5684,0.0,0.0,0.0,0.0,0.0,0.0,0.0,0.0,0.0,0.0,0.0,0.0,0.0,0.0,0.0,0.0,0.0,0.0,0.0,0.0,0.0,0.0,0.0,0.0,0.0,0.0,0.0,0.0,0.0,0.0,0.0,0.0,0.0,0.0,0.0,0.0,0.0,0.0,0.0,0.0,0.0,0.0,-2.4687,-2.5262,0.0,0.0,0.0,-2.6322,-2.7389,0.0,0.0,0.0,0.0,0.0,0.0,0.0,0.0,0.0,0.0,0.0,0.0,0.0,0.0,0.0,0.0,0.0,0.0,0.0,0.0,0.0,0.0,0.0,0.0,0.0,0.0,0.0,0.0,0.0,0.0,0.0,0.0,0.0,0.0,0.0,0.0,0.0,0.0,0.0,0.0,0.0,0.0,0.0,0.0,0.0,0.0,0.0,0.0,0.0,0.0,0.0,0.0,0.0,0.0,0.0,0.0,0.0,-2.56,-2.8382,-3.0926,-3.3125,-3.2258,-3.2213,-3.314,-2.8978,0.0,0.0,0.0,0.0,0.0,0.0,0.0,0.0,0.0,0.0,0.0,0.0,0.0,0.0,0.0,0.0,0.0,0.0,0.0,0.0,0.0,0.0,0.0,0.0,0.0,0.0,0.0,-1.3351,0.0,0.0,0.0,0.0,0.0,0.0,0.0,0.0,0.0,0.0,0.0,0.0,0.0,0.0,-2.4673,-2.6716,-2.7536,-2.8266,0.0,0.0,-2.8523,-2.957,-2.8411,-2.707,0.0,0.0,0.0,0.0,0.0,0.0,0.0,0.0,0.0,0.0,0.0,0.0,0.0,0.0,0.0,0.0,0.0,0.0,0.0,0.0,0.0,0.0,0.0,0.0,0.0,0.0,0.0,0.0,0.0,0.0,0.0,0.0,0.0,0.0,0.0,0.0,0.0,0.0,0.0,0.0,0.0,0.0,0.0,0.0,0.0,0.0,0.0,0.0,0.0,0.0,0.0,0.0,0.0,0.0,0.0,-2.5615,-2.8801,-3.1135,-3.2527,-3.2497,-3.2497,-3.2512,-2.9954,-2.7421,0.0,0.0,0.0,0.0,0.0,0.0,0.0,0.0,0.0,0.0,0.0,0.0,0.0,0.0,0.0,0.0,0.0,0.0,0.0,0.0,0.0,0.0,0.0,0.0,0.0,0.0,0.0,0.0,0.0,0.0,0.0,0.0,0.0,0.0,0.0,0.0,0.0,0.0,0.0,0.0,0.0,-2.8036,-2.7849,-2.9746,-3.1204,0.0,0.0,-3.1623,-3.0528,-3.107,-3.0554,-2.7184,0.0,0.0,0.0,0.0,0.0,0.0,0.0,0.0,0.0,0.0,0.0,0.0,0.0,0.0,0.0,0.0,0.0,0.0,0.0,0.0,0.0,0.0,0.0,0.0,0.0,0.0,0.0,0.0,0.0,0.0,0.0,0.0,0.0,0.0,0.0,0.0,0.0,0.0,0.0,0.0,0.0,0.0,0.0,0.0,0.0,0.0,0.0,0.0,0.0,0.0,0.0,0.0,0.0,-2.2981,-2.5585,-2.8831,-3.1345,-3.3036,-3.3125,-3.311,-3.3125,-3.0608,-2.8047,0.0,0.0,0.0,0.0,0.0,0.0,0.0,0.0,0.0,0.0,0.0,0.0,0.0,0.0,0.0,0.0,0.0,0.0,0.0,0.0,0.0,0.0,0.0,0.0,0.0,0.0,0.0,0.0,-1.7366,-1.7153,-1.7557,0.0,0.0,0.0,0.0,0.0,0.0,0.0,0.0,0.0,0.0,-2.8909,-2.9492,-3.0968,0.0,0.0,-3.2544,-3.2492,-3.2741,-3.1494,-3.0018,-2.8644,-2.6969,0.0,0.0,0.0,0.0,0.0,0.0,0.0,0.0,0.0,0.0,0.0,0.0,0.0,0.0,0.0,0.0,0.0,0.0,0.0,0.0,0.0,0.0,0.0,0.0,0.0,0.0,0.0,0.0,0.0,0.0,0.0,0.0,0.0,0.0,0.0,0.0,0.0,0.0,0.0,0.0,0.0,0.0,0.0,0.0,0.0,0.0,0.0,0.0,0.0,0.0,0.0,0.0,-2.3281,-2.5899,-2.934,-3.1988,-3.3754,-3.3784,-3.3694,-3.344,-3.133,-2.8921,0.0,0.0,0.0,0.0,0.0,0.0,0.0,0.0,0.0,0.0,0.0,0.0,0.0,0.0,0.0,0.0,0.0,0.0,0.0,0.0,0.0,0.0,0.0,0.0,0.0,0.0,0.0,0.0,-1.8931,-1.8378,-1.7937,0.0,0.0,0.0,0.0,0.0,0.0,0.0,0.0,0.0,0.0,-3.0385,-3.1642,-3.2735,-3.3607,-3.4162,-3.3806,-3.3705,-3.4389,-3.2495,-3.0813,-3.0469,0.0,0.0,0.0,0.0,0.0,0.0,0.0,0.0,0.0,0.0,0.0,0.0,0.0,0.0,0.0,0.0,0.0,0.0,0.0,0.0,0.0,0.0,0.0,0.0,0.0,0.0,0.0,0.0,0.0,0.0,-1.4752,0.0,0.0,0.0,0.0,0.0,0.0,0.0,0.0,0.0,0.0,0.0,0.0,0.0,0.0,0.0,0.0,0.0,0.0,0.0,0.0,0.0,0.0,-2.3976,-2.6557,-3.0432,-3.308,-3.4414,-3.4488,-3.4189,-3.3514,-3.2168,-3.0223,-2.757,0.0,0.0,0.0,0.0,0.0,0.0,0.0,0.0,0.0,0.0,0.0,0.0,0.0,0.0,0.0,0.0,0.0,0.0,0.0,0.0,0.0,0.0,0.0,0.0,0.0,0.0,-2.1267,-2.1013,-2.0043,0.0,0.0,0.0,0.0,0.0,0.0,0.0,0.0,0.0,0.0,-3.0937,-3.2946,-3.4374,-3.5204,-3.564,-3.5894,-3.591,-3.5688,-3.5052,-3.4473,-3.3832,0.0,0.0,0.0,0.0,0.0,0.0,0.0,0.0,0.0,0.0,0.0,0.0,0.0,0.0,0.0,0.0,0.0,0.0,0.0,0.0,0.0,0.0,0.0,0.0,0.0,0.0,0.0,-1.9537,-1.8762,0.0,0.0,0.0,0.0,0.0,0.0,0.0,0.0,0.0,0.0,0.0,-2.6312,-2.7395,0.0,0.0,0.0,0.0,0.0,0.0,0.0,0.0,0.0,0.0,0.0,0.0,-2.465,-2.7419,-3.09,-3.3337,-3.4615,-3.5067,-3.4928,-3.4189,-3.2871,-3.0328,-2.6393,0.0,0.0,0.0,0.0,0.0,0.0,0.0,0.0,0.0,0.0,0.0,0.0,0.0,0.0,0.0,0.0,0.0,0.0,0.0,0.0,0.0,0.0,0.0,0.0,0.0,-1.8897,0.0,0.0,0.0,0.0,0.0,0.0,0.0,0.0,0.0,0.0,0.0,-2.8498,-3.0966,-3.2751,-3.434,-3.5838,-3.6132,-3.6466,0.0,0.0,0.0,0.0,0.0,0.0,0.0,0.0,0.0,0.0,0.0,0.0,0.0,0.0,-3.3211,-2.9274,-2.8348,-2.8175,-2.8203,0.0,0.0,0.0,0.0,0.0,0.0,0.0,0.0,0.0,0.0,0.0,0.0,0.0,0.0,-2.3146,0.0,-2.2497,0.0,0.0,0.0,0.0,0.0,0.0,0.0,0.0,-2.8412,-2.9532,-2.9367,-3.0417,-3.0357,0.0,-2.9352,-2.721,0.0,0.0,0.0,0.0,0.0,0.0,0.0,0.0,-2.6133,-2.8914,-3.1974,-3.403,-3.5009,-3.5461,-3.5322,-3.4503,-3.2991,-3.0404,-2.6767,-2.5204,-2.3482,0.0,0.0,0.0,0.0,0.0,0.0,0.0,0.0,0.0,0.0,0.0,0.0,0.0,0.0,0.0,0.0,0.0,0.0,0.0,0.0,0.0,0.0,0.0,-1.9774,0.0,0.0,0.0,0.0,0.0,0.0,0.0,0.0,0.0,-2.7037,-2.9018,-3.1323,-3.3603,-3.4816,-3.5902,-3.699,0.0,0.0,0.0,0.0,0.0,0.0,0.0,-3.6768,-3.6852,-3.5862,-3.5099,-3.5189,-3.616,-3.6926,-3.6778,0.0,0.0,-3.3238,-3.2316,-3.2198,-3.2228,-3.3926,-3.5379,-3.5347,-3.6821,-3.8229,0.0,0.0,0.0,0.0,0.0,0.0,0.0,0.0,-2.6752,-2.6722,0.0,-2.6019,0.0,0.0,0.0,0.0,0.0,-2.7051,0.0,0.0,-3.2242,-3.317,-3.2647,-3.3215,-3.3215,-3.2706,-3.38,-3.2751,-2.9592,-2.5818,0.0,0.0,0.0,0.0,0.0,0.0,-2.8334,-3.1034,-3.362,-3.5213,-3.5706,-3.572,-3.5292,-3.4444,-3.2617,-3.0673,-2.8757,-2.7974,-2.6147,-2.2972,-2.1515,0.0,0.0,0.0,0.0,0.0,0.0,0.0,0.0,0.0,0.0,0.0,0.0,0.0,0.0,0.0,0.0,0.0,0.0,0.0,0.0,-2.0576,0.0,0.0,0.0,0.0,0.0,0.0,0.0,0.0,0.0,0.0,-3.0868,-3.2437,-3.4337,-3.6267,0.0,0.0,0.0,0.0,-3.8184,-3.8611,-3.9167,-3.9382,-3.8785,-3.942,-3.9792,-3.9193,0.0,0.0,-3.8585,-3.9178,-3.9489,-3.8928,-3.9566,-3.9825,-3.8485,-3.7698,-3.7428,-3.7443,-3.801,-3.8583,-3.869,-3.9668,-4.0639,-2.937,0.0,0.0,0.0,0.0,-2.7784,-2.8921,-3.0791,-3.03,-2.9849,-2.937,-2.919,0.0,0.0,0.0,0.0,0.0,0.0,-3.0246,-3.1908,-3.3006,-3.3935,-3.4781,-3.4895,-3.4831,-3.462,-3.4547,-3.4024,-3.3051,-3.1127,-2.8052,-2.4046,0.0,0.0,0.0,0.0,-3.027,-3.2573,-3.4301,-3.543,-3.607,-3.6085,-3.538,-3.4044,-3.3306,-3.2003,-3.0028,-2.9355,-2.7944,-2.5593,-2.3744,0.0,0.0,0.0,0.0,0.0,0.0,0.0,0.0,0.0,0.0,0.0,0.0,0.0,0.0,0.0,0.0,0.0,0.0,0.0,-2.0143,-2.0809,-2.1821,0.0,0.0,0.0,0.0,0.0,0.0,0.0,0.0,0.0,-3.5983,-3.6207,-3.6705,0.0,0.0,-3.865,-3.9531,-3.9523,-3.9878,-4.1258,0.0,0.0,0.0,-4.1281,-4.1178,-4.1336,-4.1202,-4.092,-4.0591,-4.077,-4.092,-4.0827,-4.1198,-4.1386,-4.1163,-4.0301,-3.9674,-3.9705,-4.0601,-4.1417,-4.1494,-4.2494,-4.3387,-3.3619,-3.133,-2.9804,-2.9759,-3.0702,-3.0597,-3.1584,-3.3275,-3.2856,-3.2602,-3.2467,-3.2198,-3.112,-2.949,-2.8966,0.0,0.0,0.0,-3.2272,-3.4283,-3.4707,-3.5309,-3.6064,-3.6157,-3.6036,-3.5686,-3.5294,-3.5083,-3.5068,-3.4424,-3.2063,-2.8268,0.0,0.0,-2.8599,-3.0391,-3.2237,-3.4126,-3.5186,-3.586,-3.6196,-3.6148,-3.5382,-3.3849,-3.3698,-3.2751,-3.0957,-3.0524,-2.9549,-2.7869,-2.6171,-2.401,0.0,0.0,0.0,0.0,0.0,0.0,0.0,0.0,0.0,0.0,0.0,-1.7011,-1.5845,0.0,0.0,0.0,-1.9939,-2.1336,-2.2752,-2.3667,0.0,0.0,0.0,0.0,0.0,0.0,0.0,-3.4262,-3.6207,-3.7973,-3.9379,-3.9454,-3.9511,-3.9862,-3.9877,-4.0156,-4.0975,0.0,-4.1203,-4.2333,-4.2561,-4.2548,-4.2487,-4.26,-4.2741,-4.2923,-4.2735,-4.2431,-4.2201,-4.2239,-4.2355,-4.2508,-4.2698,-4.2962,-4.3081,-4.2554,-4.192,-4.1449,-4.2227,-4.294,-4.2987,-4.3848,-4.461,-3.7404,-3.709,-3.3469,-3.2333,-3.2916,-3.3559,-3.4143,-3.4728,-3.4743,-3.507,-3.5594,-3.4981,-3.4038,-3.2841,-3.1614,0.0,-3.2931,-3.3529,-3.4801,-3.6585,-3.6935,-3.6985,-3.6836,-3.7212,-3.6957,-3.6172,-3.6172,-3.6172,-3.6172,-3.6157,-3.5323,-3.3612,-3.2275,-3.1888,-3.2462,-3.319,-3.4249,-3.566,-3.6307,-3.6583,-3.6395,-3.6191,-3.5411,-3.4076,-3.394,-3.3216,-3.1778,-3.1689,-3.1104,-2.9843,-2.8699,-2.6626,-2.3516,0.0,0.0,0.0,0.0,0.0,0.0,0.0,0.0,0.0,0.0,0.0,0.0,0.0,0.0,0.0,-2.3345,0.0,-2.6105,-2.8082,0.0,0.0,0.0,-3.1734,-3.2441,-3.4571,-3.6412,-3.7509,0.0,0.0,-4.1422,0.0,-4.2361,-4.1912,-4.1814,-4.197,-4.2356,-4.223,-4.2202,-4.2508,-4.2817,-4.2925,-4.2707,-4.3478,-4.406,-4.3928,-4.3847,-4.356,-4.3349,-4.3482,-4.3684,-4.3663,-4.405,-4.4327,-4.4395,-4.4481,-4.4318,-4.3149,-4.3383,-4.3793,-4.384,-4.4409,-4.4887,-3.7404,-3.7345,-3.6402,-3.6103,-3.6252,-3.6417,-3.6567,-3.6701,-3.6716,-3.6806,-3.6941,-3.6791,-3.6537,-3.6222,-3.5908,-3.5938,-3.6252,-3.6402,-3.6813,-3.7398,-3.7667,-3.7785,-3.7852,-3.8014,-3.7953,-3.7752,-3.7606,-3.7509,-3.7524,-3.7671,-3.7541,-3.7099,-3.6826,-3.5523,-3.3321,-3.4846,-3.6138,-3.7015,-3.7692,-3.7998,-3.7935,-3.7283,-3.6529,-3.5705,-3.5048,-3.4304,-3.3426,-3.341,-3.2805,-3.1503,-3.0679,-2.9214,-2.7054,-2.5083,0.0,0.0,0.0,0.0,0.0,0.0,0.0,0.0,0.0,-2.3543,-2.0468,0.0,-2.4485,0.0,-2.6019,-2.7476,-2.8885,-2.9643,0.0,0.0,-3.4592,-3.5575,-3.762,-3.8697,-3.9385,-3.9649,-4.116,-4.2159,-4.2141,-4.3012,-4.3529,-4.3247,-4.2909,-4.2841,-4.3229,-4.3118,-4.3189,-4.367,-4.3708,-4.3761,-4.3785,-4.4075,-4.4243,-4.4026,-4.3964,-4.3832,-4.3651,-4.3793,-4.3972,-4.4143,-4.4205,-4.4549,-4.5154,-4.5341,-4.5464,-4.5577,-4.5379,-4.5149,-4.5126,-4.5618,-4.6095,-3.8302,-3.8302,-3.8267,-3.8302,-3.8222,-3.7659,-3.7404,-3.7404,-3.7404,-3.7404,-3.7404,-3.7404,-3.7404,-3.7404,-3.7404,-3.7404,-3.7404,-3.7404,-3.7687,-3.8144,-3.8503,-3.869,-3.8772,-3.9053,-3.8965,-3.8523,-3.8409,-3.831,-3.8228,-3.8343,-3.8391,-3.8391,-3.8475,-3.7569,-3.5814,-3.6815,-3.7584,-3.7954,-3.8323,-3.8508,-3.8508,-3.8025,-3.7454,-3.6762,-3.627,-3.5642,-3.4942,-3.4896,-3.4425,-3.3392,-3.2736,-3.154,-2.9623,-2.7968,-2.6803,0.0,0.0,0.0,0.0,0.0,0.0,0.0,0.0,0.0,0.0,0.0,-2.7525,-2.7911,-2.9788,-3.1496,-3.2671,-3.4052,-3.5585,-3.7355,-3.8181,-3.9148,-4.0435,-4.0988,-4.1489,-4.2073,-4.2923,-4.3518,-4.3843,-4.4268,-4.4654,-4.4828,-4.4455,-4.404,-4.3815,-4.3693,-4.3716,-4.4004,-4.3817,-4.3778,-4.4089,-4.4243,-4.4365,-4.4445,-4.4428,-4.4479,-4.4584,-4.4828,-4.5065,-4.5168,-4.5246,-4.5487,-4.5936,-4.6059,-4.6201,-4.6457,-4.6548,-4.6364,-4.6111,-4.6342,-4.6603,-3.9664,-3.9627,-3.9679,-3.9642,-3.9589,-3.8422,-3.7823,-3.7659,-3.7659,-3.7674,-3.7674,-3.7674,-3.7659,-3.7674,-3.7659,-3.7674,-3.7674,-3.7659,-3.8077,-3.8842,-3.9378,-3.965,-3.9665,-4.0199,-3.9952,-3.9113,-3.9065,-3.8967,-3.8769,-3.8769,-3.8736,-3.8769,-3.8736,-3.8816,-3.8893,-3.8908,-3.8846,-3.8769,-3.8736,-3.8736,-3.8769,-3.8692,-3.8304,-3.7621,-3.7499,-3.7097,-3.6358,-3.6327,-3.6023,-3.5353,-3.4881,-3.3794,-3.1959,-3.0795,-2.9648,0.0,-2.835,0.0,0.0,0.0,0.0,0.0,0.0,0.0,0.0,-3.0093,-3.0741,-3.1362,-3.391,-3.5855,-3.6716,-3.9066,-4.0355,-3.981,-4.1131,-4.2076,-4.1927,-4.24,-4.3124,-4.4223,-4.4432,-4.4854,-4.5499,-4.5511,-4.566,-4.5951,-4.5824,-4.5223,-4.444,-4.4237,-4.4228,-4.3971,-4.3837,-4.4106,-4.4391,-4.454,-4.4762,-4.5108,-4.5175,-4.5308,-4.5647,-4.6037,-4.6293,-4.6318,-4.6352,-4.6513,-4.6656,-4.667,-4.6735,-4.6893,-4.7293,-4.7481,-4.6927,-4.688,-4.685,-4.101,-4.101,-4.101,-4.101,-4.0995,-4.0741,-4.0023,-3.9014,-3.9014,-3.9014,-3.9,-3.905,-3.9,-3.9035,-3.9014,-3.9035,-3.9035,-3.9,-3.9217,-3.9536,-4.0063,-4.0393,-4.0579,-4.0935,-4.0939,-4.0645,-4.0494,-4.031,-4.0105,-4.0105,-4.012,-4.0105,-4.0105,-4.0447,-4.0986,0.0,0.0,0.0,-4.012,-4.012,-4.009,-3.9601,-3.9244,-3.9057,-3.8534,0.0,-3.8025,-3.8025,-3.7718,-3.7074,-3.6936,0.0,0.0,0.0,0.0,0.0,0.0,0.0,0.0,0.0,0.0,0.0,-3.6519,-3.5931,-3.32,-3.4297,-3.5043,-3.473,-3.6826,-3.8512,-3.9234,-4.0364,-4.1402,-4.2195,-4.2614,-4.294,-4.3277,-4.3989,-4.4558,-4.4539,-4.5188,-4.5662,-4.5762,-4.5935,-4.6032,-4.597,-4.6017,-4.5855,-4.5195,-4.5172,-4.5349,-4.5501,-4.549,-4.5711,-4.5822,-4.5841,-4.5825,-4.6045,-4.606,-4.6081,-4.6234,-4.641,-4.6594,-4.657,-4.6444,-4.6578,-4.7052,-4.717,-4.7334,-4.7851,-4.8182,-4.8219,-4.7573,-4.785,-4.8235,-4.1422,0.0,-4.1422,-4.1422,0.0,-4.1422,-4.101,-4.0382,-4.0382,-4.0397,-4.0367,-4.0038,-3.9903,-3.9888,-3.9559,-3.9388,-3.9388,-3.9388,-3.9568,-3.9889,-4.0668,-4.0986,-4.0966,-4.1666,-4.1702,-4.1203,-4.1379,-4.1329,-4.1152,-4.1421,-4.1555,-4.1555,-4.152,-4.1724,-4.2078,-4.2094,-4.1909,-4.152,-4.1571,-4.1366,-4.1063,-4.0724,-4.037,-4.0031,0.0,0.0,0.0,0.0,0.0,0.0,0.0,0.0,0.0,0.0,0.0,-3.6476,-3.6168,-3.5968,-3.5999,-3.6907,-3.7769,-3.8462,-3.9891,-3.9535,-3.6591,-3.7824,-3.8484,-3.7982,-3.9495,-4.0659,-4.1117,-4.1742,-4.2339,-4.2948,-4.3274,-4.3706,-4.4264,-4.4737,-4.5192,-4.5718,-4.607,-4.6388,-4.6792,-4.6781,-4.6838,-4.6838,-4.6796,-4.6682,-4.6413,-4.5943,-4.566,-4.5828,-4.6017,-4.6178,-4.6284,-4.6284,-4.6452,-4.6666,-4.6773,-4.6911,-4.7216,-4.7426,-4.7548,-4.7482,-4.7375,-4.7415,-4.755,-4.7657,-4.7779,-4.8069,-4.8286,-4.8361,-4.8009,-4.8291,-4.8604,-4.1728,-4.1728,-4.1728,-4.1713,-4.1728,-4.1728,-4.1728,-4.1713,0.0,0.0,0.0,-4.0801,-4.0561,-4.0546,-3.9993,-3.9709,-3.9553,-3.9553,-3.9709,-4.0041,-4.1106,-4.1473,-4.1336,-4.2367,-4.2451,-4.1682,-4.211,-4.2167,-4.2023,-4.2397,-4.2602,-4.2602,-4.2602,-4.2679,-4.2771,-4.2894,-4.2956,-4.294,-4.274,-4.2325,-4.1801,-4.1786,-4.1494,-4.0874,-4.0858,-4.0874,-4.0858,-4.0858,-4.0536,-3.9939,-3.9859,-3.957,-3.8875,-3.8338,-3.8031,-3.8046,-3.8154,-3.8231,-3.8231,-3.8954,-3.9939,-4.1155,-4.2134,-4.1821,-3.9681,-4.0496,-4.0942,-4.0517,-4.1489,-4.2166,-4.2367,-4.2834,-4.313,-4.3168,-4.376,-4.4421,-4.4978,-4.5352,-4.5915,-4.6833,-4.6898,-4.7144,-4.7813,-4.7563,-4.7482,-4.7794,-4.7533,-4.7366,-4.746,-4.6746,-4.6169,-4.6297,-4.6563,-4.6646,-4.6706,-4.6793,-4.6905,-4.7369,-4.7461,-4.766,-4.8103,-4.837,-4.8412,-4.8179,-4.8202,-4.8046,-4.7919,-4.7861,-4.7937,-4.7967,-4.8149,-4.8286,-4.8328,-4.8438,-4.8563,-4.3006,-4.3021,-4.3021,-4.306,-4.3006,-4.3021,-4.3006,-4.2931,-4.1878,-4.1422,-4.1422,-4.128,-4.1235,-4.1235,-4.1145,-4.0801,-4.0277,-4.0277,-4.0145,0.0,-4.1106,-4.174,-4.2025,-4.306,-4.3412,-4.3113,-4.2997,-4.2883,-4.2751,-4.2643,-4.2602,-4.2617,-4.2602,-4.2879,-4.347,-4.4055,-4.431,-4.4317,-4.3187,-4.2556,-4.2463,-4.2463,-4.2417,-4.234,-4.2294,-4.2309,-4.2325,-4.2294,-4.2001,-4.1355,-4.1309,-4.0986,-4.0259,-4.012,-4.0074,-4.0105,-4.0678,-4.1016,-4.1032,-4.2207,-4.3223,-4.391,-4.4187,-4.3492,-4.1763,-4.1615,-4.149,-4.1318,-4.2108,-4.2598,-4.2682,-4.324,-4.3696,-4.3897,-4.4482,-4.4962,-4.5327,-4.6404,-4.718,-4.7308,-4.7604,-4.7797,-4.7919,-4.7709,-4.7538,-4.7624,-4.7596,-4.7553,-4.7609,-4.7658,-4.7649,-4.7733,-4.8011,-4.8219,-4.8106,-4.8271,-4.8142,-4.816,-4.8103,-4.8061,-4.8072,-4.8133,-4.8133,-4.8049,-4.788,-4.7737,-4.7664,-4.7636,-4.7669,-4.7716,-4.7998,-4.8275,-4.826,-4.8412,-4.8563,-4.3618,-4.3319,-4.3305,-4.3305,-4.3305,-4.3305,-4.3305,-4.3245,-4.2662,-4.2432,-4.2402,-4.2058,-4.1946,-4.1916,-4.1572,-4.122,-4.0935,-4.0935,-4.0994,-4.1149,-4.2086,-4.252,-4.2563,-4.3454,-4.3702,-4.3267,-4.3432,-4.3459,-4.3397,-4.3553,-4.3679,-4.3679,-4.3679,-4.3818,-4.4125,-4.4471,-4.461,-4.461,-4.3987,-4.3494,-4.314,-4.3125,-4.2971,-4.2617,-4.2602,-4.2602,-4.2602,-4.2602,-4.2463,-4.2171,-4.214,-4.1986,-4.1643,-4.1612,-4.1627,-4.1663,-4.1955,-4.214,-4.2155,-4.3033,-4.3732,-4.404,-4.4409,-4.4227,-4.335,-4.3176,-4.2895,-4.2516,-4.2946,-4.3262,-4.3408,-4.3904,-4.4376,-4.4676,-4.5309,-4.5923,-4.6505,-4.7092,-4.7702,-4.7947,-4.7977,-4.8049,-4.8118,-4.7752,-4.7467,-4.7538,-4.7495,-4.7467,-4.7581,-4.7709,-4.7895,-4.8133,-4.8328,-4.8495,-4.8563,-4.8604,-4.8563,-4.8469,-4.837,-4.8286,-4.816,-4.8091,-4.7922,-4.7837,-4.7752,-4.7782,-4.7669,-4.7742,-4.7744,-4.7675,-4.7865,-4.8061,-4.8025,-4.8118,-4.8328,-4.4242,-4.3738,-4.3574,-4.3424,-4.3305,-4.3305,-4.3305,-4.3305,-4.329,-4.3305,-4.323,-4.2791,-4.262,-4.256,-4.2043,-4.1743,-4.1624,-4.1632,-4.1746,-4.2075,-4.2892,-4.322,-4.3149,-4.3956,-4.406,-4.3655,-4.3894,-4.4047,-4.4109,-4.4439,-4.461,-4.461,-4.461,-4.461,-4.461,-4.461,-4.461,-4.461,-4.461,-4.4363,-4.387,-4.384,-4.3571,-4.3094,-4.3063,-4.3048,-4.3048,-4.3048,-4.2971,-4.2833,-4.2817,-4.2756,-4.2602,-4.2602,-4.2602,-4.2617,-4.2756,-4.2894,-4.3063,-4.351,-4.384,-4.384,-4.4317,-4.4534,-4.4396,-4.4458,-4.422,-4.3625,-4.3782,-4.4059,-4.4252,-4.4703,-4.5122,-4.5511,-4.61,-4.6762,-4.7455,-4.7686,-4.7922,-4.8403,-4.8175,-4.7964,-4.8007,-4.7709,-4.7495,-4.7639,-4.751,-4.7467,-4.7624,-4.7639,-4.7794,-4.8091,-4.8202,-4.8286,-4.8453,-4.8453,-4.8412,-4.8412,-4.8202,-4.8091,-4.8007,-4.7922,-4.781,-4.7596,-4.7724,-4.7794,-4.7641,-4.7815,-4.7858,-4.7716,-4.782,-4.7936,-4.7812,-4.788,-4.8133,-4.5155,-4.502,-4.4451,-4.3868,-4.3349,-4.3319,-4.3319,-4.3305,-4.3305,-4.3305,-4.3275,-4.323,-4.3185,-4.32,-4.311,-4.2791,-4.2336,-4.2306,-4.2235,-4.2166,-4.2908,-4.3482,-4.3815,-4.4672,-4.5079,-4.4933,-4.4794,-4.4719,-4.4719,-4.4639,-4.461,-4.461,-4.461,-4.461,-4.461,-4.461,-4.461,-4.461,-4.461,-4.4579,-4.4533,-4.4517,-4.4464,-4.4402,-4.4372,-4.444,-4.4348,-4.444,-4.4148,-4.3578,-4.3516,-4.3217,-4.2725,-4.2633,-4.2633,-4.2663,-4.3171,-4.3778,-4.4295,-4.4486,-4.4502,-4.4517,-4.4548,-4.4603,-4.4595,-4.4948,-4.4869,-4.4302,-4.4558,-4.4853,-4.4929,-4.549,-4.5951,-4.6238,-4.6829,-4.7298,-4.7599,-4.8009,-4.8267,-4.8313,-4.8007,-4.7666,-4.7752,-4.7666,-4.7709,-4.7895,-4.7666,-4.7624,-4.7837,-4.7709,-4.7681,-4.7922,-4.8007,-4.8049,-4.8091,-4.8049,-4.8049,-4.7837,-4.7724,-4.7681,-4.7596,-4.7467,-4.7337,-4.7424,-4.7553,-4.7664,-4.7658,-4.7785,-4.7895,-4.7697,-4.777,-4.7967,-4.7964,-4.7922,-4.8049,-4.5663,-4.5259,-4.5005,-4.4526,-4.3958,-4.3873,-4.3648,-4.3305,-4.3305,-4.3305,-4.3305,-4.3305,-4.3305,-4.3305,-4.3305,-4.3234,-4.3166,-4.3151,-4.3249,-4.3388,-4.3724,-4.4021,-4.4331,-4.4659,-4.4867,-4.4814,-4.4761,-4.4739,-4.4723,-4.4663,-4.461,-4.461,-4.461,-4.461,-4.461,-4.461,-4.461,-4.461,-4.461,-4.461,-4.461,-4.461,-4.461,-4.461,-4.461,-4.461,-4.461,-4.461,-4.4449,-4.4225,-4.4209,-4.4086,-4.3787,-4.3771,-4.3771,-4.3787,-4.404,-4.4332,-4.4579,-4.461,-4.461,-4.461,-4.461,-4.4779,-4.518,-4.5356,-4.5447,-4.5583,-4.5559,-4.5647,-4.5828,-4.6361,-4.6824,-4.7134,-4.7681,-4.8106,-4.8163,-4.8352,-4.8495,-4.8469,-4.8202,-4.8034,-4.8118,-4.8076,-4.8007,-4.8007,-4.7752,-4.7709,-4.7922,-4.7681,-4.7553,-4.7681,-4.7666,-4.7709,-4.7922,-4.8007,-4.7937,-4.7852,-4.7709,-4.7538,-4.7467,-4.7352,-4.7309,-4.7309,-4.7596,-4.7722,-4.7616,-4.7888,-4.8095,-4.7797,-4.751,-4.7596,-4.7596,-4.7596,-4.7666,-4.6307,-4.5858,-4.5663,-4.52,-4.4586,-4.4586,-4.4172,-4.3604,-4.3559,-4.3484,-4.3305,-4.3305,-4.3344,-4.3423,-4.3423,-4.3518,-4.3675,-4.3769,-4.3988,-4.4281,-4.432,-4.4396,-4.4572,-4.461,-4.461,-4.461,-4.461,-4.461,-4.461,-4.461,-4.461,-4.461,-4.461,-4.461,-4.461,-4.461,-4.461,-4.461,-4.461,-4.461,-4.461,-4.461,-4.461,-4.461,-4.461,-4.461,-4.461,-4.461,-4.461,-4.461,-4.461,-4.461,-4.461,-4.461,-4.461,-4.461,-4.461,-4.461,-4.461,-4.461,-4.461,-4.4625,-4.4764,-4.5049,-4.5526,-4.5926,-4.6357,-4.6733,-4.6768,-4.6778,-4.6716,-4.7237,-4.7702,-4.7912,-4.8358,-4.8604,-4.8589,-4.8578,-4.8495,-4.848,-4.8286,-4.8286,-4.8453,-4.8355,-4.8244,-4.816,-4.7922,-4.7752,-4.788,-4.7639,-4.7337,-4.7467,-4.7381,-4.7482,-4.7724,-4.7752,-4.781,-4.781,-4.7596,-4.751,-4.751,-4.7396,-4.7309,-4.7352,-4.7681,-4.7837,-4.7691,-4.7895,-4.8067,-4.7729,-4.7456,-4.7352,-4.7352,-4.7309,-4.7424,-4.7249,-4.71,-4.6531,-4.5888,-4.5259,-4.5244,-4.4885,-4.4272,-4.4272,-4.3928,-4.3424,-4.3419,-4.3493,-4.3681,-4.375,-4.369,-4.3729,-4.391,-4.4089,-4.432,-4.4305,-4.4396,-4.4572,-4.461,-4.461,-4.461,-4.461,-4.461,-4.461,-4.461,-4.461,-4.461,-4.461,-4.461,-4.461,-4.461,-4.461,-4.461,-4.461,-4.461,-4.461,-4.461,-4.461,-4.461,-4.461,-4.461,-4.461,-4.461,-4.461,-4.461,-4.461,-4.461,-4.461,-4.461,-4.461,-4.461,-4.461,-4.461,-4.461,-4.461,-4.4625,-4.4718,-4.5195,-4.5572,-4.5818,-4.6711,-4.7357,-4.7558,-4.8009,-4.806,-4.7686,-4.7999,-4.8424,-4.844,-4.8558,-4.8604,-4.8604,-4.8438,-4.8328,-4.8328,-4.8218,-4.8202,-4.8343,-4.8328,-4.8412,-4.8412,-4.8202,-4.8007,-4.7922,-4.7639,-4.7381,-4.7352,-4.7352,-4.7309,-4.7352,-4.7439,-4.7381,-4.7424,-4.7424,-4.7337,-4.7309,-4.7309,-4.7309,-4.7352,-4.7553,-4.7681,-4.7681,-4.7724,-4.7767,-4.7626,-4.7426,-4.7309,-4.7309,-4.7309,-4.7381,-4.7309,-4.7294,-4.7055,-4.6561,-4.5992,-4.5948,-4.5574,-4.4975,-4.4945,-4.4825,-4.4616,-4.4764,-4.4619,-4.4278,-4.457,-4.45,-4.4134,-4.4166,-4.4281,-4.4458,-4.4511,-4.4549,-4.4572,-4.461,-4.461,-4.461,-4.461,-4.461,-4.461,-4.461,-4.461,-4.461,-4.461,-4.461,-4.461,-4.461,-4.461,-4.461,-4.461,-4.461,-4.461,-4.461,-4.461,-4.461,-4.461,-4.461,-4.461,-4.461,-4.461,-4.461,-4.461,-4.461,-4.461,-4.461,-4.461,-4.461,-4.461,-4.461,-4.461,-4.461,-4.4772,-4.5241,-4.5434,-4.6018,-4.6757,-4.7327,-4.7773,-4.8189,-4.8435,-4.845,-4.8389,-4.8496,-4.8604,-4.8604,-4.8604,-4.8604,-4.8563,-4.8537,-4.8495,-4.848,-4.8412,-4.8412,-4.8453,-4.8495,-4.8537,-4.8537,-4.837,-4.8218,-4.8133,-4.7794,-4.7467,-4.7467,-4.7396,-4.7309,-4.7309,-4.7309,-4.7309,-4.7309,-4.7309,-4.7309,-4.7309,-4.7309,-4.7309,-4.7309,-4.7467,-4.751,-4.751,-4.7467,-4.7553,-4.7525,-4.7309,-4.7309,-4.7309,-4.7309,-4.7396,-4.7309,-4.7309,-4.7309,-4.7055,-4.6666,-4.6593,-4.6262,-4.5663,-4.5633,-4.5555,-4.5473,-4.5608,-4.546,-4.5243,-4.5477,-4.5421,-4.5009,-4.4626,-4.4473,-4.4572,-4.461,-4.461,-4.461,-4.461,-4.461,-4.461,-4.461,-4.461,-4.461,-4.461,-4.461,-4.461,-4.461,-4.461,-4.461,-4.461,-4.461,-4.461,-4.461,-4.461,-4.461,-4.461,-4.461,-4.461,-4.461,-4.461,-4.461,-4.461,-4.461,-4.461,-4.461,-4.461,-4.461,-4.461,-4.461,-4.461,-4.461,-4.4733,-4.488,-4.4895,-4.5241,-4.5849,-4.6142,-4.668,-4.7527,-4.7804,-4.8173,-4.8496,-4.8604,-4.8604,-4.8604,-4.8604,-4.8604,-4.8604,-4.8604,-4.8604,-4.8604,-4.8604,-4.8563,-4.8563,-4.8563,-4.8563,-4.8604,-4.8563,-4.8563,-4.8604,-4.8396,-4.8286,-4.816,-4.788,-4.7553,-4.751,-4.7396,-4.7309,-4.7309,-4.7309,-4.7309,-4.7309,-4.7309,-4.7309,-4.7309,-4.7309,-4.7309,-4.7337,-4.7337,-4.7396,-4.7352,-4.7309,-4.7309,-4.7309,-4.7309,-4.7309,-4.7309,-4.7309,-4.7381,-4.7309,-4.7309,-4.7309,-4.7294,-4.7219,-4.7219,-4.689,-4.6381,-4.6322,-4.6149,-4.5924,-4.5826,-4.6102,-4.6219,-4.6284,-4.6373,-4.6195,-4.5241,-4.4756,-4.4695,-4.4641,-4.461,-4.461,-4.461,-4.461,-4.461,-4.461,-4.461,-4.461,-4.461,-4.461,-4.461,-4.461,-4.461,-4.461,-4.461,-4.461,-4.461,-4.461,-4.461,-4.461,-4.461,-4.461,-4.461,-4.461,-4.461,-4.461,-4.461,-4.461,-4.461,-4.461,-4.461,-4.461,-4.461,-4.461,-4.4625,-4.4625,-4.4979,-4.5449,-4.5557,-4.588,-4.6526,-4.7157,-4.7465,-4.7758,-4.8204,-4.8543,-4.8589,-4.8604,-4.8604,-4.8604,-4.8604,-4.8604,-4.8604,-4.8604,-4.8604,-4.8604,-4.8604,-4.8604,-4.8604,-4.8604,-4.8604,-4.8604,-4.8604,-4.8604,-4.8563,-4.8453,-4.8286,-4.816,-4.7922,-4.7596,-4.7424,-4.7381,-4.7366,-4.7337,-4.7309,-4.7309,-4.7309,-4.7309,-4.7309,-4.7309,-4.7309,-4.7309,-4.7309,-4.7309,-4.7352,-4.7352,-4.7309,-4.7309,-4.7309,-4.7309,-4.7309,-4.7309,-4.7309,-4.7381,-4.7309,-4.7309,-4.7309,-4.7309,-4.7309,-4.7309,-4.7174,-4.701,-4.7109,-4.7117,-4.7078,-4.7342,-4.7291,-4.7048,-4.7134,-4.6954,-4.6588,-4.6126,-4.5726,-4.5318,-4.4818,-4.4625,-4.4625,-4.461,-4.461,-4.461,-4.461,-4.461,-4.461,-4.461,-4.461,-4.461,-4.461,-4.461,-4.461,-4.461,-4.461,-4.461,-4.461,-4.461,-4.461,-4.461,-4.461,-4.461,-4.461,-4.461,-4.461,-4.461,-4.461,-4.461,-4.461,-4.461,-4.461,-4.461,-4.461,-4.4618,-4.5033,-4.5326,-4.5588,-4.6049,-4.6573,-4.7157,-4.7511,-4.7835,-4.8219,-4.8466,-4.8604,-4.8604,-4.8604,-4.8604,-4.8604,-4.8604,-4.8563,-4.8604,-4.8604,-4.8563,-4.8563,-4.8563,-4.8604,-4.8604,-4.8604,-4.8604,-4.8604,-4.8604,-4.8604,-4.8604,-4.8537,-4.8438,-4.837,-4.816,-4.8007,-4.7852,-4.7694,-4.7437,-4.7337,-4.7309,-4.7309,-4.7309,-4.7309,-4.7352,-4.7352,-4.7309,-4.7309,-4.7309,-4.7309,-4.7309,-4.7309,-4.7309,-4.7309,-4.7309,-4.7309,-4.7309,-4.7309,-4.7352,-4.7424,-4.7309,-4.7309,-4.7309,-4.7309,-4.7309,-4.7381,-4.7424,-4.7467,-4.7624,-4.7794,-4.7907,-4.816,-4.8099,-4.7845,-4.7891,-4.7742,-4.7342,-4.7111,-4.6742,-4.6203,-4.5341,-4.501,-4.4933,-4.4664,-4.461,-4.461,-4.461,-4.461,-4.461,-4.461,-4.461,-4.461,-4.461,-4.461,-4.461,-4.461,-4.461,-4.461,-4.461,-4.461,-4.461,-4.461,-4.461,-4.461,-4.461,-4.461,-4.461,-4.461,-4.461,-4.461,-4.461,-4.461,-4.461,-4.461,-4.461,-4.4695,-4.5187,-4.568,-4.5972,-4.6619,-4.725,-4.7819,-4.7973,-4.8142,-4.8527,-4.8604,-4.8604,-4.8604,-4.8604,-4.8604,-4.8604,-4.8604,-4.8578,-4.8495,-4.8495,-4.8453,-4.8412,-4.8453,-4.8495,-4.8495,-4.8521,-4.8563,-4.8604,-4.8604,-4.8604,-4.8604,-4.8604,-4.8521,-4.8495,-4.837,-4.8175,-4.798,-4.7727,-4.7497,-4.7352,-4.7309,-4.7309,-4.7309,-4.7309,-4.7396,-4.7424,-4.7352,-4.7309,-4.7309,-4.7309,-4.7309,-4.7309,-4.7309,-4.7309,-4.7309,-4.7309,-4.7352,-4.7396,-4.7439,-4.751,-4.7309,-4.7309,-4.7309,-4.7309,-4.7352,-4.7495,-4.7581,-4.7666,-4.7922,-4.8091,-4.8244,-4.8328,-4.8396,-4.8532,-4.8496,-4.845,-4.8466,-4.7942,-4.7635,-4.725,-4.6403,-4.5726,-4.5434,-4.4987,-4.4748,-4.461,-4.461,-4.461,-4.461,-4.461,-4.461,-4.461,-4.461,-4.461,-4.461,-4.461,-4.461,-4.461,-4.461,-4.461,-4.461,-4.461,-4.461,-4.461,-4.461,-4.461,-4.461,-4.461,-4.461,-4.461,-4.461,-4.461,-4.461,-4.461,-4.461,-4.4726,-4.5295,-4.6003,-4.6619,-4.7281,-4.7881,-4.8404,-4.8496,-4.8604,-4.8589,-4.8604,-4.8604,-4.8604,-4.8604,-4.8604,-4.8604,-4.8578,-4.8495,-4.8328,-4.8301,-4.8218,-4.8091,-4.8202,-4.8328,-4.837,-4.8438,-4.8604,-4.8604,-4.8604,-4.8604,-4.8604,-4.8604,-4.8537,-4.8453,-4.8328,-4.8118,-4.7937,-4.7812,-4.7598,-4.7482,-4.7309,-4.7309,-4.7309,-4.7352,-4.7467,-4.751,-4.7424,-4.7396,-4.7352,-4.7309,-4.7309,-4.7309,-4.7309,-4.7309,-4.7309,-4.7352,-4.7439,-4.7482,-4.751,-4.7639,-4.7309,-4.7309,-4.7309,-4.7396,-4.751,-4.7581,-4.7709,-4.7922,-4.8133,-4.826,-4.8328,-4.8453,-4.8521,-4.8604,-4.8604,-4.8604,-4.8543,-4.8419,-4.8358,-4.8204,-4.7511,-4.648,-4.5757,-4.5418,-4.5103,-4.4718,-4.4671,-4.461,-4.461,-4.461,-4.461,-4.461,-4.461,-4.461,-4.461,-4.461,-4.461,-4.461,-4.461,-4.461,-4.461,-4.461,-4.461,-4.461,-4.461,-4.461,-4.461,-4.461,-4.461,-4.461,-4.461,-4.461,-4.461,-4.4641,-4.4818,-4.5295,-4.5957,-4.6619,-4.7281,-4.7942,-4.8404,-4.8558,-4.8604,-4.8604,-4.8604,-4.8604,-4.8604,-4.8604,-4.8604,-4.8604,-4.8563,-4.8453,-4.8301,-4.8133,-4.8049,-4.8049,-4.8049,-4.8175,-4.8286,-4.8328,-4.848,-4.8563,-4.8604,-4.8604,-4.8604,-4.8604,-4.8563,-4.8578,-4.8495,-4.8453,-4.8328,-4.816,-4.8022,-4.7767,-4.7596,-4.7381,-4.7294,-4.7337,-4.7424,-4.7553,-4.7581,-4.7596,-4.7553,-4.751,-4.7352,-4.7309,-4.7309,-4.7309,-4.7309,-4.7309,-4.7352,-4.7439,-4.751,-4.7581,-4.7767,-4.7309,-4.7309,-4.7381,-4.751,-4.7639,-4.7794,-4.7992,-4.8118,-4.8328,-4.8412,-4.8453,-4.8521,-4.8604,-4.8604,-4.8604,-4.8604,-4.8604,-4.8604,-4.8604,-4.8543,-4.8189,-4.7265,-4.6296,-4.6003,-4.5649,-4.5064,-4.5041,-4.4872,-4.4656,-4.461,-4.461,-4.461,-4.461,-4.461,-4.461,-4.461,-4.461,-4.461,-4.461,-4.461,-4.461,-4.461,-4.461,-4.461,-4.461,-4.461,-4.461,-4.461,-4.461,-4.461,-4.461,-4.461,-4.4641,-4.4864,-4.521,-4.5634,-4.648,-4.7219,-4.7619,-4.8235,-4.8573,-4.8604,-4.8604,-4.8604,-4.8604,-4.8604,-4.8604,-4.8604,-4.8604,-4.8604,-4.8521,-4.837,-4.8091,-4.788,-4.7752,-4.781,-4.7964,-4.8007,-4.8118,-4.8244,-4.8412,-4.8537,-4.8563,-4.8604,-4.8604,-4.8604,-4.8604,-4.8604,-4.8563,-4.8563,-4.8537,-4.837,-4.816,-4.7864,-4.7639,-4.7424,-4.7337,-4.7337,-4.751,-4.7666,-4.7709,-4.7709,-4.7666,-4.7639,-4.7439,-4.7309,-4.7309,-4.7309,-4.7309,-4.7309,-4.7396,-4.751,-4.7624,-4.7794,-4.7964,-4.7309,-4.7294,-4.751,-4.7624,-4.7724,-4.8076,-4.8286,-4.837,-4.8495,-4.8563,-4.8563,-4.8563,-4.8604,-4.8604,-4.8604,-4.8604,-4.8604,-4.8604,-4.8604,-4.8589,-4.845,-4.7896,-4.7034,-4.6742,-4.6311,-4.5788,-4.5711,-4.5418,-4.5118,-4.4849,-4.4748,-4.4764,-4.4679,-4.4702,-4.4764,-4.4702,-4.4656,-4.4726,-4.4618,-4.461,-4.461,-4.461,-4.461,-4.461,-4.461,-4.461,-4.461,-4.461,-4.461,-4.461,-4.461,-4.461,-4.4649,-4.5172,-4.5557,-4.5834,-4.6726,-4.7404,-4.7773,-4.8327,-4.8604,-4.8604,-4.8604,-4.8604,-4.8604,-4.8604,-4.8604,-4.8604,-4.8604,-4.8563,-4.8453,-4.8218,-4.7922,-4.7666,-4.7467,-4.7553,-4.7837,-4.7794,-4.7794,-4.8202,-4.8286,-4.8427,-4.8537,-4.8604,-4.8604,-4.8604,-4.8604,-4.8604,-4.8604,-4.8563,-4.8537,-4.8412,-4.8187,-4.7961,-4.7694,-4.7467,-4.7381,-4.7381,-4.7639,-4.7794,-4.788,-4.788,-4.7837,-4.7724,-4.751,-4.7352,-4.7309,-4.7309,-4.7309,-4.7352,-4.7381,-4.7681,-4.7922,-4.8049,-4.8175,-4.7309,-4.7309,-4.751,-4.7709,-4.7922,-4.8218,-4.837,-4.8537,-4.8563,-4.8604,-4.8604,-4.8604,-4.8604,-4.8604,-4.8604,-4.8604,-4.8604,-4.8604,-4.8604,-4.8604,-4.8604,-4.8496,-4.8019,-4.7635,-4.7019,-4.6526,-4.6372,-4.6265,-4.6034,-4.5572,-4.5357,-4.5326,-4.5003,-4.4902,-4.5264,-4.4972,-4.488,-4.5187,-4.4949,-4.471,-4.4733,-4.4702,-4.4687,-4.4671,-4.4618,-4.4603,-4.461,-4.461,-4.461,-4.461,-4.4671,-4.4764,-4.4748,-4.4902,-4.5449,-4.6249,-4.6665,-4.7342,-4.8173,-4.8496,-4.8604,-4.8604,-4.8604,-4.8604,-4.8604,-4.8563,-4.8563,-4.8604,-4.8563,-4.8453,-4.8175,-4.8049,-4.7837,-4.7581,-4.7424,-4.7553,-4.8049,-4.8007,-4.798,-4.8133,-4.8328,-4.8521,-4.8578,-4.8604,-4.8604,-4.8604,-4.8604,-4.8604,-4.8604,-4.8604,-4.8537,-4.8427,-4.8214,-4.7946,-4.7737,-4.751,-4.7424,-4.7424,-4.7639,-4.7837,-4.7964,-4.7922,-4.7837,-4.7724,-4.7553,-4.7439,-4.7309,-4.7309,-4.7309,-4.7381,-4.7467,-4.7752,-4.8007,-4.8218,-4.837,-4.7337,-4.7467,-4.7666,-4.7922,-4.8175,-4.837,-4.8495,-4.8563,-4.8604,-4.8604,-4.8604,-4.8604,-4.8604,-4.8604,-4.8604,-4.8604,-4.8604,-4.8604,-4.8604,-4.8604,-4.8604,-4.8604,-4.8589,-4.825,-4.7742,-4.7157,-4.7065,-4.6927,-4.6573,-4.6296,-4.6049,-4.6049,-4.5664,-4.5757,-4.6003,-4.568,-4.5772,-4.5942,-4.5741,-4.5526,-4.5549,-4.5203,-4.5064,-4.5087,-4.508,-4.5172,-4.5526,-4.5557,-4.5541,-4.5511,-4.5495,-4.5357,-4.5264,-4.5673,-4.6357,-4.6911,-4.7434,-4.7773,-4.8466,-4.8604,-4.8604,-4.8604,-4.8604,-4.8521,-4.848,-4.8453,-4.8412,-4.8343,-4.8301,-4.8175,-4.788,-4.7794,-4.7666,-4.751,-4.7467,-4.7581,-4.788,-4.788,-4.7964,-4.816,-4.8412,-4.8495,-4.8521,-4.8563,-4.8604,-4.8604,-4.8604,-4.8604,-4.8604,-4.8563,-4.8495,-4.8412,-4.8157,-4.7946,-4.7779,-4.7596,-4.7424,-4.7467,-4.7596,-4.7794,-4.7964,-4.788,-4.7752,-4.7681,-4.7611,-4.7439,-4.7309,-4.7309,-4.7396,-4.751,-4.7624,-4.788,-4.8091,-4.8328,-4.8453,-4.7467,-4.7666,-4.7922,-4.8133,-4.8328,-4.8495,-4.8563,-4.8604,-4.8604,-4.8604,-4.8604,-4.8604,-4.8604,-4.8604,-4.8604,-4.8604,-4.8604,-4.8604,-4.8604,-4.8604,-4.8604,-4.8604,-4.8589,-4.8496,-4.8296,-4.7804,-4.7814,-4.7561,-4.7222,-4.6859,-4.6852,-4.6821,-4.6573,-4.6557,-4.668,-4.6603,-4.6557,-4.668,-4.6496,-4.6388,-4.6372,-4.5972,-4.5772,-4.5741,-4.5757,-4.5957,-4.6296,-4.6419,-4.6511,-4.6603,-4.6696,-4.6434,-4.6342,-4.6711,-4.7542,-4.7542,-4.7958,-4.8281,-4.8512,-4.8604,-4.8604,-4.8604,-4.8604,-4.8521,-4.8412,-4.8328,-4.826,-4.8175,-4.8091,-4.7964,-4.7639,-4.7709,-4.7596,-4.7467,-4.7553,-4.7681,-4.7709,-4.7709,-4.8034,-4.8328,-4.8453,-4.8521,-4.8563,-4.8604,-4.8604,-4.8604,-4.8604,-4.8604,-4.8604,-4.8521,-4.8453,-4.8301,-4.8061,-4.7792,-4.7581,-4.751,-4.7381,-4.7424,-4.7553,-4.7681,-4.7794,-4.7666,-4.7596,-4.7681,-4.7611,-4.7439,-4.7439,-4.751,-4.7596,-4.7681,-4.7837,-4.8034,-4.8244,-4.8453,-4.8537,-4.7709,-4.7964,-4.8175,-4.8301,-4.8328,-4.8495,-4.8604,-4.8604,-4.8604,-4.8604,-4.8604,-4.8604,-4.8604,-4.8604,-4.8604,-4.8604,-4.8646,-4.8687,-4.8687,-4.8687,-4.8687,-4.8702,-4.8728,-4.8769,-4.8594,-4.8553,-4.861,-4.8649,-4.8341,-4.8088,-4.7738,-4.7599,-4.7068,-4.6942,-4.7173,-4.6973,-4.7034,-4.7311,-4.705,-4.6834,-4.6757,-4.6573,-4.6434,-4.6434,-4.6434,-4.6573,-4.6634,-4.665,-4.6603,-4.665,-4.7142,-4.7311,-4.7204,-4.705,-4.7219,-4.7604,-4.785,-4.8204,-4.8527,-4.8604,-4.8604,-4.8604,-4.8604,-4.8563,-4.8495,-4.837,-4.8218,-4.8133,-4.8007,-4.788,-4.7624,-4.7709,-4.7752,-4.7666,-4.7752,-4.7964,-4.8091,-4.8175,-4.8175,-4.8412,-4.8495,-4.8521,-4.8563,-4.8604,-4.8604,-4.8604,-4.8604,-4.8604,-4.8604,-4.848,-4.8328,-4.8175,-4.7922,-4.7666,-4.7381,-4.7381,-4.7352,-4.7352,-4.7396,-4.7396,-4.7467,-4.7381,-4.7381,-4.7596,-4.7639,-4.7553,-4.7596,-4.7709,-4.7752,-4.7737,-4.7992,-4.8244,-4.837,-4.8495,-4.8521,-4.7794,-4.816,-4.8244,-4.8385,-4.8453,-4.8578,-4.8604,-4.8604,-4.8604,-4.8604,-4.8604,-4.8604,-4.8604,-4.8604,-4.8604,-4.8702,-4.8908,-4.8949,-4.9056,-4.9178,-4.9275,-4.9275,-4.9219,-4.9259,-4.9259,-4.934,-4.9461,-4.9347,-4.9021,-4.8686,-4.8484,-4.8413,-4.791,-4.7819,-4.8004,-4.7865,-4.7788,-4.7973,-4.7773,-4.7604,-4.7558,-4.7327,-4.7127,-4.7127,-4.7157,-4.7311,-4.7619,-4.765,-4.765,-4.7727,-4.7942,-4.8081,-4.8004,-4.7881,-4.7742,-4.8019,-4.8096,-4.8219,-4.8543,-4.8604,-4.8604,-4.8604,-4.8604,-4.8537,-4.8412,-4.826,-4.8091,-4.7852,-4.7767,-4.7596,-4.7452,-4.7581,-4.7596,-4.7681,-4.7837,-4.8091,-4.826,-4.837,-4.8412,-4.8453,-4.8521,-4.8563,-4.8563,-4.8604,-4.8604,-4.8604,-4.8604,-4.8604,-4.8604,-4.8396,-4.8244,-4.7964,-4.7752,-4.7553,-4.7309,-4.7309,-4.7309,-4.7309,-4.7309,-4.7309,-4.7309,-4.7309,-4.7424,-4.7639,-4.7624,-4.7624,-4.7694,-4.7722,-4.7764,-4.7864,-4.8118,-4.8328,-4.8453,-4.8537,-4.8563,-4.7964,-4.837,-4.837,-4.8453,-4.8563,-4.8604,-4.8604,-4.8604,-4.8604,-4.8604,-4.8604,-4.8604,-4.8604,-4.8604,-4.8646,-4.8826,-4.9275,-4.9275,-4.9477,-4.9757,-4.9797,-4.9876,-4.9876,-4.9916,-4.9836,-4.9757,-4.9979,-4.9836,-4.9291,-4.9122,-4.9047,-4.8846,-4.8671,-4.8604,-4.8527,-4.8419,-4.8604,-4.8604,-4.8604,-4.8604,-4.8466,-4.8112,-4.7804,-4.7804,-4.7819,-4.8065,-4.8389,-4.8435,-4.8435,-4.845,-4.8527,-4.8573,-4.8589,-4.8604,-4.8604,-4.8604,-4.8604,-4.8604,-4.8604,-4.8604,-4.8604,-4.8604,-4.8604,-4.8495,-4.8385,-4.8175,-4.7852,-4.7439,-4.7309,-4.7352,-4.7337,-4.7337,-4.751,-4.7709,-4.7922,-4.8133,-4.8328,-4.8495,-4.8521,-4.8563,-4.8604,-4.8563,-4.8563,-4.8604,-4.8604,-4.8604,-4.8604,-4.8604,-4.8563,-4.8328,-4.8076,-4.7794,-4.7596,-4.7439,-4.7309,-4.7309,-4.7309,-4.7309,-4.7309,-4.7309,-4.7309,-4.7309,-4.7467,-4.7596,-4.7639,-4.7624,-4.7722,-4.7834,-4.7992,-4.8133,-4.8244,-4.837,-4.8495,-4.8578,-4.8563,-4.8202,-4.8563,-4.8563,-4.8563,-4.8604,-4.8604,-4.8604,-4.8604,-4.8604,-4.8604,-4.8604,-4.8604,-4.8604,-4.8604,-4.8646,-4.8908,-4.9194,-4.9437,-4.9677,-5.0034,-5.0034,-5.0034,-4.9955,-4.9916,-5.0034,-5.0113,-5.0214,-4.9939,-4.9597,-4.9493,-4.9306,-4.9037,-4.8759,-4.8604,-4.8604,-4.8604,-4.8604,-4.8604,-4.8604,-4.8604,-4.8589,-4.8481,-4.8435,-4.8435,-4.8435,-4.8424,-4.8589,-4.8604,-4.8604,-4.8604,-4.8604,-4.8604,-4.8604,-4.8604,-4.8604,-4.8604,-4.8604,-4.8604,-4.8604,-4.8604,-4.8604,-4.8604,-4.8604,-4.8578,-4.8412,-4.8133,-4.7752,-4.7352,-4.7309,-4.7309,-4.7352,-4.7424,-4.7666,-4.7837,-4.8049,-4.8244,-4.8453,-4.8453,-4.8521,-4.8495,-4.8453,-4.8495,-4.8537,-4.8563,-4.8604,-4.8604,-4.8604,-4.8563,-4.848,-4.8286,-4.7907,-4.7639,-4.751,-4.7352,-4.7309,-4.7309,-4.7309,-4.7309,-4.7309,-4.7309,-4.7309,-4.7309,-4.7381,-4.751,-4.7553,-4.7626,-4.777,-4.794,-4.8164,-4.8301,-4.8355,-4.848,-4.8563,-4.8604,-4.8604,-4.826,-4.8604,-4.8604,-4.8604,-4.8604,-4.8604,-4.8604,-4.8604,-4.8604,-4.8604,-4.8604,-4.8604,-4.8604,-4.8646,-4.8867,-4.9235,-4.9597,-4.986,-5.0214,-5.0518,-5.0596,-5.0634,-5.0672,-5.0634,-5.0634,-5.0596,-5.0618,-5.0386,-4.9995,-4.9637,-4.9412,-4.9037,-4.8759,-4.8604,-4.8604,-4.8604,-4.8604,-4.8604,-4.8604,-4.8604,-4.8604,-4.8604,-4.8604,-4.8604,-4.8604,-4.8604,-4.8604,-4.8604,-4.8604,-4.8604,-4.8604,-4.8604,-4.8604,-4.8604,-4.8604,-4.8604,-4.8604,-4.8604,-4.8604,-4.8604,-4.8604,-4.8604,-4.8563,-4.8495,-4.8286,-4.7964,-4.7666,-4.7352,-4.7309,-4.7309,-4.7309,-4.7381,-4.7538,-4.7752,-4.8007,-4.8133,-4.8286,-4.837,-4.8412,-4.8385,-4.8343,-4.8385,-4.8412,-4.8453,-4.848,-4.8578,-4.8578,-4.8537,-4.8453,-4.8244,-4.7837,-4.7424,-4.7337,-4.7309,-4.7309,-4.7309,-4.7309,-4.7309,-4.7309,-4.7309,-4.7309,-4.7352,-4.7381,-4.7381,-4.7396,-4.757,-4.7774,-4.8013,-4.8218,-4.8355,-4.8464,-4.8506,-4.8604,-4.8604,-4.8604,-4.8286,-4.8563,-4.8604,-4.8604,-4.8604,-4.8604,-4.8604,-4.8604,-4.8604,-4.8604,-4.8604,-4.8604,-4.8646,-4.8811,-4.9153,-4.9557,-5.0073,-5.037,-5.0771,-5.1054,-5.1221,-5.1146,-5.1108,-5.1146,-5.1146,-5.1221,-5.1108,-5.0672,-5.0073,-4.9717,-4.9452,-4.8939,-4.8718,-4.8604,-4.8604,-4.8604,-4.8604,-4.8604,-4.8604,-4.8604,-4.8604,-4.8604,-4.8604,-4.8604,-4.8604,-4.8604,-4.8604,-4.8604,-4.8604,-4.8604,-4.8604,-4.8604,-4.8604,-4.8604,-4.8604,-4.8604,-4.8604,-4.8604,-4.8604,-4.8604,-4.8604,-4.8563,-4.848,-4.837,-4.8091,-4.7752,-4.7495,-4.7309,-4.7309,-4.7309,-4.7309,-4.7294,-4.7424,-4.7581,-4.7794,-4.788,-4.8007,-4.8118,-4.8202,-4.8218,-4.8175,-4.8133,-4.8218,-4.8328,-4.8412,-4.8495,-4.8537,-4.8495,-4.8328,-4.8133,-4.7794,-4.7337,-4.7309,-4.7309,-4.7309,-4.7309,-4.7309,-4.7309,-4.7309,-4.7309,-4.7309,-4.7309,-4.7352,-4.7309,-4.7309,-4.7456,-4.7645,-4.7983,-4.8271,-4.835,-4.846,-4.8547,-4.8604,-4.8604,-4.8604,-4.8412,-4.8604,-4.8604,-4.8604,-4.8604,-4.8604,-4.8604,-4.8604,-4.8604,-4.8604,-4.8646,-4.8646,-4.8908,-4.9194,-4.9396,-4.9821,-5.0448,-5.0486,-5.081,-5.1092,-5.1221,-5.1221,-5.1221,-5.1221,-5.1221,-5.1183,-5.1092,-5.0618,-5.0073,-4.9797,-4.9316,-4.8728,-4.862,-4.8604,-4.8604,-4.8604,-4.8604,-4.8604,-4.8604,-4.8604,-4.8604,-4.8604,-4.8604,-4.8604,-4.8604,-4.8604,-4.8604,-4.8604,-4.8604,-4.8604,-4.8604,-4.8604,-4.8604,-4.8604,-4.8604,-4.8604,-4.8604,-4.8604,-4.8604,-4.8604,-4.8604,-4.8537,-4.8412,-4.8244,-4.8007,-4.7767,-4.751,-4.7337,-4.7309,-4.7309,-4.7309,-4.7309,-4.7381,-4.751,-4.7624,-4.7724,-4.7837,-4.7922,-4.8007,-4.8007,-4.7964,-4.7922,-4.7937,-4.8007,-4.8202,-4.8301,-4.8286,-4.8286,-4.8133,-4.7922,-4.7639,-4.7352,-4.7309,-4.7309,-4.7309,-4.7309,-4.7309,-4.7309,-4.7309,-4.7309,-4.7309,-4.7309,-4.7309,-4.7309,-4.7309,-4.7427,-4.7544,-4.7882,-4.8145,-4.8304,-4.8414,-4.8532,-4.8604,-4.8604,-4.8604,-4.8412,-4.8604,-4.8604,-4.8604,-4.8604,-4.8604,-4.8604,-4.8604,-4.8604,-4.8785,-4.9031,-4.9056,-4.9275,-4.9637,-4.9939,-5.0175,-5.0525,-5.081,-5.1016,-5.1146,-5.1221,-5.1221,-5.1221,-5.1221,-5.1221,-5.1146,-5.094,-5.0541,-4.9955,-4.9717,-4.9178,-4.8769,-4.8604,-4.8604,-4.8604,-4.8604,-4.8604,-4.8604,-4.8604,-4.8604,-4.8604,-4.8604,-4.8604,-4.8604,-4.8604,-4.8604,-4.8604,-4.8604,-4.8604,-4.8604,-4.8604,-4.8604,-4.8604,-4.8604,-4.8604,-4.8604,-4.8604,-4.8604,-4.8604,-4.8604,-4.8604,-4.8537,-4.8328,-4.8076,-4.7964,-4.7639,-4.7439,-4.7309,-4.7309,-4.7309,-4.7309,-4.7309,-4.7352,-4.7424,-4.751,-4.7596,-4.7639,-4.7709,-4.7724,-4.7724,-4.7724,-4.7681,-4.7681,-4.7681,-4.788,-4.8049,-4.8091,-4.8049,-4.7922,-4.7767,-4.751,-4.7396,-4.7309,-4.7309,-4.7309,-4.7309,-4.7309,-4.7309,-4.7309,-4.7309,-4.7309,-4.7309,-4.7309,-4.7309,-4.7309,-4.7382,-4.7527,-4.7782,-4.8034,-4.824,-4.8392,-4.8547,-4.8604,-4.8604,-4.8604,-4.8453,-4.8563,-4.8604,-4.8604,-4.8604,-4.8604,-4.8604,-4.8604,-4.8604,-4.8867,-4.9316,-4.9396,-4.9717,-5.0058,-5.0331,-5.0602,-5.0771,-5.1016,-5.1146,-5.1221,-5.1221,-5.1221,-5.1221,-5.1183,-5.1092,-5.0978,-5.0695,-5.0292,-4.9677,-4.9452,-4.9072,-4.8728,-4.8604,-4.8604,-4.8604,-4.8604,-4.8604,-4.8604,-4.8604,-4.8604,-4.8604,-4.8604,-4.8604,-4.8604,-4.8604,-4.8604,-4.8604,-4.8604,-4.8604,-4.8604,-4.8604,-4.8604,-4.8604,-4.8604,-4.8604,-4.8604,-4.8604,-4.8604,-4.8604,-4.8604,-4.8521,-4.837,-4.8218,-4.8007,-4.781,-4.7525,-4.7352,-4.7309,-4.7309,-4.7309,-4.7309,-4.7309,-4.7309,-4.7396,-4.7381,-4.7467,-4.7424,-4.7467,-4.7424,-4.7439,-4.7439,-4.7467,-4.7467,-4.7525,-4.7639,-4.781,-4.7837,-4.7837,-4.7794,-4.7639,-4.7467,-4.7352,-4.7309,-4.7309,-4.7309,-4.7309,-4.7309,-4.7309,-4.7309,-4.7309,-4.7309,-4.7309,-4.7309,-4.7309,-4.7309,-4.7337,-4.7525,-4.7797,-4.7995,-4.8149,-4.8385,-4.8604,-4.8604,-4.8604,-4.8604,-4.8563,-4.8604,-4.8604,-4.862,-4.8646,-4.862,-4.8604,-4.8687,-4.8687,-4.8975,-4.9437,-4.9757,-5.0113,-5.0448,-5.0602,-5.0771,-5.1054,-5.1183,-5.1221,-5.1221,-5.1221,-5.1221,-5.1221,-5.1183,-5.1016,-5.0602,-5.037,-5.0018,-4.9356,-4.9235,-4.8949,-4.8744,-4.8604,-4.8604,-4.8604,-4.8604,-4.8604,-4.8604,-4.8604,-4.8604,-4.8604,-4.8604,-4.8604,-4.8604,-4.8604,-4.8604,-4.8604,-4.8604,-4.8604,-4.8604,-4.8604,-4.8604,-4.8604,-4.8604,-4.8604,-4.8604,-4.8604,-4.8563,-4.8578,-4.8563,-4.8412,-4.8175,-4.8049,-4.7837,-4.7624,-4.7424,-4.7309,-4.7309,-4.7309,-4.7309,-4.7309,-4.7309,-4.7309,-4.7309,-4.7337,-4.7337,-4.7337,-4.7337,-4.7309,-4.7309,-4.7309,-4.7309,-4.7309,-4.7352,-4.7467,-4.7553,-4.7596,-4.7639,-4.7666,-4.7553,-4.7381,-4.7381,-4.7352,-4.7309,-4.7309,-4.7309,-4.7309,-4.7309,-4.7309,-4.7309,-4.7309,-4.7309,-4.7309,-4.7309,-4.7352,-4.7439,-4.7583,-4.7827,-4.8052,-4.8275,-4.8412,-4.8604,-4.8604,-4.8604,-4.8604,-4.8604,-4.8604,-4.8949,-4.9056,-4.9072,-4.9056,-4.9072,-4.9097,-4.9356,-4.9717,-5.0058,-5.0253,-5.0541,-5.0864,-5.0924,-5.1054,-5.1183,-5.1221,-5.1221,-5.1221,-5.1221,-5.1221,-5.1183,-5.1146,-5.0924,-5.0525,-5.0253,-4.986,-4.9316,-4.9072,-4.8826,-4.8604,-4.8604,-4.8604,-4.8604,-4.8604,-4.8604,-4.8604,-4.8604,-4.8604,-4.8604,-4.8604,-4.8604,-4.8604,-4.8604,-4.8604,-4.8604,-4.8604,-4.8604,-4.8604,-4.8604,-4.8604,-4.8604,-4.8604,-4.8604,-4.8604,-4.8563,-4.8453,-4.8328,-4.8286,-4.8313,-4.8175,-4.7922,-4.7709,-4.7596,-4.7424,-4.7352,-4.7309,-4.7309,-4.7309,-4.7309,-4.7309,-4.7309,-4.7309,-4.7309,-4.7309,-4.7309,-4.7309,-4.7309,-4.7309,-4.7309,-4.7352,-4.7352,-4.7467,-4.7553,-4.7553,-4.7596,-4.7724,-4.7767,-4.7553,-4.7337,-4.7424,-4.7424,-4.7352,-4.7309,-4.7309,-4.7309,-4.7309,-4.7309,-4.7309,-4.7309,-4.7352,-4.7352,-4.7337,-4.7439,-4.754,-4.7742,-4.7986,-4.8221,-4.8442,-4.8537,-4.8604,-4.8604,-4.8604,-4.8604,-4.8744,-4.8661,-4.9113,-4.9194,-4.9113,-4.9356,-4.9517,-4.9597,-4.99,-5.0175,-5.0292,-5.0563,-5.0771,-5.0978,-5.1129,-5.1221,-5.1221,-5.1221,-5.1221,-5.1221,-5.1221,-5.1221,-5.1183,-5.0978,-5.0656,-5.0292,-4.9876,-4.9477,-4.9031,-4.8744,-4.862,-4.8604,-4.8604,-4.8604,-4.8604,-4.8604,-4.8604,-4.8604,-4.8604,-4.8604,-4.8604,-4.8604,-4.8604,-4.8604,-4.8604,-4.8604,-4.8604,-4.8604,-4.8604,-4.8604,-4.8604,-4.8604,-4.8604,-4.8604,-4.8604,-4.8604,-4.8563,-4.8453,-4.837,-4.8133,-4.8202,-4.8133,-4.7794,-4.7596,-4.751,-4.7381,-4.7309,-4.7309,-4.7309,-4.7309,-4.7309,-4.7309,-4.7309,-4.7309,-4.7309,-4.7309,-4.7309,-4.7309,-4.7337,-4.7337,-4.7467,-4.751,-4.751,-4.7596,-4.7666,-4.7624,-4.7596,-4.7724,-4.781,-4.7596,-4.7424,-4.7467,-4.7467,-4.7396,-4.7309,-4.7309,-4.7309,-4.7309,-4.7352,-4.7439,-4.7424,-4.7467,-4.7424,-4.7467,-4.7596,-4.7754,-4.7915,-4.8128,-4.8374,-4.851,-4.8563,-4.8604,-4.8604,-4.8604,-4.8604,-4.899,-4.8702,-4.9097,-4.9072,-4.8826,-4.9501,-4.9876,-4.9955,-5.0331,-5.0308,-4.9995,-5.0788,-5.0788,-5.0618,-5.094,-5.1108,-5.1054,-5.1054,-5.107,-5.1054,-5.0978,-5.1016,-5.0902,-5.0656,-5.0269,-4.9876,-4.9533,-4.9194,-4.8702,-4.862,-4.8604,-4.8604,-4.8604,-4.8604,-4.8604,-4.8604,-4.8604,-4.8604,-4.8604,-4.8604,-4.8604,-4.8604,-4.8604,-4.8604,-4.8604,-4.8604,-4.8604,-4.8604,-4.8604,-4.8604,-4.8604,-4.8604,-4.8604,-4.8604,-4.8604,-4.8604,-4.8604,-4.8537,-4.8453,-4.8218,-4.8007,-4.798,-4.7709,-4.751,-4.7381,-4.7294,-4.7309,-4.7309,-4.7309,-4.7309,-4.7309,-4.7309,-4.7309,-4.7309,-4.7309,-4.7309,-4.7337,-4.7381,-4.7409,-4.7538,-4.7752,-4.7794,-4.7752,-4.7794,-4.7752,-4.7666,-4.7639,-4.7596,-4.7681,-4.7681,-4.7553,-4.7596,-4.7553,-4.7439,-4.7396,-4.7482,-4.7482,-4.7568,-4.7596,-4.7639,-4.7624,-4.7639,-4.7681,-4.7752,-4.7895,-4.8052,-4.8167,-4.8321,-4.851,-4.8604,-4.8604,-4.8604,-4.8604,-4.8604,-4.8604,-4.8744,-4.8661,-4.9097,-4.9235,-4.9194,-4.9677,-5.023,-5.0733,-5.064,-5.0409,-5.0347,-5.0269,-5.023,-5.0113,-5.023,-5.048,-5.0502,-5.0502,-5.0502,-5.0541,-5.0502,-5.0363,-5.0246,-5.0152,-4.9836,-4.9597,-4.9331,-4.9031,-4.8687,-4.8604,-4.8604,-4.8604,-4.8604,-4.8604,-4.8604,-4.8604,-4.8604,-4.8604,-4.8604,-4.8604,-4.8604,-4.8604,-4.8604,-4.8604,-4.8604,-4.8604,-4.8604,-4.8604,-4.8604,-4.8604,-4.8604,-4.8604,-4.8604,-4.8604,-4.8604,-4.8604,-4.8563,-4.8537,-4.8385,-4.8133,-4.7922,-4.7767,-4.751,-4.7381,-4.7294,-4.7309,-4.7309,-4.7309,-4.7309,-4.7309,-4.7309,-4.7309,-4.7309,-4.7309,-4.7309,-4.7309,-4.7337,-4.7467,-4.7538,-4.7752,-4.7949,-4.7949,-4.7922,-4.7837,-4.7794,-4.7709,-4.7681,-4.7639,-4.7639,-4.7681,-4.7639,-4.7681,-4.7727,-4.7641,-4.7712,-4.7797,-4.7782,-4.7825,-4.7852,-4.7837,-4.7837,-4.788,-4.7922,-4.8022,-4.8149,-4.8275,-4.8484,-4.8578,-4.8604,-4.8604,-4.8604,-4.8604,-4.8604,-4.8604,-4.8604,-4.8785,-4.8702,-4.9113,-4.9275,-4.9356,-4.9557,-5.0073,-5.0541,-5.037,-5.0214,-5.0018,-4.9955,-4.9836,-4.9717,-4.9876,-5.0073,-5.0214,-5.0097,-5.0073,-5.0168,-5.001,-4.9995,-4.9916,-4.9717,-4.9557,-4.9331,-4.9113,-4.8867,-4.8646,-4.8604,-4.8604,-4.8604,-4.8604,-4.8604,-4.8604,-4.8604,-4.8604,-4.8604,-4.8604,-4.8604,-4.8604,-4.8604,-4.8604,-4.8604,-4.8604,-4.8604,-4.8604,-4.8604,-4.8604,-4.8604,-4.8604,-4.8604,-4.8604,-4.8604,-4.8604,-4.8563,-4.848,-4.8412,-4.8286,-4.8007,-4.7794,-4.7596,-4.7439,-4.7352,-4.7309,-4.7309,-4.7309,-4.7309,-4.7309,-4.7309,-4.7309,-4.7309,-4.7309,-4.7309,-4.7309,-4.7309,-4.7424,-4.7581,-4.7794,-4.8007,-4.8034,-4.8034,-4.7992,-4.7864,-4.7837,-4.781,-4.7767,-4.7709,-4.7767,-4.7852,-4.7752,-4.7709,-4.787,-4.7915,-4.8013,-4.8052,-4.8022,-4.8007,-4.8049,-4.8091,-4.8091,-4.8175,-4.8244,-4.8301,-4.8359,-4.8484,-4.8552,-4.8578,-4.8604,-4.8604,-4.8604,-4.8604,-4.8604,-4.8604,-4.8604,-4.899,-4.8604,-4.9087,-4.9178,-4.9235,-4.9235,-4.9437,-4.9757,-4.9757,-4.9637,-4.9437,-4.9637,-4.9501,-4.9316,-4.9477,-4.9693,-4.9757,-4.9677,-4.9677,-4.9852,-4.9637,-4.9597,-4.9517,-4.9437,-4.9194,-4.9072,-4.8908,-4.8687,-4.8646,-4.8604,-4.8604,-4.8604,-4.8604,-4.8604,-4.8604,-4.8604,-4.8604,-4.8604,-4.8604,-4.8604,-4.8604,-4.8604,-4.8604,-4.8604,-4.8604,-4.8604,-4.8604,-4.8604,-4.8604,-4.8604,-4.8604,-4.8604,-4.8604,-4.8604,-4.8604,-4.8521,-4.8412,-4.8328,-4.816,-4.7895,-4.7724,-4.7553,-4.7424,-4.7352,-4.7309,-4.7309,-4.7309,-4.7309,-4.7309,-4.7309,-4.7309,-4.7309,-4.7309,-4.7309,-4.7309,-4.7309,-4.7396,-4.7624,-4.7949,-4.816,-4.8286,-4.8244,-4.8034,-4.7964,-4.7794,-4.7852,-4.7767,-4.7666,-4.7767,-4.7852,-4.7922,-4.7794,-4.8037,-4.821,-4.8179,-4.8218,-4.816,-4.8145,-4.8244,-4.8301,-4.826,-4.8412,-4.8563,-4.8537,-4.8469,-4.8537,-4.8563,-4.8604,-4.8604,-4.8604,-4.8604,-4.8604,-4.8604,-4.8604,-4.8604,-4.8702,-4.862,-4.8744,-4.8785,-4.8785,-4.8785,-4.8826,-4.8908,-4.8908,-4.9056,-4.9235,-4.9072,-4.8893,-4.8893,-4.8949,-4.9153,-4.9356,-4.9235,-4.9194,-4.9219,-4.9178,-4.9113,-4.8975,-4.8934,-4.8811,-4.8744,-4.8661,-4.8604,-4.8604,-4.8604,-4.8604,-4.8604,-4.8604,-4.8604,-4.8604,-4.8604,-4.8604,-4.8604,-4.8604,-4.8604,-4.8604,-4.8604,-4.8604,-4.8604,-4.8604,-4.8604,-4.8604,-4.8604,-4.8604,-4.8604,-4.8604,-4.8604,-4.8604,-4.8604,-4.8521,-4.8396,-4.8286,-4.816,-4.8007,-4.7767,-4.7596,-4.751,-4.7424,-4.7352,-4.7309,-4.7309,-4.7309,-4.7309,-4.7309,-4.7309,-4.7309,-4.7309,-4.7309,-4.7309,-4.7309,-4.7309,-4.7309,-4.7666,-4.8076,-4.8244,-4.8412,-4.8328,-4.8133,-4.7964,-4.781,-4.7639,-4.7467,-4.7424,-4.7596,-4.7724,-4.8007,-4.8049,-4.8328,-4.8469,-4.8412,-4.8355,-4.8313,-4.8339,-4.8438,-4.8453,-4.8453,-4.8495,-4.8604,-4.8604,-4.8563,-4.8604,-4.8604,-4.8604,-4.8604,-4.8604,-4.8604,-4.8604,-4.8604,-4.8604,-4.8604,-4.8604,-4.8604,-4.8604,-4.8604,-4.8604,-4.8604,-4.8604,-4.8604,-4.8604,-4.8728,-4.8949,-4.8728,-4.8604,-4.8604,-4.862,-4.8702,-4.8934,-4.8744,-4.8826,-4.8811,-4.8769,-4.8687,-4.8604,-4.8604,-4.8604,-4.8604,-4.8604,-4.8604,-4.8604,-4.8604,-4.8604,-4.8604,-4.8604,-4.8604,-4.8604,-4.8604,-4.8604,-4.8604,-4.8604,-4.8604,-4.8604,-4.8604,-4.8604,-4.8604,-4.8604,-4.8604,-4.8604,-4.8604,-4.8604,-4.8604,-4.8604,-4.8604,-4.8563,-4.8495,-4.8412,-4.8244,-4.8133,-4.7964,-4.781,-4.7639,-4.751,-4.7424,-4.7381,-4.7309,-4.7309,-4.7309,-4.7309,-4.7309,-4.7309,-4.7309,-4.7309,-4.7309,-4.7309,-4.7309,-4.7309,-4.7352,-4.7424,-4.7624,-4.7922,-4.8091,-4.816,-4.8076,-4.7922,-4.7794,-4.7639,-4.7525,-4.7294,-4.7294,-4.7439,-4.7611,-4.788,-4.8133,-4.8385,-4.8537,-4.8521,-4.8521,-4.8521,-4.8563,-4.8604,-4.8563,-4.8537,-4.8563,-4.8604,-4.8604,-4.8604,-4.8604,-4.8604,-4.8604,-4.8604,-4.8604,-4.8604,-4.8604,-4.8604,-4.8604,-4.8604,-4.8604,-4.8604,-4.8604,-4.8604,-4.8604,-4.8604,-4.8604,-4.8604,-4.8604,-4.8604,-4.8646,-4.8604,-4.8604,-4.8604,-4.8604,-4.8604,-4.8604,-4.8604,-4.8646,-4.8646,-4.8604,-4.8604,-4.8604,-4.8604,-4.8604,-4.8604,-4.8604,-4.8604,-4.8604,-4.8604,-4.8604,-4.8604,-4.8604,-4.8604,-4.8604,-4.8604,-4.8604,-4.8604,-4.8604,-4.8604,-4.8604,-4.8604,-4.8604,-4.8604,-4.8604,-4.8604,-4.8604,-4.8604,-4.8604,-4.8604,-4.8604,-4.8604,-4.8521,-4.8453,-4.8286,-4.8175,-4.7895,-4.7709,-4.7553,-4.7424,-4.7352,-4.7309,-4.7309,-4.7309,-4.7309,-4.7309,-4.7309,-4.7309,-4.7309,-4.7309,-4.7309,-4.7309,-4.7309,-4.7309,-4.7352,-4.7352,-4.7467,-4.7581,-4.7752,-4.7922,-4.7922,-4.7837,-4.7752,-4.7624,-4.751,-4.7352,-4.7309,-4.7309,-4.7352,-4.7525,-4.7767,-4.8022,-4.8233,-4.8385,-4.8563,-4.8604,-4.8604,-4.8604,-4.8604,-4.8604,-4.8604,-4.8604,-4.8604,-4.8604,-4.8604,-4.8604,-4.8604,-4.8604,-4.8604,-4.8604,-4.8604,-4.8604,-4.8604,-4.8604,-4.8604,-4.8604,-4.8604,-4.8604,-4.8604,-4.8604,-4.8604,-4.8604,-4.8604,-4.8604,-4.8604,-4.8604,-4.8604,-4.8604,-4.8604,-4.8604,-4.8604,-4.8604,-4.8604,-4.8604,-4.8604,-4.8604,-4.8604,-4.8604,-4.8604,-4.8604,-4.8604,-4.8604,-4.8604,-4.8604,-4.8604,-4.8604,-4.8604,-4.8604,-4.8604,-4.8604,-4.8604,-4.8604,-4.8604,-4.8604,-4.8604,-4.8604,-4.8604,-4.8604,-4.8604,-4.8604,-4.8604,-4.8604,-4.8604,-4.8604,-4.8604,-4.8563,-4.8563,-4.848,-4.837,-4.8202,-4.8007,-4.7724,-4.7553,-4.7424,-4.7352,-4.7309,-4.7309,-4.7309,-4.7309,-4.7309,-4.7309,-4.7309,-4.7309,-4.7309,-4.7309,-4.7309,-4.7309,-4.7309,-4.7309,-4.7309,-4.7309,-4.7396,-4.751,-4.7624,-4.7767,-4.781,-4.7724,-4.7624,-4.7538,-4.7467,-4.7337,-4.7309,-4.7309,-4.7309,-4.7482,-4.7639,-4.7867,-4.8095,-4.8359,-4.8537,-4.8563,-4.8604,-4.8604,-4.8604,-4.8604,-4.8604,-4.8604,-4.8604,-4.8604,-4.8604,-4.8604,-4.8604,-4.8604,-4.8604,-4.8604,-4.8604,-4.8604,-4.8604,-4.8604,-4.8604]}]]